[[{"header":{"parameterUnit":"m.s-1","parameterCategory":1,"la1":30.6,"la2":28.766,"lo1":-90.7593,"lo2":-88.6598,"dy":0.0162,"dx":0.0183,"nx":116,"ny":114,"refTime":"2023-09-18T00:00:00:Z","depth":0,"parameterNumber":2,"parameterNumberName":"U-component_of_WINDS"},"data":[0.0,0.0,0.0,0.0,0.0,0.0,0.0,0.0,0.0,0.0,0.0,0.0,0.0,0.0,0.0,0.0,0.0,0.0,0.0,0.0,0.0,0.0,0.0,0.0,0.0,0.0,0.0,0.0,0.0,0.0,0.0,0.0,0.0,0.0,0.0,0.0,0.0,0.0,0.0,0.0,0.0,0.0,0.0,0.0,0.0,0.0,0.0,0.0,0.0,0.0,0.0,0.0,0.0,0.0,0.0,0.0,0.0,0.0,0.0,0.0,0.0,0.0,0.0,0.0,0.0,0.0,0.0,0.0,0.0,0.0,0.0,0.0,0.0,0.0,0.0,0.0,0.0,0.0,0.0,0.0,0.0,0.0,0.0,0.0,0.0,0.0,0.0,0.0,0.0,0.0,0.0,0.0,0.0,0.0,0.0,0.0,0.0,0.0,0.0,0.0,0.0,0.0,0.0,0.0,0.0,0.0,0.0,0.0,0.0,0.0,0.0,0.0,0.0,0.0,0.0,0.0,0.0,0.0,0.0,0.0,0.0,0.0,0.0,0.0,0.0,0.0,0.0,0.0,0.0,0.0,0.0,0.0,0.0,0.0,0.0,0.0,0.0,0.0,0.0,0.0,0.0,0.0,0.0,0.0,0.0,0.0,0.0,0.0,0.0,0.0,0.0,0.0,0.0,0.0,0.0,0.0,0.0,0.0,0.0,0.0,0.0,0.0,0.0,0.0,0.0,0.0,0.0,0.0,0.0,0.0,0.0,0.0,0.0,0.0,0.0,0.0,0.0,0.0,0.0,0.0,0.0,0.0,0.0,0.0,0.0,0.0,0.0,0.0,0.0,0.0,0.0,0.0,0.0,0.0,0.0,0.0,0.0,0.0,0.0,0.0,0.0,0.0,0.0,0.0,0.0,0.0,0.0,0.0,0.0,0.0,0.0,0.0,0.0,0.0,0.0,0.0,0.0,0.0,0.0,0.0,0.0,0.0,0.0,0.0,0.0,0.0,0.0,0.0,0.0,0.0,0.0,0.0,0.0,0.0,0.0,0.0,0.0,0.0,0.0,0.0,0.0,0.0,0.0,0.0,0.0,0.0,0.0,0.0,0.0,0.0,0.0,0.0,0.0,0.0,0.0,0.0,0.0,0.0,0.0,0.0,0.0,0.0,0.0,0.0,0.0,0.0,0.0,0.0,0.0,0.0,0.0,0.0,0.0,0.0,0.0,0.0,0.0,0.0,0.0,0.0,0.0,0.0,0.0,0.0,0.0,0.0,0.0,0.0,0.0,0.0,0.0,0.0,0.0,0.0,0.0,0.0,0.0,0.0,0.0,0.0,0.0,0.0,0.0,0.0,0.0,0.0,0.0,0.0,0.0,0.0,0.0,0.0,0.0,0.0,0.0,0.0,0.0,0.0,0.0,0.0,0.0,0.0,0.0,0.0,0.0,0.0,0.0,0.0,0.0,0.0,0.0,0.0,0.0,0.0,0.0,0.0,0.0,0.0,0.0,0.0,0.0,0.0,0.0,0.0,0.0,0.0,0.0,0.0,0.0,0.0,0.0,0.0,0.0,0.0,0.0,0.0,0.0,0.0,0.0,0.0,0.0,0.0,0.0,0.0,0.0,0.0,0.0,0.0,0.0,0.0,0.0,0.0,0.0,0.0,0.0,0.0,0.0,0.0,0.0,0.0,0.0,0.0,0.0,0.0,0.0,0.0,0.0,0.0,0.0,0.0,0.0,0.0,0.0,0.0,0.0,0.0,0.0,0.0,0.0,0.0,0.0,0.0,0.0,0.0,0.0,0.0,0.0,0.0,0.0,0.0,0.0,0.0,0.0,0.0,0.0,0.0,0.0,0.0,0.0,0.0,0.0,0.0,0.0,0.0,0.0,0.0,0.0,0.0,0.0,0.0,0.0,0.0,0.0,0.0,0.0,0.0,0.0,0.0,0.0,0.0,0.0,0.0,0.0,0.0,0.0,0.0,0.0,0.0,0.0,0.0,0.0,0.0,0.0,0.0,0.0,0.0,0.0,0.0,0.0,0.0,0.0,0.0,0.0,0.0,0.0,0.0,0.0,0.0,0.0,0.0,0.0,0.0,0.0,0.0,0.0,0.0,0.0,0.0,0.0,0.0,0.0,0.0,0.0,0.0,0.0,0.0,0.0,0.0,0.0,0.0,0.0,0.0,0.0,0.0,0.0,0.0,0.0,0.0,0.0,0.0,0.0,0.0,0.0,0.0,0.0,0.0,0.0,0.0,0.0,0.0,0.0,0.0,0.0,0.0,0.0,0.0,0.0,0.0,0.0,0.0,0.0,0.0,0.0,0.0,0.0,0.0,0.0,0.0,0.0,0.0,0.0,0.0,0.0,0.0,0.0,0.0,0.0,0.0,0.0,0.0,0.0,0.0,0.0,0.0,0.0,0.0,0.0,0.0,0.0,0.0,0.0,0.0,0.0,0.0,0.0,0.0,0.0,0.0,0.0,0.0,0.0,0.0,0.0,0.0,0.0,0.0,0.0,0.0,0.0,0.0,0.0,0.0,0.0,0.0,0.0,0.0,0.0,0.0,0.0,0.0,0.0,0.0,0.0,0.0,0.0,0.0,0.0,0.0,0.0,0.0,0.0,0.0,0.0,0.0,0.0,0.0,0.0,0.0,0.0,0.0,0.0,0.0,0.0,0.0,0.0,0.0,0.0,0.0,0.0,0.0,0.0,0.0,0.0,0.0,0.0,0.0,0.0,0.0,0.0,0.0,0.0,0.0,0.0,0.0,0.0,0.0,0.0,0.0,0.0,0.0,0.0,0.0,0.0,0.0,0.0,0.0,0.0,0.0,0.0,0.0,0.0,0.0,0.0,0.0,0.0,0.0,0.0,0.0,0.0,0.0,0.0,0.0,0.0,0.0,0.0,0.0,0.0,0.0,0.0,0.0,0.0,0.0,0.0,0.0,0.0,0.0,0.0,0.0,0.0,0.0,0.0,0.0,0.0,0.0,0.0,0.0,0.0,0.0,0.0,0.0,0.0,0.0,0.0,0.0,0.0,0.0,0.0,0.0,0.0,0.0,0.0,0.0,0.0,0.0,0.0,0.0,0.0,0.0,0.0,0.0,0.0,0.0,0.0,0.0,0.0,0.0,0.0,0.0,0.0,0.0,0.0,0.0,0.0,0.0,0.0,0.0,0.0,0.0,0.0,0.0,0.0,0.0,0.0,0.0,0.0,0.0,0.0,0.0,0.0,0.0,0.0,0.0,0.0,0.0,0.0,0.0,0.0,0.0,0.0,0.0,0.0,0.0,0.0,0.0,0.0,0.0,0.0,0.0,0.0,0.0,0.0,0.0,0.0,0.0,0.0,0.0,0.0,0.0,0.0,0.0,0.0,0.0,0.0,0.0,0.0,0.0,0.0,0.0,0.0,0.0,0.0,0.0,0.0,0.0,0.0,0.0,0.0,0.0,0.0,0.0,0.0,0.0,0.0,0.0,0.0,0.0,0.0,0.0,0.0,0.0,0.0,0.0,0.0,0.0,0.0,0.0,0.0,0.0,0.0,0.0,0.0,0.0,0.0,0.0,0.0,0.0,0.0,0.0,0.0,0.0,0.0,0.0,0.0,0.0,0.0,0.0,0.0,0.0,0.0,0.0,0.0,0.0,0.0,0.0,0.0,0.0,0.0,0.0,0.0,0.0,0.0,0.0,0.0,0.0,0.0,0.0,0.0,0.0,0.0,0.0,0.0,0.0,0.0,0.0,0.0,0.0,0.0,0.0,0.0,0.0,0.0,0.0,0.0,0.0,0.0,0.0,0.0,0.0,0.0,0.0,0.0,0.0,0.0,0.0,0.0,0.0,0.0,0.0,0.0,0.0,0.0,0.0,0.0,0.0,0.0,0.0,0.0,0.0,0.0,0.0,0.0,0.0,0.0,0.0,0.0,0.0,0.0,0.0,0.0,0.0,0.0,0.0,0.0,0.0,0.0,0.0,0.0,0.0,0.0,0.0,0.0,0.0,0.0,0.0,0.0,0.0,0.0,0.0,0.0,0.0,0.0,0.0,0.0,0.0,0.0,0.0,0.0,0.0,0.0,0.0,0.0,0.0,0.0,0.0,0.0,0.0,0.0,0.0,0.0,0.0,0.0,0.0,0.0,0.0,0.0,0.0,0.0,0.0,0.0,0.0,0.0,0.0,0.0,0.0,0.0,0.0,0.0,0.0,0.0,0.0,0.0,0.0,0.0,0.0,0.0,0.0,0.0,0.0,0.0,0.0,0.0,0.0,0.0,0.0,0.0,0.0,0.0,0.0,0.0,0.0,0.0,0.0,0.0,0.0,0.0,0.0,0.0,0.0,0.0,0.0,0.0,0.0,0.0,0.0,0.0,0.0,0.0,0.0,0.0,0.0,0.0,0.0,0.0,0.0,0.0,0.0,0.0,0.0,0.0,0.0,0.0,0.0,0.0,0.0,0.0,0.0,0.0,0.0,0.0,0.0,0.0,0.0,0.0,0.0,0.0,0.0,0.0,0.0,0.0,0.0,0.0,0.0,0.0,0.0,0.0,0.0,0.0,0.0,0.0,0.0,0.0,0.0,0.0,0.0,0.0,0.0,0.0,0.0,0.0,0.0,0.0,0.0,0.0,0.0,0.0,0.0,0.0,0.0,0.0,0.0,0.0,0.0,0.0,0.0,0.0,0.0,0.0,0.0,0.0,0.0,0.0,0.0,0.0,0.0,0.0,0.0,0.0,0.0,0.0,0.0,0.0,0.0,0.0,0.0,0.0,0.0,0.0,0.0,0.0,0.0,0.0,0.0,0.0,0.0,0.0,0.0,0.0,0.0,0.0,0.0,0.0,0.0,0.0,0.0,0.0,0.0,0.0,0.0,0.0,0.0,0.0,0.0,0.0,0.0,0.0,0.0,0.0,0.0,0.0,0.0,0.0,0.0,0.0,0.0,0.0,0.0,0.0,0.0,0.0,0.0,0.0,0.0,0.0,0.0,0.0,0.0,0.0,0.0,0.0,0.0,0.0,0.0,0.0,0.0,0.0,0.0,0.0,0.0,0.0,0.0,0.0,0.0,0.0,0.0,0.0,0.0,0.0,0.0,0.0,0.0,0.0,0.0,0.0,0.0,0.0,0.0,0.0,0.0,0.0,0.0,0.0,0.0,0.0,0.0,0.0,0.0,0.0,0.0,0.0,0.0,0.0,0.0,0.0,0.0,0.0,0.0,0.0,0.0,0.0,0.0,0.0,0.0,0.0,0.0,0.0,0.0,0.0,0.0,0.0,0.0,0.0,0.0,0.0,0.0,0.0,0.0,0.0,0.0,0.0,0.0,0.0,0.0,0.0,0.0,0.0,0.0,0.0,0.0,0.0,0.0,0.0,0.0,0.0,0.0,0.0,0.0,0.0,0.0,0.0,0.0,0.0,0.0,0.0,0.0,0.0,0.0,0.0,0.0,0.0,0.0,0.0,0.0,0.0,0.0,0.0,0.0,0.0,0.0,0.0,0.0,0.0,0.0,0.0,0.0,0.0,0.0,0.0,0.0,0.0,0.0,0.0,0.0,0.0,0.0,0.0,0.0,0.0,0.0,0.0,0.0,0.0,0.0,0.0,0.0,0.0,0.0,0.0,0.0,0.0,0.0,0.0,0.0,0.0,0.0,0.0,0.0,0.0,0.0,0.0,0.0,0.0,0.0,0.0,0.0,0.0,0.0,0.0,0.0,0.0,0.0,0.0,0.0,0.0,0.0,0.0,0.0,0.0,0.0,0.0,0.0,0.0,0.0,0.0,0.0,0.0,0.0,0.0,0.0,0.0,0.0,0.0,0.0,0.0,0.0,0.0,0.0,0.0,0.0,0.0,0.0,0.0,0.0,0.0,0.0,0.0,0.0,0.0,0.0,0.0,0.0,0.0,0.0,0.0,0.0,0.0,0.0,0.0,0.0,0.0,0.0,0.0,0.0,0.0,0.0,0.0,0.0,0.0,0.0,0.0,0.0,0.0,0.0,0.0,0.0,0.0,0.0,0.0,0.0,0.0,0.0,0.0,0.0,0.0,0.0,0.0,0.0,0.0,0.0,0.0,0.0,0.0,0.0,0.0,0.0,0.0,0.0,0.0,0.0,0.0,0.0,2.4738,0.0,0.0,0.0,0.0,0.0,0.0,0.0,0.0,0.0,0.0,0.0,0.0,0.0,0.0,0.0,0.0,0.0,0.0,0.0,0.0,0.0,0.0,0.0,0.0,0.0,0.0,0.0,0.0,0.0,0.0,0.0,0.0,0.0,0.0,0.0,0.0,0.0,0.0,0.0,0.0,0.0,0.0,0.0,0.0,0.0,0.0,0.0,0.0,0.0,0.0,0.0,0.0,0.0,0.0,0.0,0.0,0.0,0.0,0.0,0.0,0.0,0.0,0.0,0.0,0.0,0.0,0.0,0.0,0.0,0.0,0.0,0.0,0.0,0.0,0.0,0.0,0.0,0.0,0.0,0.0,0.0,0.0,0.0,0.0,0.0,0.0,0.0,0.0,0.0,0.0,0.0,0.0,0.0,0.0,0.0,0.0,0.0,0.0,0.0,0.0,0.0,0.0,0.0,0.0,0.0,0.0,0.0,0.0,0.0,0.0,0.0,0.0,0.0,0.0,0.0,0.0,2.4947,0.0,0.0,0.0,0.0,0.0,0.0,0.0,0.0,0.0,0.0,0.0,0.0,0.0,0.0,0.0,0.0,0.0,0.0,0.0,0.0,0.0,0.0,0.0,0.0,0.0,0.0,0.0,0.0,0.0,0.0,0.0,0.0,0.0,0.0,0.0,0.0,0.0,0.0,0.0,0.0,0.0,0.0,0.0,0.0,0.0,0.0,0.0,0.0,0.0,0.0,0.0,0.0,0.0,0.0,0.0,0.0,0.0,0.0,0.0,0.0,0.0,0.0,0.0,0.0,0.0,0.0,0.0,0.0,0.0,0.0,0.0,0.0,0.0,0.0,0.0,0.0,0.0,0.0,0.0,0.0,0.0,0.0,0.0,0.0,0.0,0.0,0.0,0.0,0.0,0.0,0.0,0.0,0.0,0.0,0.0,0.0,0.0,0.0,0.0,0.0,0.0,0.0,0.0,0.0,0.0,0.0,0.0,0.0,3.1476,3.2262,3.3206,3.3343,3.3159,3.249,2.9055,2.694,2.5937,2.6425,0.0,0.0,0.0,0.0,0.0,0.0,0.0,0.0,0.0,0.0,0.0,0.0,0.0,0.0,0.0,0.0,0.0,0.0,0.0,0.0,0.0,0.0,0.0,0.0,0.0,0.0,0.0,0.0,0.0,0.0,0.0,0.0,0.0,0.0,0.0,0.0,0.0,0.0,2.1006,2.17,2.2401,2.2945,0.0,0.0,0.0,0.0,0.0,0.0,0.0,0.0,0.0,0.0,0.0,0.0,0.0,0.0,0.0,0.0,0.0,0.0,0.0,0.0,0.0,0.0,0.0,0.0,0.0,0.0,0.0,0.0,0.0,0.0,0.0,0.0,0.0,0.0,0.0,0.0,0.0,0.0,0.0,0.0,0.0,0.0,0.0,0.0,2.2648,2.2151,0.0,0.0,0.0,0.0,0.0,0.0,0.0,0.0,0.0,0.0,0.0,0.0,0.0,3.1578,3.2869,3.3335,3.3022,3.2076,3.3406,3.3512,3.2476,3.3094,3.3684,3.4168,3.3635,0.0,2.9376,2.8851,0.0,0.0,0.0,0.0,0.0,0.0,0.0,0.0,0.0,0.0,0.0,0.0,0.0,0.0,0.0,0.0,0.0,0.0,0.0,0.0,0.0,0.0,0.0,0.0,0.0,0.0,0.0,0.0,0.0,0.0,0.0,0.0,0.0,0.0,0.0,0.0,2.0904,2.1581,2.211,2.3086,2.371,2.4,2.331,2.3148,2.3351,2.2487,0.0,0.0,0.0,0.0,0.0,0.0,0.0,0.0,0.0,0.0,0.0,0.0,0.0,0.0,0.0,0.0,0.0,0.0,0.0,0.0,0.0,0.0,0.0,0.0,0.0,0.0,0.0,0.0,0.0,0.0,0.0,0.0,0.0,0.0,0.0,0.0,0.0,0.0,0.0,2.5125,2.5848,2.458,2.6366,2.7294,0.0,0.0,0.0,0.0,0.0,0.0,0.0,0.0,0.0,3.2411,3.3014,3.3829,3.4888,3.5887,3.6503,3.6701,3.8183,3.8535,3.7957,3.8682,3.8984,3.8892,3.8892,3.7444,3.4912,3.247,3.0755,2.9614,0.0,0.0,0.0,0.0,3.0654,3.1211,0.0,0.0,0.0,0.0,0.0,0.0,0.0,0.0,0.0,0.0,0.0,0.0,0.0,0.0,0.0,2.0506,0.0,0.0,0.0,0.0,0.0,0.0,0.0,0.0,0.0,0.0,0.0,0.0,2.3055,2.3745,2.3996,2.5094,2.5711,2.5866,2.5866,2.5249,2.4133,2.3265,2.2613,0.0,0.0,0.0,0.0,0.0,0.0,0.0,0.0,0.0,0.0,0.0,0.0,0.0,0.0,0.0,0.0,0.0,0.0,0.0,0.0,0.0,0.0,0.0,0.0,0.0,0.0,0.0,0.0,0.0,0.0,0.0,0.0,0.0,0.0,0.0,0.0,0.0,0.0,2.7251,2.8092,2.6098,2.8526,2.9761,0.0,0.0,0.0,0.0,0.0,0.0,3.1956,3.2673,3.3462,3.4375,3.5311,3.6208,3.7165,3.8534,3.9772,4.0876,4.1992,4.2483,4.2509,4.2813,4.2654,4.2156,4.2156,4.1257,3.95,3.5994,3.3362,3.1519,3.1568,3.1391,3.1124,3.1799,3.2583,3.3372,0.0,0.0,0.0,0.0,0.0,0.0,0.0,0.0,0.0,0.0,0.0,0.0,0.0,0.0,2.1255,2.2887,2.2176,2.1632,0.0,0.0,0.0,0.0,0.0,0.0,0.0,0.0,0.0,2.3468,2.4195,2.5507,2.7375,2.8075,2.8727,2.9345,2.9345,2.8623,2.715,2.4032,2.3618,2.4847,0.0,0.0,0.0,0.0,0.0,0.0,0.0,0.0,0.0,0.0,0.0,0.0,0.0,0.0,0.0,0.0,0.0,0.0,0.0,0.0,0.0,0.0,0.0,0.0,0.0,0.0,0.0,0.0,0.0,0.0,0.0,0.0,0.0,0.0,0.0,0.0,0.0,0.0,0.0,2.4998,2.8546,0.0,0.0,0.0,0.0,3.3079,3.3042,3.3359,3.4187,3.4759,3.5695,3.7136,3.8514,3.9949,4.1379,4.2362,4.2874,4.2953,4.3032,4.3077,4.3032,4.2185,4.178,4.1733,4.1733,4.178,4.1634,3.8819,3.6766,3.5259,3.4582,3.4708,3.5217,3.4569,3.4377,3.4331,0.0,0.0,0.0,0.0,0.0,0.0,0.0,0.0,0.0,0.0,0.0,0.0,0.0,2.2383,2.3595,2.5261,2.4683,2.404,2.3574,0.0,0.0,0.0,0.0,0.0,0.0,0.0,2.3977,2.5531,2.7057,2.8368,2.9481,3.0575,3.1233,3.1451,3.0837,3.0631,3.0522,2.7255,2.522,2.4098,2.2738,2.1794,0.0,0.0,0.0,0.0,0.0,0.0,0.0,0.0,0.0,0.0,0.0,0.0,0.0,0.0,0.0,0.0,0.0,0.0,0.0,0.0,0.0,0.0,0.0,0.0,0.0,0.0,0.0,0.0,0.0,0.0,0.0,0.0,0.0,0.0,0.0,0.0,0.0,3.0978,3.3468,0.0,3.3075,3.3448,3.4201,3.5172,3.5612,3.638,3.7619,3.8321,3.9358,4.0845,4.1767,4.2763,4.3742,4.461,4.4763,4.4272,4.484,4.4813,4.4257,4.3997,4.3827,4.3729,4.3336,4.2936,4.2425,4.1475,4.0042,3.8408,3.7684,3.7256,3.7104,3.7319,3.7687,3.8116,0.0,0.0,0.0,0.0,0.0,0.0,0.0,0.0,0.0,0.0,0.0,2.0569,2.2248,2.3704,2.5171,2.6617,2.5789,2.4922,2.4246,0.0,0.0,0.0,0.0,0.0,0.0,2.377,2.546,2.7171,2.8614,2.9797,3.0704,3.15,3.1857,3.1826,3.1206,3.127,3.1704,2.9544,2.7323,2.5196,2.4099,2.3452,2.2932,0.0,0.0,0.0,0.0,0.0,0.0,0.0,0.0,0.0,0.0,0.0,0.0,0.0,0.0,0.0,0.0,0.0,0.0,0.0,0.0,0.0,0.0,0.0,0.0,0.0,0.0,0.0,0.0,0.0,0.0,0.0,0.0,0.0,0.0,0.0,3.4828,3.508,3.7266,3.8241,3.6907,3.7142,3.7762,3.8736,3.9165,3.9924,4.1164,4.1616,4.2299,4.3273,4.3944,4.4547,4.5022,4.5863,4.6022,4.5498,4.587,4.5854,4.5492,4.4789,4.4578,4.4658,4.4047,4.3499,4.3099,4.3091,4.2456,4.1343,4.066,4.0271,4.0234,4.0726,4.1213,4.1636,0.0,0.0,0.0,0.0,0.0,0.0,0.0,0.0,0.0,0.0,1.8885,2.0216,2.2692,2.442,2.5847,2.698,2.5466,2.4151,2.35,2.1108,0.0,0.0,0.0,0.0,2.308,2.463,2.6367,2.8326,2.8697,2.9656,3.1112,3.0809,3.0659,3.0659,3.0625,3.0633,3.0659,3.0625,2.9867,2.8558,2.6511,2.6063,2.6399,0.0,0.0,0.0,0.0,0.0,0.0,0.0,0.0,0.0,0.0,0.0,0.0,0.0,0.0,0.0,0.0,0.0,0.0,0.0,0.0,0.0,0.0,0.0,0.0,0.0,0.0,0.0,0.0,0.0,0.0,0.0,0.0,0.0,3.159,3.5008,3.7315,3.6784,3.9547,4.1002,3.9777,4.0891,4.2256,4.3628,4.3622,4.3878,4.4567,4.4426,4.4338,4.4335,4.4982,4.5332,4.5319,4.6229,4.6691,4.6672,4.601,4.6048,4.6604,4.4375,4.3715,4.4297,4.3608,4.3459,4.3698,4.3698,4.3808,4.3979,4.3401,4.3755,4.4613,4.4613,4.4613,4.4512,0.0,0.0,0.0,0.0,0.0,0.0,0.0,0.0,0.0,0.0,2.0115,2.2038,2.4308,2.6167,2.7739,2.8935,2.6631,2.5042,2.4794,0.0,0.0,0.0,0.0,0.0,2.5303,2.7131,2.8475,2.9327,3.0331,3.1063,3.1458,3.1863,3.2043,3.2008,3.1352,3.1424,3.1991,3.1227,3.1106,3.1251,2.9014,2.7795,2.7245,0.0,0.0,0.0,0.0,0.0,0.0,0.0,0.0,0.0,0.0,0.0,0.0,0.0,0.0,0.0,0.0,0.0,0.0,0.0,0.0,0.0,0.0,0.0,0.0,0.0,0.0,0.0,0.0,0.0,0.0,0.0,0.0,3.5745,3.5737,3.795,4.0029,4.1276,4.2661,4.3379,4.3013,4.3325,4.3724,4.4127,4.4559,4.4876,4.5112,4.5059,4.5016,4.5038,4.5686,4.6031,4.6035,4.628,4.6394,4.6394,4.5732,4.5762,4.6361,4.5247,4.4847,4.4979,4.4317,4.3798,4.3399,4.3399,4.3858,4.459,4.4716,4.4941,4.5175,4.5175,4.5175,4.5156,0.0,0.0,0.0,0.0,0.0,0.0,0.0,0.0,0.0,0.0,2.0482,2.2369,2.4134,2.5996,2.7289,2.7674,2.5511,2.3992,2.3728,0.0,0.0,0.0,0.0,2.5717,2.6266,2.7956,2.9069,2.9563,3.0166,3.0655,3.101,3.1296,3.1434,3.1406,3.1081,3.1242,3.1731,3.134,3.1882,3.2891,3.1559,3.0866,3.0572,2.9743,2.9143,2.866,2.805,2.7739,2.7435,2.625,0.0,0.0,0.0,0.0,0.0,0.0,0.0,0.0,0.0,0.0,0.0,0.0,0.0,0.0,0.0,0.0,0.0,0.0,0.0,0.0,0.0,0.0,0.0,0.0,3.788,4.0163,4.1004,4.19,4.318,4.5174,4.5992,4.6292,4.5992,4.5992,4.5992,4.5992,4.6332,4.6572,4.6572,4.6572,4.6429,4.6152,4.6507,4.6706,4.6713,4.6732,4.6732,4.6702,4.6035,4.6081,4.6679,4.5722,4.545,4.5684,4.5001,4.4508,4.4147,4.4147,4.4467,0.0,0.0,0.0,0.0,0.0,4.5532,4.534,0.0,0.0,0.0,0.0,0.0,0.0,0.0,0.0,0.0,0.0,0.0,2.1704,2.279,2.4577,2.5477,2.4931,2.3304,2.2144,0.0,0.0,0.0,2.3625,2.599,2.7102,2.6713,2.8028,2.8943,2.945,2.914,2.942,3.0232,3.0012,2.9905,3.0015,3.0548,3.0773,3.0824,3.1436,3.2475,3.3732,3.3917,3.4436,3.4937,3.3533,3.3287,3.3484,3.1712,3.0283,2.9116,2.8124,0.0,0.0,0.0,0.0,0.0,0.0,0.0,0.0,0.0,0.0,0.0,0.0,0.0,0.0,0.0,0.0,0.0,0.0,0.0,0.0,0.0,0.0,0.0,0.0,4.2014,4.4466,4.657,4.6411,4.6661,4.8218,4.8947,4.9078,4.8457,4.8397,4.8397,4.8397,4.8397,4.8397,4.8397,0.0,0.0,0.0,0.0,4.7309,4.7309,4.7309,4.7309,4.7298,4.6691,4.6732,4.7258,4.6075,4.5819,4.6275,4.5675,4.5374,4.5314,4.5314,4.5314,4.5283,4.502,4.5406,4.6135,4.6062,4.5623,4.5202,0.0,0.0,0.0,0.0,0.0,0.0,0.0,0.0,0.0,1.7675,1.9369,2.0833,2.1719,2.3339,2.4656,2.5376,2.3559,2.2631,0.0,0.0,2.3508,2.6239,2.7659,2.8462,2.8638,2.9968,3.0357,2.9729,2.9674,2.9942,3.0527,3.0476,3.0683,3.112,3.1652,3.1903,3.1953,3.2993,3.359,3.3976,3.5283,3.6014,3.6314,3.6027,3.5568,3.5062,3.4673,3.4031,3.3156,3.191,3.128,3.0725,2.8769,0.0,0.0,0.0,0.0,0.0,0.0,0.0,0.0,0.0,0.0,0.0,0.0,0.0,0.0,0.0,0.0,0.0,0.0,0.0,0.0,4.2081,4.4767,4.7388,4.989,5.0619,5.0433,4.9247,4.9228,4.9258,4.9127,4.9108,4.9108,4.9108,4.9108,4.9108,4.9108,4.8577,4.8248,4.8098,4.7578,4.7309,4.7309,4.7309,4.7309,4.7309,0.0,0.0,4.7298,4.7041,4.6691,4.6291,4.6156,4.5805,4.5295,4.5295,4.5295,4.5332,4.5455,4.5631,4.5747,4.5235,4.4969,4.5008,0.0,0.0,0.0,0.0,0.0,0.0,0.0,0.0,0.0,0.0,1.9091,2.024,2.0965,2.182,2.2546,2.3054,2.2458,0.0,0.0,2.4201,2.5546,2.7554,2.8812,2.9478,2.9506,3.0164,3.0401,3.0206,3.0206,3.0472,3.1009,3.1009,3.1286,3.1838,3.2401,3.2792,3.3108,3.3936,3.4463,3.4773,3.5575,3.6493,3.7394,3.732,3.7234,3.7071,3.6731,3.6326,3.5707,3.4061,3.3419,3.2934,3.0603,2.9283,2.8475,0.0,0.0,0.0,0.0,0.0,0.0,0.0,0.0,0.0,0.0,0.0,0.0,0.0,0.0,3.7677,3.8716,0.0,4.3573,4.5925,4.8237,5.0331,5.1977,5.2498,5.2348,5.1372,5.1253,5.0983,5.0313,5.0253,5.0253,5.0253,5.0253,5.0253,5.0253,4.9942,4.9449,4.883,4.8465,4.8284,4.8309,4.8309,4.8306,4.8289,4.8301,4.8311,4.8281,4.7959,4.7619,4.7268,4.6948,4.6599,4.6291,4.6291,4.6291,4.6275,4.6087,4.5788,4.5462,4.516,4.5059,4.513,0.0,0.0,0.0,0.0,0.0,0.0,0.0,0.0,0.0,0.0,0.0,1.9522,2.0216,2.0421,2.054,0.0,0.0,0.0,0.0,2.6036,2.7779,2.8699,2.9828,3.0331,3.011,3.0115,3.0306,3.0748,3.0864,3.1185,3.1723,3.1848,3.2164,3.2706,3.3294,3.3807,3.4237,3.479,3.5292,3.567,3.567,3.6523,3.7767,3.7643,3.8086,3.8641,3.788,3.7372,3.6827,3.5147,3.4562,3.4136,3.1966,3.1378,3.1168,2.9323,2.8857,0.0,0.0,0.0,0.0,0.0,0.0,0.0,0.0,3.4902,3.6334,3.7541,3.9472,4.1444,4.3048,4.5026,4.7084,4.91,5.0715,5.2002,5.2847,5.281,5.2864,5.3335,5.3288,5.2767,5.1696,5.1576,5.1546,5.1397,5.151,5.1546,5.1408,5.1271,5.0748,4.9708,4.9436,4.9348,4.9467,4.9362,4.9355,4.9487,4.9362,4.9287,4.9276,4.875,4.843,4.827,4.7722,4.7412,4.7309,4.7453,4.7412,4.7258,4.6702,4.6175,4.5657,4.5405,4.5304,4.5354,0.0,0.0,0.0,0.0,0.0,0.0,0.0,0.0,0.0,0.0,0.0,0.0,0.0,0.0,0.0,0.0,0.0,0.0,2.5776,2.743,2.9036,3.0623,3.1053,3.1246,3.122,3.122,3.1246,3.1321,3.1777,3.234,3.2914,3.3406,3.3922,3.4452,3.4993,3.5257,3.5369,3.5968,3.623,3.6318,3.6318,3.6425,3.6592,3.657,3.752,3.8724,3.7648,3.6672,3.5791,3.5152,3.4739,3.4436,3.4136,3.3268,3.2087,3.0532,0.0,2.842,2.809,2.9068,3.0539,3.1939,3.2777,3.4255,0.0,3.8405,3.8949,4.205,4.2853,4.3738,4.6272,4.6825,4.7577,4.9589,4.9949,5.0481,5.1923,5.1458,5.1746,5.3833,5.3563,5.3139,5.2977,5.2977,5.2737,5.2127,5.263,5.2719,5.211,5.1526,5.1128,5.1001,4.9872,4.9558,5.0088,4.9573,4.9573,5.0095,4.9571,4.9287,4.9315,4.9218,4.8852,4.8311,4.8218,4.7856,4.735,4.7929,4.7826,4.7298,4.7206,4.713,4.6942,4.5733,4.5304,4.5417,0.0,0.0,0.0,0.0,0.0,0.0,0.0,0.0,0.0,0.0,0.0,0.0,0.0,0.0,0.0,0.0,0.0,0.0,2.5763,2.7784,2.9748,3.1626,3.1817,3.1863,3.1863,3.22,3.2386,3.2386,3.2918,3.3495,3.4048,3.4262,3.4653,3.5168,3.5382,3.5871,3.6508,3.6758,3.706,3.7324,3.7324,3.7148,3.6833,3.6519,3.6234,3.5919,3.542,3.5172,0.0,0.0,3.391,3.4442,3.4488,3.4136,3.3388,3.2,3.1201,0.0,3.1174,3.1663,3.2555,3.4342,3.5561,3.7067,3.9997,4.1257,4.2335,4.407,4.5592,4.6917,4.7877,4.8327,4.8949,0.0,5.0294,5.0504,5.1157,5.0652,5.0356,5.0726,5.1183,5.1756,5.2545,5.2977,5.3073,5.281,5.3404,5.3643,5.3382,5.311,5.2761,5.2396,5.1858,5.1704,5.1947,5.1703,5.1715,5.1959,5.1277,5.0993,5.0959,5.019,4.9477,4.8882,4.8882,4.8727,4.8479,4.8758,4.8726,4.8425,4.8022,4.7877,4.7763,4.6805,4.6445,4.6445,0.0,0.0,0.0,0.0,0.0,0.0,0.0,0.0,0.0,0.0,0.0,0.0,0.0,0.0,0.0,0.0,0.0,0.0,0.0,2.7804,3.0065,3.1894,3.243,3.2656,3.2656,3.3244,3.3531,3.3531,3.4073,3.4527,3.4917,3.5091,3.5467,3.5983,3.5983,3.6521,3.7424,3.7424,3.7638,3.799,3.7839,3.7449,3.6884,3.6029,3.4673,3.3176,3.3002,3.3056,0.0,0.0,3.2173,3.3127,3.376,3.3949,3.3761,3.2781,3.2355,3.2361,3.3034,3.3629,3.4576,3.6764,3.8223,3.9728,4.1922,4.3464,4.4719,4.564,4.7348,4.8714,4.8854,4.8995,4.9294,4.9909,4.9722,4.9623,5.0031,4.9141,4.8355,4.8068,4.8483,4.9277,5.0502,5.221,5.3115,5.2936,5.3878,5.4299,5.3948,5.4098,5.3965,5.3471,5.3302,5.3302,5.3465,5.33,5.33,5.3465,5.2602,5.2187,5.2175,5.1004,5.0159,4.9554,4.9741,4.961,4.931,4.9468,4.9449,4.924,4.8781,4.858,4.8477,4.7815,4.7464,4.7217,0.0,0.0,0.0,0.0,0.0,0.0,0.0,0.0,0.0,0.0,0.0,0.0,0.0,0.0,0.0,0.0,0.0,0.0,0.0,2.7664,2.9986,3.1362,3.2968,3.3847,3.3847,3.4388,3.4653,3.4653,3.5193,3.5458,3.5483,3.6068,3.6632,3.7148,3.7148,3.7449,3.799,3.799,3.799,3.7952,3.7424,3.6909,3.6242,3.4611,3.2953,3.1406,3.0889,0.0,0.0,0.0,2.9297,2.9886,3.1909,3.2572,0.0,3.2512,3.2026,3.1667,3.2362,3.3933,3.6058,3.867,4.0178,4.1725,4.4382,4.4877,4.5335,4.7315,4.7767,4.8207,4.9434,4.8516,4.7774,4.8466,4.7379,4.6923,4.8358,4.6365,4.5403,4.7121,4.6115,4.5639,0.0,5.0614,5.2917,5.2288,5.4054,5.4593,5.3306,5.3853,5.4179,5.4187,5.3524,5.3512,5.4145,5.3516,5.3516,5.4157,5.284,5.2187,5.2187,5.1473,5.0796,5.0217,5.0855,5.0447,4.9333,4.994,4.9827,4.9298,4.9286,4.9279,4.9183,4.8518,4.7866,4.7309,0.0,0.0,0.0,0.0,0.0,0.0,0.0,0.0,0.0,0.0,0.0,0.0,0.0,0.0,0.0,0.0,0.0,0.0,0.0,2.6051,2.8324,3.0251,3.2616,3.3485,3.2586,3.3843,3.3863,3.2577,3.3113,3.3382,3.3406,3.4546,3.5369,3.5916,3.681,3.7726,3.8592,3.8592,3.8806,3.9019,3.7726,3.6872,3.6132,3.3696,3.1286,2.9108,0.0,0.0,0.0,2.7356,2.7921,2.9008,3.0661,3.1495,3.2026,3.2908,3.3626,3.4486,3.5998,3.7793,3.9739,4.1962,4.3302,4.4752,4.7353,4.8231,4.8573,4.8691,4.7926,4.6922,4.5967,4.4803,4.4302,4.5235,4.5262,4.5498,4.6371,4.5392,4.4159,4.293,4.341,0.0,0.0,0.0,0.0,5.1529,5.3388,5.4329,5.3883,5.4495,5.4873,5.4873,5.5081,5.5081,5.4873,5.5081,5.5081,5.4844,5.3958,5.3073,5.2187,5.1972,5.1512,5.0886,5.109,5.0962,5.059,5.0773,5.0749,5.0507,5.0081,4.9907,4.9807,4.9186,4.8544,4.7907,0.0,0.0,0.0,0.0,0.0,0.0,0.0,0.0,0.0,0.0,0.0,0.0,0.0,0.0,0.0,0.0,0.0,0.0,0.0,0.0,2.5703,2.7921,2.9845,3.0548,2.9867,3.0851,3.0913,2.9973,3.0447,3.0852,3.12,3.2652,3.372,3.4497,3.5736,3.6947,3.8014,3.8014,3.7864,3.7487,3.6018,3.4726,3.3434,3.0824,2.8646,0.0,0.0,0.0,0.0,2.6113,2.681,2.8016,2.9651,3.112,3.2482,3.3806,3.5116,3.6696,3.9296,4.1016,4.2592,4.5047,4.6234,4.727,4.893,4.9424,4.9144,4.7817,4.6326,4.4623,4.2685,4.144,4.1116,4.2403,4.2927,4.3625,4.4995,4.4177,4.2922,4.1555,4.2267,4.2491,0.0,0.0,0.0,5.0126,5.2673,5.4097,5.3866,5.4702,5.5192,5.5192,5.5626,5.5628,5.5212,5.5615,5.5498,5.4831,5.44,5.3621,5.2569,5.2559,5.2199,5.1569,5.156,5.1419,5.1206,5.1206,5.1206,5.1164,5.0719,5.056,5.0453,4.9616,4.9015,4.8555,0.0,0.0,0.0,0.0,0.0,0.0,0.0,0.0,0.0,0.0,0.0,0.0,0.0,0.0,0.0,0.0,0.0,0.0,0.0,0.0,0.0,2.449,2.5088,2.5568,2.6012,2.5878,2.6219,2.7004,2.738,2.7983,2.883,3.0384,3.1711,3.2794,3.3903,3.5004,3.6045,3.6055,3.515,3.3596,3.2405,3.0688,2.858,2.6399,0.0,0.0,0.0,0.0,0.0,2.5533,2.6077,2.7095,2.9105,3.1467,3.384,3.5199,3.646,3.8278,4.2053,4.3511,4.4689,4.7755,4.877,4.9046,4.918,4.8482,4.7209,4.4997,4.3165,4.1417,3.9713,3.8544,3.8422,4.01,4.0528,4.1592,4.4288,4.2883,4.1943,0.0,0.0,0.0,0.0,0.0,0.0,4.8364,0.0,5.3931,5.339,5.4558,5.5234,5.5234,5.5234,5.5243,5.5217,5.5204,5.4873,5.4263,5.4246,5.3892,5.3241,5.3229,5.2839,5.2187,5.2175,5.1782,5.1206,5.1206,5.1206,5.1206,5.1206,5.1206,5.1057,4.984,4.938,4.9254,0.0,0.0,0.0,0.0,0.0,0.0,0.0,0.0,0.0,0.0,0.0,0.0,0.0,0.0,0.0,0.0,0.0,0.0,0.0,0.0,0.0,0.0,0.0,0.0,0.0,0.0,0.0,0.0,0.0,2.4496,2.4737,2.6589,2.7602,2.7975,2.9628,3.0789,3.1486,3.1472,3.1246,3.0708,0.0,2.8206,2.7532,0.0,0.0,0.0,0.0,0.0,0.0,2.5933,2.8031,3.0341,3.1008,3.2655,3.4651,3.6412,3.875,4.1494,4.4722,4.6597,4.8047,4.9749,4.9825,4.946,4.9507,4.8036,4.6184,4.4371,4.1062,3.7842,3.5768,3.5775,3.669,3.8359,4.0733,4.3187,4.5533,4.5382,4.4679,4.3714,4.424,4.4198,4.2969,4.5363,0.0,0.0,5.2422,5.4573,5.5403,5.5764,5.5945,5.5945,5.5945,5.5717,5.5189,5.5202,5.5124,5.4941,5.4944,5.4588,5.3931,5.3436,5.2826,5.2175,5.1675,5.1366,5.1206,5.1206,5.1206,5.1206,5.1206,5.1206,5.1164,5.0856,5.0402,4.9957,0.0,0.0,0.0,0.0,0.0,0.0,0.0,0.0,0.0,0.0,0.0,0.0,0.0,0.0,0.0,0.0,0.0,0.0,0.0,0.0,0.0,0.0,0.0,0.0,0.0,0.0,0.0,0.0,0.0,0.0,0.0,2.3251,2.4202,2.4498,2.6059,2.7059,2.7609,2.7616,0.0,0.0,0.0,0.0,0.0,0.0,0.0,0.0,0.0,0.0,0.0,2.9295,3.1464,3.335,3.3988,3.5689,3.7872,3.9919,4.189,4.4128,4.7426,4.8973,4.9842,5.0763,5.0479,4.9565,4.8134,4.6436,4.418,4.0548,3.7456,3.4653,3.215,3.2792,3.4329,3.6234,3.9183,4.2222,4.5131,4.5357,4.5206,4.5231,4.5623,4.5472,4.4543,4.7114,4.92,0.0,5.2322,5.4399,5.611,5.6458,5.6462,5.6227,5.6196,5.5889,5.5222,5.5192,5.5192,5.5192,5.5192,5.5007,5.4613,5.3642,5.2991,5.2598,0.0,5.147,5.1217,5.1526,5.1473,5.1206,5.1206,5.1206,5.1164,5.0868,5.0513,5.0166,0.0,0.0,0.0,0.0,0.0,0.0,0.0,0.0,0.0,0.0,0.0,0.0,0.0,0.0,0.0,0.0,0.0,0.0,0.0,0.0,0.0,0.0,0.0,0.0,0.0,0.0,0.0,0.0,0.0,0.0,0.0,0.0,0.0,0.0,0.0,0.0,0.0,0.0,0.0,0.0,0.0,0.0,0.0,0.0,0.0,0.0,0.0,0.0,0.0,3.359,3.5435,3.6317,3.7491,3.9619,4.206,4.413,4.5165,4.6421,4.9837,5.0698,5.0754,5.128,5.0787,4.9323,4.6125,4.4119,4.1294,3.5545,3.3332,3.1637,2.9055,3.0066,3.2048,3.4418,3.7123,4.0313,4.4378,4.4478,4.4945,4.7074,4.6988,4.6728,4.6652,4.9426,5.1115,5.0865,5.2212,5.4017,5.6146,5.6872,5.6926,5.6214,5.6098,5.5791,5.5222,5.5192,5.5192,5.5192,5.5192,5.5192,5.5166,5.3904,5.3337,5.3296,5.2521,0.0,5.151,5.1884,5.1782,5.1324,5.1217,5.1206,5.1122,5.0548,5.0335,5.0253,0.0,0.0,0.0,0.0,0.0,0.0,0.0,0.0,0.0,0.0,0.0,0.0,0.0,0.0,0.0,0.0,0.0,0.0,0.0,0.0,0.0,0.0,0.0,0.0,0.0,0.0,0.0,0.0,0.0,0.0,0.0,0.0,0.0,0.0,0.0,0.0,0.0,0.0,0.0,0.0,0.0,0.0,0.0,0.0,0.0,0.0,0.0,0.0,0.0,0.0,3.7921,3.9473,4.0897,4.2871,4.4835,4.5745,4.7014,4.8629,5.0667,5.1478,5.1816,5.1934,5.0517,4.8325,4.5407,4.1438,3.7255,3.3413,3.0679,2.8543,2.7164,2.9019,3.1751,3.4856,3.7362,4.0715,4.5919,4.621,4.6527,4.83,4.8812,4.8837,4.84,4.8917,0.0,0.0,5.3508,5.4332,5.6512,5.7462,5.7398,5.6244,5.5651,5.5332,5.5192,5.5192,5.5192,5.5192,5.5192,5.5192,5.5179,5.4403,5.4038,5.395,5.2733,0.0,5.2779,5.1773,5.1621,5.1972,5.1419,5.1206,5.1176,5.1069,5.1016,5.1016,0.0,0.0,0.0,0.0,0.0,0.0,0.0,0.0,0.0,0.0,1.9166,1.8932,0.0,0.0,0.0,0.0,0.0,0.0,0.0,0.0,0.0,0.0,0.0,0.0,0.0,0.0,0.0,0.0,0.0,0.0,0.0,0.0,0.0,0.0,0.0,0.0,0.0,0.0,0.0,0.0,0.0,0.0,0.0,0.0,0.0,0.0,0.0,0.0,0.0,0.0,3.6854,4.003,4.3828,4.5914,4.7166,4.8128,4.8812,4.9647,5.1607,5.2319,5.2377,5.1833,4.9563,4.6466,4.2534,3.8241,3.3875,2.9653,2.7733,2.6556,2.5761,2.7862,3.0512,3.2972,3.5253,3.8542,4.3815,4.4583,4.5638,4.8466,4.928,4.9506,4.9229,4.9963,5.0857,5.1834,5.3188,5.4993,5.7306,5.7226,5.6812,5.6235,5.5559,5.5192,5.5192,5.5192,5.5192,5.5192,5.5192,5.5192,5.5179,5.4513,5.4187,5.4146,5.3143,0.0,5.2624,5.1986,5.1714,5.1633,5.1324,5.1206,5.1206,5.1206,5.1206,5.1206,0.0,0.0,0.0,0.0,0.0,0.0,0.0,1.9166,1.9446,2.0376,2.0349,2.0051,1.9458,1.9252,0.0,0.0,0.0,0.0,0.0,0.0,0.0,0.0,0.0,0.0,0.0,0.0,0.0,1.8092,0.0,0.0,0.0,0.0,0.0,0.0,0.0,0.0,0.0,0.0,0.0,0.0,0.0,0.0,0.0,0.0,0.0,0.0,0.0,0.0,2.8003,3.1253,3.4557,3.8274,4.3885,4.6716,4.8155,4.922,4.9624,5.0201,5.22,5.2793,5.2628,5.1422,4.8507,4.4669,3.981,3.5426,3.1105,2.6549,2.5418,2.5134,2.4724,2.6573,2.8856,3.0909,3.2781,3.5881,4.1255,4.2587,4.4382,4.8149,4.9204,4.959,4.959,5.0743,0.0,5.0165,5.2639,5.5021,5.7002,5.6335,5.5837,5.5725,5.539,5.5192,5.5192,5.5192,5.5192,5.5192,5.5192,5.5192,5.5179,5.4666,5.4348,5.4154,5.3491,0.0,0.0,5.2082,5.1769,5.1408,5.1271,5.1206,5.1206,5.1206,5.1206,5.1206,0.0,0.0,0.0,0.0,0.0,0.0,0.0,1.9492,2.0413,2.1911,2.1519,2.1055,2.099,2.0328,0.0,0.0,0.0,0.0,0.0,0.0,0.0,0.0,0.0,0.0,0.0,0.0,0.0,1.8092,1.8043,0.0,0.0,0.0,0.0,0.0,0.0,1.7992,0.0,0.0,0.0,0.0,0.0,0.0,0.0,0.0,0.0,0.0,0.0,2.4811,2.5681,3.0572,3.2325,3.3235,3.7802,4.2579,4.6516,4.6632,4.8419,5.0587,5.1852,5.2538,5.2529,5.0905,4.7605,4.3561,3.9094,3.3947,2.9261,2.6214,2.4841,2.413,2.4079,2.5092,2.6942,3.0146,0.0,3.3972,4.0474,4.2308,4.4231,4.7581,4.8937,4.959,4.959,4.9735,5.0372,5.1678,5.2854,5.3604,5.3897,5.4569,5.4683,5.4142,5.4809,5.5192,5.5192,5.5192,5.5192,5.5192,5.5192,5.5192,5.5192,5.5136,5.4776,5.4154,5.3491,0.0,0.0,5.1796,5.1617,5.2038,5.1431,5.1206,5.1206,5.1206,5.1206,5.1206,0.0,0.0,0.0,0.0,0.0,0.0,0.0,1.9923,2.0549,2.211,2.205,2.1691,2.1261,2.0913,2.0531,0.0,0.0,0.0,0.0,0.0,0.0,0.0,0.0,0.0,0.0,0.0,0.0,1.9052,1.875,0.0,0.0,0.0,0.0,0.0,0.0,1.8292,1.859,0.0,0.0,0.0,0.0,0.0,0.0,0.0,0.0,0.0,0.0,0.0,2.4743,2.681,2.8441,2.9759,3.0471,3.4226,3.9208,4.3539,4.605,4.8052,5.0872,5.225,5.2327,5.0003,4.6255,4.1996,3.7563,3.2275,2.7679,2.5552,2.4239,2.3562,2.3921,2.4363,2.5511,0.0,0.0,0.0,3.6045,3.75,3.9848,4.4844,4.6426,4.7782,4.9439,4.959,4.9854,5.0515,5.0903,5.099,5.0686,5.2075,5.3158,5.3817,5.3851,5.4304,5.5179,5.5192,5.5192,5.5192,5.5192,5.5192,5.5192,5.5192,5.5039,5.4729,5.3667,0.0,0.0,5.1931,5.161,5.2133,5.1473,5.1206,5.1206,5.1206,5.1206,5.1206,0.0,0.0,0.0,0.0,0.0,0.0,2.0086,2.0313,2.0896,2.2425,2.2624,2.2357,2.1624,2.1329,2.0879,2.0072,0.0,0.0,0.0,0.0,0.0,0.0,0.0,0.0,0.0,0.0,0.0,0.0,1.9435,1.9258,0.0,0.0,1.8563,1.8564,0.0,0.0,0.0,0.0,0.0,0.0,0.0,0.0,0.0,0.0,0.0,0.0,0.0,0.0,0.0,0.0,0.0,2.6632,2.5704,0.0,0.0,3.9044,4.2735,4.5301,4.8853,5.0845,5.1331,4.8887,4.4959,4.0552,3.6118,3.1045,2.6775,2.4942,2.3772,2.3221,2.367,2.3871,0.0,0.0,0.0,2.8542,3.3029,3.4539,3.7049,4.2007,4.3589,4.5422,4.8335,4.9515,4.9967,4.9631,4.9741,4.959,4.9069,5.0142,5.158,5.3352,5.3498,5.4171,5.5478,5.5491,5.5401,5.5192,5.5192,5.5192,5.5179,5.4984,5.4818,5.4534,5.3397,0.0,0.0,5.1786,5.1488,5.1877,5.1378,5.1206,5.1206,5.1206,5.1206,5.1206,0.0,0.0,0.0,0.0,0.0,0.0,0.0,2.0673,2.1732,2.3214,2.3383,2.3105,2.2384,2.1657,2.0879,2.0072,0.0,0.0,0.0,0.0,0.0,0.0,0.0,0.0,0.0,0.0,0.0,0.0,0.0,0.0,1.9694,1.969,1.9685,1.969,0.0,0.0,0.0,0.0,0.0,0.0,0.0,0.0,0.0,0.0,0.0,0.0,0.0,0.0,0.0,0.0,0.0,0.0,0.0,0.0,0.0,0.0,3.8329,4.2852,4.5598,4.7958,4.9238,4.7525,4.3786,3.9358,3.4926,3.0492,2.6674,2.4456,2.3529,2.3088,2.312,2.3587,2.4363,2.5435,0.0,0.0,3.2638,3.5002,3.7224,3.9471,4.0688,4.2657,4.601,4.9355,5.0812,4.9665,5.0092,0.0,4.9615,4.911,4.9954,5.2436,5.399,5.5223,5.6179,5.6192,5.5863,5.5192,5.5192,5.5192,5.5179,5.4513,5.3849,5.3175,0.0,0.0,0.0,5.1203,5.1212,5.1217,5.1206,5.1206,5.1206,5.1206,5.1206,5.1206,0.0,0.0,0.0,0.0,0.0,0.0,0.0,1.9885,2.0731,2.1762,2.1901,2.18,2.1556,2.0405,1.9525,1.928,0.0,0.0,0.0,0.0,0.0,0.0,0.0,0.0,0.0,0.0,0.0,0.0,0.0,0.0,0.0,0.0,0.0,1.9703,1.9703,0.0,0.0,0.0,0.0,0.0,0.0,0.0,0.0,0.0,0.0,0.0,0.0,0.0,0.0,0.0,0.0,0.0,0.0,0.0,0.0,0.0,3.2003,3.7123,3.9898,4.1968,4.2797,4.0387,3.7877,3.5015,3.1315,2.7962,2.5276,2.423,2.3218,2.2676,2.3037,2.3253,2.4122,2.6398,2.7211,0.0,3.1522,3.3847,3.6496,3.9835,4.4227,4.7405,4.846,4.9515,4.9992,4.9631,4.9766,4.9615,4.9079,4.8878,4.9435,5.0875,5.0986,5.2002,5.3981,5.4007,5.4427,5.5192,5.5192,5.4971,5.4513,5.4306,5.3834,0.0,0.0,0.0,0.0,5.2061,5.187,5.1835,5.1378,5.1206,5.1206,5.1206,5.1206,5.1206,0.0,0.0,0.0,0.0,0.0,0.0,0.0,1.9276,1.9848,2.0636,2.074,2.0783,2.0895,1.9789,1.909,1.9201,0.0,0.0,0.0,0.0,0.0,0.0,0.0,0.0,0.0,0.0,0.0,0.0,0.0,0.0,0.0,0.0,0.0,0.0,0.0,0.0,0.0,0.0,0.0,0.0,0.0,0.0,2.1023,0.0,0.0,0.0,0.0,0.0,0.0,0.0,0.0,0.0,0.0,0.0,0.0,0.0,2.6698,3.0698,3.4714,3.7049,3.7852,3.5919,3.4037,3.1838,2.8725,2.6331,2.454,2.357,2.2967,2.2797,2.343,2.3482,2.4107,2.6136,2.6932,2.8115,3.0467,3.3058,3.6133,4.0036,4.5146,4.8284,4.8058,4.938,5.0058,4.9615,4.959,4.938,4.8843,4.8576,4.8627,4.9008,4.9456,5.0848,5.3324,5.3351,5.3978,5.5192,5.5192,5.4861,5.4179,5.3955,5.3453,0.0,0.0,0.0,0.0,5.2268,5.2038,5.1782,5.1366,5.1206,5.1206,5.1206,5.1206,5.1206,0.0,0.0,0.0,0.0,0.0,0.0,0.0,0.0,0.0,0.0,1.9903,2.0009,2.0279,1.9662,1.9303,0.0,0.0,0.0,0.0,0.0,0.0,0.0,0.0,0.0,0.0,0.0,0.0,0.0,2.074,2.108,2.0723,0.0,0.0,0.0,0.0,0.0,0.0,0.0,0.0,0.0,0.0,0.0,0.0,0.0,0.0,0.0,0.0,0.0,0.0,0.0,0.0,0.0,0.0,0.0,0.0,0.0,0.0,0.0,0.0,3.2721,3.3875,3.3345,3.1677,2.9512,2.6946,2.5526,0.0,2.282,2.2871,2.3481,2.4348,2.424,2.4338,2.5247,2.6524,2.7955,2.9704,3.3018,3.6622,4.0362,4.4177,4.6301,4.5673,4.8978,5.0711,4.9631,4.954,4.9305,4.8718,4.8134,4.7591,4.7074,4.9029,5.125,5.3647,5.3785,5.4302,5.5192,5.5144,5.4779,5.411,5.3417,5.2742,0.0,0.0,0.0,0.0,5.1912,5.1782,5.1206,5.1206,5.1206,5.1206,5.1206,5.1206,5.1206,0.0,0.0,0.0,0.0,0.0,0.0,0.0,0.0,0.0,0.0,0.0,1.9171,1.9243,1.8768,0.0,0.0,0.0,0.0,0.0,0.0,0.0,0.0,0.0,0.0,0.0,0.0,0.0,1.9703,2.0459,2.0802,2.0698,2.14,0.0,0.0,0.0,0.0,0.0,0.0,0.0,0.0,0.0,0.0,0.0,0.0,0.0,0.0,2.1359,2.1463,0.0,0.0,0.0,0.0,0.0,0.0,0.0,0.0,2.1457,2.2272,2.4122,0.0,2.7,2.6465,2.6247,2.5937,0.0,2.4622,2.4486,2.4639,2.4407,2.4659,2.63,2.5298,2.5149,2.7992,2.814,2.8765,3.1275,3.6721,4.1242,4.3374,4.6728,4.8284,4.6863,4.8711,4.9732,4.9028,4.8978,4.8551,4.7566,4.7365,4.7023,4.6512,4.7566,4.9217,5.1427,5.2638,5.3875,5.5192,5.4685,5.4077,5.3412,5.2737,5.208,0.0,0.0,0.0,5.1243,5.1929,5.1782,5.1206,5.1206,5.1206,5.1206,5.1206,5.1206,5.1206,0.0,0.0,0.0,0.0,0.0,0.0,0.0,0.0,0.0,0.0,0.0,0.0,0.0,0.0,0.0,0.0,0.0,0.0,0.0,0.0,0.0,0.0,0.0,0.0,0.0,0.0,0.0,0.0,0.0,2.0872,0.0,0.0,0.0,0.0,0.0,0.0,0.0,0.0,0.0,0.0,2.2017,0.0,0.0,0.0,0.0,0.0,2.1349,2.1253,0.0,2.0572,2.0582,2.0743,0.0,0.0,0.0,0.0,2.1118,2.1589,2.1854,2.3168,2.4415,2.4373,2.4827,2.5187,2.476,2.4732,2.4759,2.4612,2.4755,2.5334,2.6666,2.6246,2.6371,2.8462,2.9223,3.0778,3.4354,3.8642,4.2423,4.5056,4.7189,4.8394,0.0,4.9063,4.938,4.8843,4.8551,4.8008,4.7149,4.6873,4.6486,4.5949,4.6999,4.843,5.0216,5.147,5.2826,5.4264,5.3914,5.3405,5.2738,5.2369,5.1824,0.0,0.0,0.0,5.1244,5.1933,5.1782,5.1206,5.1206,5.1206,5.1206,5.1206,5.1206,5.1206,0.0,0.0,0.0,0.0,0.0,0.0,0.0,0.0,0.0,0.0,0.0,0.0,0.0,0.0,0.0,0.0,0.0,0.0,0.0,0.0,0.0,0.0,0.0,0.0,0.0,0.0,0.0,0.0,0.0,0.0,0.0,0.0,0.0,0.0,0.0,0.0,0.0,0.0,0.0,0.0,2.2219,0.0,0.0,0.0,0.0,0.0,0.0,0.0,0.0,1.981,2.0116,2.0775,2.0597,0.0,0.0,0.0,0.0,0.0,2.1833,2.3032,2.4297,2.4482,2.5081,2.5528,2.5225,2.5274,2.5169,2.4386,2.5097,2.6131,2.6899,2.7314,2.7775,2.8486,3.0503,3.3571,3.8113,4.0224,4.2521,4.5884,4.7014,0.0,4.9113,4.938,4.9254,4.8702,4.8109,4.7516,4.6873,4.6436,4.5924,4.5372,4.6705,4.7981,4.9127,5.0379,5.1747,5.3198,5.3097,5.2768,5.2188,5.2098,5.1728,5.1217,0.0,0.0,5.1229,5.1824,5.1717,5.1206,5.1206,5.1206,5.1206,5.1206,5.1206,5.1206,0.0,0.0,0.0,0.0,0.0,0.0,0.0,0.0,0.0,0.0,0.0,0.0,0.0,0.0,0.0,0.0,0.0,0.0,0.0,0.0,0.0,0.0,0.0,0.0,0.0,0.0,0.0,0.0,0.0,0.0,2.2558,2.3766,2.3782,0.0,0.0,0.0,0.0,0.0,0.0,0.0,2.1857,0.0,0.0,0.0,0.0,0.0,0.0,0.0,0.0,1.8794,1.9479,2.0617,1.966,0.0,0.0,0.0,0.0,0.0,2.3262,2.4464,2.5025,2.3697,2.383,2.4469,2.52,2.5376,2.5685,2.6784,2.757,2.839,2.9383,2.8993,2.919,3.1089,3.3761,3.714,4.1621,4.3678,4.5121,4.6175,4.8033,4.8746,4.76,4.836,4.8677,4.8083,4.7541,4.6788,4.5799,4.5688,4.5347,4.4754,4.5677,4.6293,4.6487,4.9528,5.1795,5.3198,5.2618,5.23,5.2186,5.1605,5.1312,5.1217,0.0,5.1312,5.1217,5.1312,5.1282,5.1206,5.1206,5.1206,5.1206,5.1206,5.1206,5.1206,0.0,0.0,0.0,0.0,0.0,0.0,0.0,0.0,0.0,0.0,0.0,0.0,0.0,0.0,0.0,0.0,0.0,0.0,0.0,0.0,0.0,0.0,0.0,0.0,0.0,0.0,0.0,0.0,0.0,2.3052,2.3724,2.3629,2.338,2.2942,0.0,0.0,0.0,0.0,0.0,0.0,0.0,0.0,0.0,0.0,0.0,0.0,0.0,0.0,0.0,0.0,1.9652,2.0391,2.0493,0.0,0.0,0.0,0.0,0.0,2.3466,2.4203,2.4624,2.4131,2.5443,2.684,2.6987,2.7123,2.7257,2.7577,2.8189,2.8875,2.9644,3.0497,3.2209,3.5521,3.7261,3.9303,4.254,4.3661,4.4696,0.0,0.0,4.7431,4.7516,4.8008,4.7958,4.7089,4.6813,4.6185,4.5056,4.5006,4.4754,4.4177,4.4277,4.4678,4.5416,4.6724,4.8608,5.1048,5.1446,5.1666,5.1636,5.1337,5.1206,5.1206,0.0,5.1206,5.1206,5.1206,5.1206,5.1206,5.1206,5.1206,5.1206,5.1206,5.1206,5.1206,0.0,0.0,0.0,0.0,0.0,0.0,0.0,0.0,0.0,0.0,0.0,0.0,0.0,0.0,0.0,0.0,0.0,0.0,0.0,0.0,0.0,0.0,0.0,0.0,0.0,0.0,2.2511,2.3083,2.328,2.3884,2.4814,2.3457,2.2913,0.0,0.0,0.0,0.0,0.0,0.0,0.0,0.0,0.0,0.0,0.0,0.0,0.0,0.0,0.0,0.0,0.0,0.0,0.0,0.0,0.0,0.0,2.3889,2.379,2.3495,2.3887,2.4074,2.433,2.4842,2.6509,2.8092,2.8499,2.8612,2.8633,2.8703,2.9332,2.9933,2.9993,3.2,3.491,3.8737,4.0085,4.1389,4.349,4.3989,4.4793,4.6481,4.6301,4.6567,4.7767,4.7666,4.7164,4.6361,4.606,4.5457,4.4478,4.4414,4.4177,4.3639,4.3076,4.3327,4.4327,4.4124,4.5765,4.921,5.0239,5.0905,5.1176,5.1026,5.0966,5.0966,5.0828,5.0828,5.0966,5.096,5.105,5.1206,5.1206,5.1206,5.1206,5.1206,5.1111,5.0962,0.0,0.0,0.0,0.0,0.0,0.0,0.0,0.0,0.0,0.0,0.0,0.0,0.0,0.0,0.0,0.0,0.0,0.0,0.0,0.0,0.0,0.0,0.0,0.0,0.0,2.2799,2.3037,2.3277,2.4697,2.5429,2.5495,2.3966,2.3172,2.2951,0.0,0.0,0.0,0.0,0.0,0.0,0.0,0.0,0.0,0.0,0.0,0.0,0.0,0.0,0.0,0.0,0.0,0.0,0.0,0.0,2.3787,2.5009,2.442,2.3748,2.5296,2.5235,2.4867,2.541,2.4948,2.5208,2.8421,2.876,2.9045,3.1253,3.2616,3.3067,3.1792,3.3616,3.6116,3.8548,4.1526,4.4102,4.5829,0.0,4.761,4.7767,4.7757,4.7767,4.7892,4.6988,4.6386,4.6311,4.5332,4.4478,4.389,4.3865,4.3614,4.3076,4.2551,4.2304,4.24,4.31,4.5394,4.9198,4.9296,4.9981,5.1187,5.0578,5.0267,5.0237,4.9684,4.9733,5.0267,5.0269,5.0629,5.1206,5.1206,5.1206,5.1206,5.1206,5.0814,5.0253,0.0,0.0,0.0,0.0,0.0,0.0,0.0,0.0,0.0,0.0,0.0,0.0,0.0,0.0,0.0,0.0,0.0,0.0,0.0,0.0,0.0,0.0,0.0,2.187,2.2392,2.2912,2.3638,2.4538,2.5672,2.5788,2.4945,2.3819,0.0,0.0,0.0,0.0,0.0,0.0,0.0,0.0,0.0,0.0,0.0,0.0,0.0,0.0,0.0,0.0,0.0,0.0,2.1276,2.2354,0.0,0.0,2.4475,0.0,2.5159,2.4243,2.5305,2.5461,2.5435,2.6013,2.6114,0.0,0.0,3.0486,3.1688,3.291,3.4071,3.4804,3.4663,3.597,3.7905,4.0529,4.284,4.4863,4.6578,4.715,4.7404,4.7405,4.6828,4.6401,4.6401,4.5683,4.5106,4.4754,4.4342,4.3714,4.2838,4.2813,4.2548,4.1968,4.143,4.1304,4.1642,4.1597,4.2943,4.5612,4.7275,4.8764,5.0014,4.9774,4.9655,4.9625,4.9396,4.9426,4.9655,5.0052,5.0357,5.059,5.059,5.0347,5.0028,5.0028,4.9869,4.9644,0.0,0.0,0.0,0.0,0.0,0.0,0.0,0.0,0.0,0.0,0.0,0.0,0.0,0.0,0.0,0.0,0.0,0.0,0.0,0.0,0.0,0.0,0.0,2.1588,2.1983,2.2731,2.3763,2.5063,2.5682,2.5582,2.4824,0.0,0.0,0.0,0.0,0.0,0.0,0.0,0.0,0.0,0.0,2.0665,0.0,0.0,0.0,0.0,0.0,0.0,0.0,0.0,2.1693,0.0,0.0,0.0,0.0,0.0,0.0,2.4543,2.5211,2.5259,2.5234,2.5829,0.0,0.0,3.0366,3.215,3.3807,3.5403,3.5904,3.6219,3.6806,3.7494,3.8855,4.1484,4.3596,4.534,4.6657,4.6984,4.6965,4.6642,4.5949,4.5437,4.5221,4.4679,4.4127,4.3603,4.3402,4.2875,4.197,4.192,4.1731,4.1314,4.0775,4.0688,4.1038,4.0512,4.1118,4.2855,4.4682,4.6675,4.8725,4.891,4.8977,4.8977,4.8768,4.8775,4.9004,4.943,4.9731,4.994,4.992,4.9644,4.9287,4.9287,4.9182,4.8967,0.0,0.0,0.0,0.0,0.0,0.0,0.0,0.0,0.0,0.0,0.0,0.0,0.0,0.0,0.0,0.0,0.0,0.0,0.0,0.0,0.0,0.0,0.0,2.1093,2.1303,2.2198,2.3316,2.4599,2.4599,2.4865,2.5369,2.4518,0.0,0.0,0.0,0.0,0.0,0.0,0.0,0.0,2.1312,2.1056,2.0721,0.0,0.0,0.0,0.0,0.0,0.0,0.0,2.254,2.3844,0.0,0.0,0.0,0.0,2.6106,2.4577,2.5198,2.4735,2.4163,2.4691,2.689,2.9659,3.2501,3.3556,3.5027,3.8931,3.84,3.7406,3.7935,3.8049,0.0,4.0965,4.3655,4.5674,4.6215,4.6763,4.6672,4.5638,4.5487,4.5246,4.464,4.4102,4.3564,4.3025,4.2487,4.192,4.1314,4.1289,4.1289,4.1289,4.0775,4.0487,4.0487,3.9973,4.0326,4.1566,4.1603,4.3655,4.7385,4.801,4.8278,4.8248,4.7578,4.7673,4.8287,4.829,4.8678,4.928,4.9284,4.9287,4.9276,4.9276,4.8871,4.8281,0.0,0.0,0.0,0.0,0.0,0.0,0.0,0.0,0.0,0.0,0.0,0.0,0.0,0.0,0.0,0.0,0.0,0.0,0.0,0.0,0.0,0.0,0.0,0.0,0.0,0.0,2.3071,2.5298,2.4844,2.4629,0.0,0.0,0.0,2.3631,0.0,0.0,0.0,0.0,0.0,0.0,2.1575,2.126,2.0781,0.0,0.0,0.0,0.0,0.0,0.0,0.0,0.0,0.0,0.0,0.0,0.0,2.6655,2.6702,2.6298,2.4976,2.5873,2.7161,2.7124,2.9192,3.2054,3.5264,3.6093,3.7231,4.0732,4.0719,4.0133,4.0278,4.0665,0.0,4.233,4.3833,4.5071,4.5678,4.5868,4.5698,4.4955,4.4521,4.4245,4.4052,4.3207,4.262,4.245,4.1895,4.1316,4.0775,4.0725,4.0549,4.0186,4.0023,3.9948,3.9948,3.9772,3.9878,4.0287,4.2084,4.4017,4.601,4.619,4.6749,4.7578,4.7399,4.7407,4.7616,4.8101,4.841,4.8595,4.8613,4.8322,4.7877,4.7877,4.7763,4.7608,0.0,0.0,0.0,0.0,0.0,0.0,0.0,0.0,0.0,0.0,0.0,0.0,0.0,0.0,0.0,0.0,0.0,0.0,0.0,0.0,0.0,0.0,0.0,0.0,0.0,2.1793,2.3011,0.0,0.0,0.0,0.0,0.0,0.0,2.4631,0.0,2.472,0.0,0.0,2.2761,2.2036,2.2319,2.1875,2.1089,0.0,0.0,0.0,0.0,0.0,0.0,0.0,0.0,0.0,0.0,0.0,0.0,2.6519,2.6589,2.6406,2.5244,2.6297,2.7936,2.8855,3.0999,3.3815,3.739,3.9057,4.0461,4.2705,4.2526,4.1984,4.1981,4.1897,0.0,4.2861,4.3709,4.4476,4.5057,4.5139,4.4911,4.4355,4.3804,4.339,4.3204,4.2349,4.1752,4.1526,4.1187,4.0736,4.0211,4.0186,4.0036,3.971,3.9697,3.9697,3.9697,3.9697,3.9697,3.9723,4.1257,4.2918,4.4662,4.5689,4.6572,4.7309,4.7309,4.7309,4.732,4.7752,4.7907,4.7907,4.7907,4.766,4.7309,4.7309,4.7309,4.7309,0.0,0.0,0.0,0.0,0.0,0.0,0.0,0.0,0.0,0.0,0.0,0.0,0.0,0.0,0.0,0.0,0.0,0.0,0.0,0.0,0.0,0.0,0.0,0.0,0.0,0.0,0.0,0.0,0.0,0.0,0.0,0.0,2.6036,2.6841,0.0,2.6041,0.0,2.473,2.374,2.2654,2.3245,2.2729,2.1583,2.1655,0.0,0.0,0.0,0.0,0.0,0.0,0.0,0.0,2.6399,2.6668,2.6736,2.647,2.6065,2.5693,2.5849,2.6349,2.7477,3.0175,3.2631,3.5381,3.9079,4.1901,4.3863,4.4359,4.3771,4.3117,4.3088,4.2272,4.1923,4.2925,4.3485,4.3957,4.4382,4.4421,4.4186,4.3645,4.3137,4.2652,4.2168,4.1581,4.1013,4.0528,4.0442,4.022,3.9722,3.9697,3.9685,3.9635,3.9635,3.9609,3.9559,3.9559,3.9572,3.9635,3.9725,4.1092,4.3587,4.5891,4.7073,4.7309,4.7309,4.7309,4.7309,4.7309,4.7309,4.7309,4.7309,4.7309,4.7309,4.7309,4.7309,4.7309,0.0,0.0,0.0,0.0,0.0,0.0,0.0,0.0,0.0,0.0,0.0,0.0,0.0,0.0,0.0,0.0,0.0,0.0,0.0,0.0,0.0,0.0,0.0,0.0,0.0,0.0,0.0,0.0,0.0,0.0,0.0,0.0,0.0,2.6531,0.0,2.6254,2.4649,2.3953,2.3474,2.3218,2.3346,2.2934,2.2219,2.2232,2.2219,0.0,0.0,0.0,0.0,0.0,0.0,0.0,2.6548,2.7326,2.7829,2.6119,2.663,2.744,2.6049,2.7499,2.9905,3.2034,3.5541,3.902,4.1166,4.2439,4.3213,4.3305,4.3839,4.4142,4.3692,4.3762,4.3821,4.3668,4.3737,4.3705,4.3389,4.2976,4.2485,4.1905,4.1736,4.1632,4.1495,4.1006,4.0617,4.0506,4.0121,3.9822,3.971,3.9697,3.9509,3.9095,3.907,3.8831,3.8366,3.8366,3.8592,0.0,4.0084,4.1593,4.3527,4.4069,4.54,4.7309,4.7309,4.7309,4.7309,4.7309,4.7309,4.7309,4.7309,4.7309,4.7309,4.7309,4.7309,4.7309,0.0,0.0,0.0,0.0,0.0,0.0,0.0,0.0,0.0,0.0,0.0,0.0,0.0,0.0,0.0,0.0,0.0,0.0,0.0,0.0,0.0,0.0,0.0,0.0,0.0,0.0,0.0,0.0,0.0,0.0,0.0,0.0,0.0,2.691,0.0,2.6523,2.4962,2.4531,2.3959,2.3373,2.3689,2.339,2.2716,2.2447,2.2393,2.2505,2.2851,0.0,0.0,0.0,0.0,0.0,0.0,0.0,2.775,2.5942,2.6329,2.7161,2.6274,2.7986,3.0836,3.4216,3.7589,4.0325,4.1193,4.18,4.2196,4.2187,4.3487,4.4434,4.389,4.3832,4.3674,4.3106,4.2789,4.2507,4.224,4.1947,4.1649,4.1354,4.1081,4.0914,4.0912,4.0434,4.0129,4.0109,3.9872,3.9597,3.9334,3.9308,3.907,3.8479,3.8479,3.8329,3.8002,3.8002,3.8291,3.8906,3.957,4.1159,4.3539,4.4771,4.6054,4.7309,4.7309,4.7309,4.7309,4.7309,4.7309,4.7309,4.7309,4.7309,4.7309,4.7309,4.7309,4.7309,0.0,0.0,0.0,0.0,0.0,0.0,0.0,0.0,0.0,0.0,0.0,0.0,0.0,0.0,0.0,0.0,0.0,0.0,0.0,0.0,0.0,0.0,0.0,0.0,0.0,0.0,0.0,0.0,0.0,0.0,0.0,0.0,0.0,2.7781,0.0,0.0,2.565,2.5398,2.457,2.3474,2.4028,2.3861,2.3203,2.2659,2.2607,2.2932,2.3653,2.4389,2.5206,2.6445,0.0,0.0,0.0,0.0,2.746,2.5879,2.5798,2.6257,2.6321,2.8316,3.1472,3.6043,3.8717,4.0283,4.0475,4.0831,4.1194,4.1274,4.2763,4.3885,4.3442,4.3014,4.2576,4.2125,4.1553,4.1158,4.1166,4.108,4.1024,4.1015,4.0636,4.035,4.0361,3.9952,3.9697,3.9697,3.9697,3.9473,3.8919,3.8894,3.858,3.7889,3.7864,3.7814,3.7713,3.7713,3.8027,3.8592,3.9257,4.0927,4.3598,4.6144,4.7249,4.7119,4.7238,4.7238,4.7149,4.7238,4.7219,4.7151,4.7249,4.7217,4.7144,4.7258,4.7309,4.7309,0.0,0.0,0.0,0.0,0.0,0.0,0.0,0.0,0.0,0.0,0.0,0.0,0.0,0.0,0.0,0.0,0.0,0.0,2.2317,0.0,0.0,2.1612,2.2162,0.0,0.0,0.0,0.0,0.0,0.0,0.0,0.0,0.0,0.0,2.9272,0.0,0.0,0.0,2.5278,2.4491,2.3917,2.4008,2.3979,2.3821,2.3228,0.0,2.5092,2.5768,2.6516,2.7308,2.8056,2.8004,0.0,0.0,0.0,2.807,2.5999,2.5861,2.6273,2.5835,2.912,3.3391,3.6457,3.8154,3.9364,4.0285,4.0552,4.0728,4.1205,4.1551,4.1723,4.1657,4.159,4.1494,4.1426,4.0974,4.0611,4.0619,4.0219,3.9899,3.9914,3.9836,3.981,3.9812,3.9748,3.9697,3.9697,3.9697,3.9474,3.8927,3.8906,3.8416,3.7349,3.7299,3.7085,3.6619,3.6607,3.6896,3.7461,4.0674,4.2653,4.3598,4.6144,4.6969,4.648,4.7059,4.6969,4.648,4.7059,4.6963,4.6477,4.7061,4.6948,4.6496,4.7092,4.7309,4.7309,0.0,0.0,0.0,0.0,0.0,0.0,0.0,0.0,0.0,0.0,0.0,0.0,0.0,0.0,0.0,2.2531,2.2374,2.2317,2.2317,2.2696,2.2826,2.2623,2.3334,2.4078,0.0,0.0,0.0,0.0,0.0,0.0,0.0,2.9602,2.9752,0.0,0.0,0.0,0.0,0.0,2.4658,2.4448,2.4448,2.4272,2.4059,0.0,0.0,0.0,0.0,0.0,2.7662,2.8363,2.8141,2.7681,2.8051,0.0,0.0,0.0,2.6141,2.6531,2.7641,2.9789,3.2516,3.5904,3.7357,3.8237,3.9353,3.9838,4.0131,4.0362,4.0399,4.0582,4.1193,4.1063,4.0853,4.0861,4.0394,4.0052,4.0052,3.9857,3.9697,3.9697,3.9697,3.9697,3.9697,3.9697,3.9697,3.9697,3.9417,3.9005,3.8426,3.8115,3.7589,3.6795,3.6758,3.6644,3.6393,3.6393,3.6669,3.7222,3.987,4.1239,4.1557,4.3387,4.4982,4.633,4.66,4.6371,4.5762,4.6056,4.6241,4.6311,4.6629,4.6805,4.6897,4.7195,4.7309,4.7309,0.0,0.0,0.0,0.0,0.0,0.0,0.0,0.0,0.0,0.0,0.0,0.0,0.0,0.0,0.0,0.0,2.2688,2.2761,2.2835,2.3376,2.3692,2.3692,2.4406,2.5041,2.5601,0.0,0.0,0.0,0.0,0.0,3.0089,3.0287,3.0507,0.0,2.993,0.0,0.0,0.0,0.0,0.0,2.4917,2.4566,0.0,0.0,0.0,0.0,0.0,0.0,0.0,0.0,0.0,2.8214,2.871,2.838,0.0,0.0,0.0,2.6136,2.802,2.9132,3.0593,3.4051,3.5644,3.6713,3.7975,3.8794,3.9277,3.9277,3.9506,3.9902,4.0567,4.0477,4.0311,4.0311,3.9952,3.9697,3.9697,3.9572,3.9484,3.9484,3.9346,3.927,3.9269,3.9256,3.9256,3.927,3.8903,3.8404,3.7824,3.7427,3.694,3.6418,3.6393,3.6393,3.6393,3.6393,3.6669,3.7222,3.8896,3.9773,3.9941,4.1219,4.2938,4.4926,4.5422,4.5401,4.5055,4.5238,4.5501,4.5837,4.617,4.6501,4.683,4.7189,4.7309,4.7309,0.0,0.0,0.0,0.0,0.0,0.0,0.0,0.0,0.0,0.0,0.0,0.0,0.0,2.3404,2.3048,2.2733,2.3393,2.399,2.4365,2.4406,2.4444,2.4444,2.5135,0.0,2.5601,0.0,0.0,0.0,0.0,0.0,3.1369,3.051,3.095,3.2424,3.1235,2.9585,2.7617,0.0,0.0,0.0,0.0,0.0,0.0,0.0,0.0,0.0,0.0,0.0,0.0,0.0,0.0,0.0,0.0,2.9092,2.8416,0.0,0.0,0.0,2.4941,2.6237,2.8019,3.0333,3.2487,3.4511,3.6146,3.7341,3.8097,3.8097,3.8959,3.9569,3.9099,3.9417,3.9748,3.9748,3.971,3.9697,3.9697,3.9272,3.8944,3.8931,3.8454,3.8104,3.8079,3.8078,3.8104,3.809,3.8065,3.7811,3.7274,3.7221,3.694,3.6418,3.6393,3.6393,3.6393,3.6393,3.6669,3.7222,3.8529,3.9412,3.9941,4.1219,4.1529,4.119,4.2971,4.3966,4.4396,4.5025,4.4954,4.4526,4.5802,4.5933,4.5544,4.683,4.7309,4.7309,0.0,0.0,0.0,0.0,0.0,0.0,0.0,0.0,0.0,0.0,0.0,0.0,0.0,2.4501,2.4334,2.4501,2.4382,2.4346,2.4489,2.494,2.5207,2.5207,2.5913,2.6518,2.7012,0.0,0.0,0.0,0.0,2.7869,3.0255,2.9795,2.9842,3.029,3.0068,2.9213,2.7915,2.7115,0.0,0.0,0.0,0.0,0.0,0.0,0.0,0.0,0.0,0.0,0.0,0.0,0.0,0.0,0.0,0.0,0.0,2.7066,2.6129,2.558,2.582,2.606,2.6834,2.9435,3.094,3.223,3.389,3.5686,3.6961,3.6975,3.7854,3.856,3.8353,3.9079,3.9582,3.9226,3.92,3.904,3.8655,3.8442,3.8317,3.8329,3.814,3.8003,3.7991,3.8016,3.8003,3.7999,3.7666,3.7389,3.721,3.6864,3.6597,3.6393,3.6393,3.6393,3.6393,3.6393,3.6494,3.6695,3.7155,3.7467,3.7684,3.814,3.8597,3.9146,4.0603,4.175,4.2604,4.2819,4.3732,4.4975,4.5484,4.5773,4.6042,4.6969,4.7029,4.6719,0.0,0.0,0.0,0.0,0.0,0.0,0.0,0.0,0.0,0.0,0.0,0.0,0.0,0.0,2.5606,2.5864,2.5263,2.5075,2.5583,2.5841,2.6078,2.634,2.6822,2.7205,2.749,0.0,0.0,0.0,0.0,0.0,0.0,2.8682,2.859,2.8891,2.8801,2.8416,0.0,0.0,0.0,2.6726,0.0,0.0,2.7338,0.0,0.0,0.0,0.0,0.0,0.0,0.0,0.0,0.0,0.0,0.0,0.0,0.0,0.0,2.5836,2.5912,2.577,2.6147,2.8393,2.9347,3.0237,3.2118,3.3816,3.5095,3.5487,3.6564,3.7464,3.7453,3.8378,3.9007,3.8651,3.8591,3.8454,3.8051,3.7839,3.774,3.7739,3.7563,3.7475,3.7475,3.7475,3.7448,3.7455,3.7127,0.0,3.6929,3.6587,3.6318,3.6093,3.6093,3.6018,3.5828,3.5828,3.5828,3.5828,3.5828,3.5917,3.6093,3.6093,3.6613,3.7563,3.8394,3.9803,4.1629,4.2019,4.313,4.4636,4.4885,4.5384,4.6042,4.673,4.6809,4.6689,0.0,0.0,0.0,0.0,0.0,0.0,0.0,0.0,0.0,0.0,0.0,0.0,0.0,0.0,0.0,2.6786,2.6125,2.6307,2.7756,2.7165,2.7097,2.7786,2.7853,2.7575,2.7,0.0,0.0,0.0,0.0,0.0,0.0,0.0,2.737,2.8579,2.7678,2.7286,2.7271,0.0,2.7332,2.7334,0.0,2.7383,2.8136,0.0,0.0,0.0,3.13,3.1563,0.0,3.154,0.0,0.0,0.0,0.0,0.0,0.0,0.0,0.0,0.0,0.0,0.0,2.697,2.7637,2.8611,3.0801,3.1707,3.2455,3.3576,3.5122,3.6291,3.6304,3.7153,3.7872,3.7892,3.7939,3.795,3.7941,3.7469,3.714,3.7159,3.6708,3.6368,3.6393,3.6393,3.6393,3.6393,3.6381,3.6381,3.6381,3.6356,3.6081,3.5483,3.5483,3.5244,3.4703,3.4703,3.4703,3.4703,3.4703,3.4968,3.5483,3.5483,3.5819,3.638,3.6428,3.8379,4.1577,4.268,4.32,4.3339,4.4017,4.4675,4.5334,4.6042,4.6689,4.7249,0.0,0.0,0.0,0.0,0.0,0.0,0.0,0.0,0.0,0.0,0.0,0.0,0.0,0.0,0.0,2.8671,2.8331,2.8222,2.8624,2.8464,2.8459,2.8662,2.8662,2.8855,2.9202,0.0,0.0,0.0,0.0,0.0,0.0,0.0,0.0,0.0,2.6705,2.6721,2.6749,2.7151,0.0,2.8847,2.8397,2.9334,0.0,0.0,0.0,0.0,0.0,3.2938,3.2878,0.0,3.2093,3.1801,0.0,0.0,0.0,0.0,0.0,0.0,2.5536,0.0,0.0,0.0,0.0,0.0,2.8206,2.9502,3.0663,3.1372,3.2496,3.3617,3.4433,3.4519,3.4701,3.5485,3.6303,3.6693,3.6238,3.5727,3.569,3.6517,3.6107,3.5919,3.6368,3.6393,3.6393,0.0,3.6007,3.574,3.574,3.5387,3.5092,3.4917,3.4917,3.4853,3.4703,3.4703,3.4703,3.4703,3.4703,3.4778,3.4917,3.5307,3.5595,3.5803,3.7085,3.8175,3.9089,3.942,4.0811,4.28,4.2986,4.3699,4.4725,4.5882,4.6102,4.5992,0.0,0.0,0.0,0.0,0.0,0.0,0.0,0.0,0.0,0.0,0.0,0.0,0.0,0.0,0.0,0.0,2.9197,2.9016,2.9087,2.9016,2.9016,2.9087,2.9324,2.9536,0.0,0.0,0.0,0.0,0.0,0.0,0.0,0.0,0.0,0.0,0.0,0.0,0.0,0.0,0.0,0.0,2.9903,0.0,0.0,3.2969,3.3782,0.0,0.0,0.0,3.46,3.3634,3.3155,0.0,0.0,0.0,0.0,0.0,0.0,0.0,0.0,0.0,0.0,0.0,0.0,0.0,2.747,2.8222,2.896,2.9723,3.0576,3.1471,3.2362,3.2636,3.2853,3.3258,3.4266,3.5059,3.5152,3.4886,3.4936,3.5602,3.5372,3.5308,3.5653,3.5691,3.5691,3.5691,3.536,3.5176,3.5168,3.4672,3.4254,3.4033,3.3788,3.3554,3.3328,3.356,3.3676,3.3676,3.392,3.4137,3.4388,3.4703,3.5068,3.5554,3.657,3.716,3.7379,3.7379,3.9004,4.1518,4.1997,4.2777,4.3772,4.5317,4.5633,4.5494,0.0,0.0,0.0,0.0,0.0,0.0,0.0,0.0,0.0,0.0,0.0,0.0,0.0,0.0,0.0,0.0,2.9541,2.9385,2.9438,2.9262,0.0,0.0,2.9832,2.9842,0.0,0.0,0.0,0.0,0.0,0.0,0.0,0.0,0.0,0.0,0.0,0.0,0.0,0.0,0.0,2.9371,3.1405,3.2774,0.0,0.0,3.6037,3.6596,3.6602,3.6559,3.6297,3.4937,3.4039,0.0,0.0,0.0,0.0,0.0,2.6367,0.0,0.0,0.0,0.0,0.0,0.0,0.0,2.773,2.7596,2.7578,2.8534,2.9096,2.9624,3.0298,3.1089,3.1562,3.1271,3.2074,3.3154,3.4363,3.4527,3.4552,3.4603,3.4606,3.4586,3.4525,3.4586,3.4609,3.4609,3.4601,3.4589,3.454,3.3997,3.3482,3.3024,3.2411,3.1882,3.1411,3.1928,3.2205,3.2214,3.2818,3.3366,3.3796,3.3872,3.4424,3.534,3.538,3.5743,3.6318,3.6318,3.7637,3.9809,4.0968,4.1849,4.2739,4.4622,4.5285,4.5485,2.4423,0.0,0.0,0.0,0.0,0.0,0.0,0.0,0.0,0.0,0.0,0.0,0.0,0.0,0.0,0.0,0.0,3.1534,3.0996,0.0,3.0149,3.0172,3.0243,2.9974,2.9359,0.0,0.0,0.0,0.0,0.0,0.0,0.0,0.0,0.0,0.0,0.0,0.0,0.0,0.0,3.2326,3.2478,0.0,3.5881,3.6191,3.6696,3.7216,3.7229,3.6926,3.6295,3.4943,3.4039,3.3251,0.0,0.0,0.0,2.8619,0.0,0.0,0.0,0.0,0.0,0.0,0.0,0.0,2.6948,2.7061,2.7347,2.7578,2.7366,2.758,2.8966,2.8686,2.8658,2.9914,3.0291,3.1145,3.3129,3.3406,3.3581,3.3997,3.4067,3.3902,3.3467,3.381,3.4063,3.4063,3.4061,3.3866,3.3453,3.2845,3.2479,3.2377,3.1849,3.1514,3.1402,3.1947,3.221,3.2214,3.2818,3.3165,3.3266,3.3707,3.4015,3.4245,3.4665,3.518,3.5682,3.5682,3.6762,3.857,3.9765,4.0884,4.2089,4.4444,4.5307,4.549,2.4226,0.0,0.0,0.0,0.0,0.0,0.0,0.0,0.0,0.0,0.0,0.0,0.0,0.0,0.0,0.0,0.0,0.0,0.0,0.0,3.0754,3.0464,3.0389,3.0346,3.0384,2.9773,0.0,0.0,0.0,0.0,0.0,0.0,0.0,0.0,0.0,0.0,0.0,0.0,3.2458,3.3259,3.3813,0.0,3.6536,3.6831,3.7347,3.7927,3.8272,3.7759,3.6671,3.4846,3.4029,0.0,0.0,3.0688,3.0313,0.0,2.7842,2.7301,0.0,0.0,0.0,2.7224,0.0,0.0,0.0,2.6908,2.6973,2.724,2.6623,2.6381,2.7503,2.7261,2.727,2.8357,2.9001,2.9845,3.1256,3.1899,3.2351,3.2627,3.2641,3.2552,3.2275,3.2508,3.264,3.2651,3.2643,3.2528,3.2265,3.1716,3.1406,3.141,3.0877,3.0592,3.0592,3.112,3.155,3.1795,3.2101,3.2543,3.3115,3.3082,3.3366,3.3921,3.4179,3.4749,3.55,3.549,3.6203,3.7381,3.8536,3.9733,4.1008,4.3158,4.4315,4.4988,2.4406,0.0,0.0,0.0,0.0,0.0,0.0,0.0,0.0,0.0,0.0,0.0,0.0,0.0,0.0,0.0,0.0,0.0,0.0,0.0,0.0,0.0,3.039,3.0574,3.0846,3.0099,0.0,0.0,0.0,0.0,0.0,0.0,0.0,0.0,0.0,0.0,0.0,0.0,0.0,3.3765,0.0,3.6023,3.6582,3.7183,3.7832,3.8434,3.8674,3.7834,3.636,3.4401,3.3726,3.3264,3.0601,3.0117,0.0,0.0,0.0,0.0,0.0,0.0,0.0,0.0,0.0,2.7153,0.0,0.0,0.0,2.7069,2.6331,2.577,2.6399,2.6407,2.6474,2.6909,2.7887,2.869,2.895,2.9914,0.0,3.0884,3.0844,3.0758,3.0758,3.0758,3.0814,3.0921,3.1038,3.1135,3.1255,3.0845,3.0608,3.0594,3.0079,2.9814,2.9814,3.0318,3.0817,3.1238,3.1346,3.1928,3.2916,3.2411,3.2771,3.3744,3.3744,3.4346,3.5347,3.534,3.5758,3.6511,3.7655,3.8839,4.012,4.1946,4.3393,4.4677,2.5441,2.5652,0.0,0.0,0.0,0.0,0.0,0.0,0.0,0.0,0.0,0.0,0.0,0.0,0.0,0.0,0.0,0.0,3.3984,0.0,0.0,0.0,3.0211,0.0,2.8938,2.9885,2.9661,0.0,0.0,0.0,0.0,0.0,0.0,0.0,3.1219,0.0,0.0,0.0,3.4039,0.0,3.6077,3.6435,0.0,3.7183,3.7823,3.8215,3.6884,3.536,3.3887,0.0,3.277,3.2551,0.0,3.1053,3.0806,2.925,0.0,0.0,0.0,0.0,0.0,0.0,2.8407,0.0,0.0,0.0,2.7085,2.6675,0.0,2.577,2.6399,0.0,0.0,2.577,2.675,2.7151,2.6222,2.7051,2.8131,2.9082,2.8765,2.8464,2.8464,2.8464,2.8681,2.9145,2.9678,3.0187,3.0673,3.0641,3.0605,3.0598,3.0079,2.9814,2.9814,3.0324,3.0634,3.0687,3.1165,3.1711,3.23,3.2235,3.2554,3.3194,3.3194,3.3809,3.4789,3.4791,3.5431,3.6511,3.7655,3.8839,4.012,4.1946,4.3692,4.529,2.5222,2.5985,0.0,0.0,0.0,0.0,0.0,0.0,0.0,0.0,0.0,0.0,0.0,0.0,0.0,0.0,0.0,3.4349,0.0,0.0,0.0,0.0,0.0,0.0,0.0,3.0637,3.0128,0.0,2.914,0.0,0.0,0.0,0.0,0.0,3.2616,0.0,3.4467,0.0,3.464,0.0,0.0,0.0,0.0,3.6539,3.7097,3.6912,3.5195,3.4361,3.3827,0.0,3.1792,0.0,0.0,0.0,0.0,0.0,0.0,0.0,0.0,0.0,0.0,0.0,0.0,0.0,2.7185,0.0,2.6868,0.0,0.0,0.0,0.0,0.0,0.0,0.0,2.5996,2.6147,2.567,2.5469,2.5921,2.7327,0.0,0.0,2.716,2.716,2.7261,2.7478,2.7751,2.8113,2.8659,2.8969,2.9289,2.9597,2.9715,2.9814,2.9814,3.0015,3.0297,3.0598,3.0514,3.1077,3.2199,3.188,3.2223,3.309,3.309,3.3709,3.4705,3.4692,3.5375,3.6452,3.6943,3.7828,3.9031,4.0483,4.242,4.4453,2.6065,0.0,0.0,0.0,0.0,0.0,0.0,0.0,0.0,0.0,0.0,0.0,3.8755,3.8604,0.0,0.0,3.7497,3.6196,0.0,0.0,3.3115,0.0,0.0,0.0,0.0,0.0,0.0,0.0,0.0,0.0,0.0,0.0,0.0,0.0,0.0,3.3971,3.4765,0.0,3.5159,3.5834,3.6356,3.5514,3.4094,3.541,3.5586,3.4936,3.3666,3.3189,3.2912,3.1343,3.0816,0.0,3.0009,0.0,0.0,0.0,0.0,0.0,2.9686,0.0,0.0,0.0,0.0,0.0,0.0,0.0,0.0,0.0,0.0,0.0,0.0,0.0,0.0,0.0,0.0,2.5494,0.0,2.4481,2.4514,2.5879,0.0,0.0,0.0,2.5812,2.5871,2.603,2.603,2.6264,2.6809,2.7496,2.8122,2.8674,2.926,2.9632,2.9814,2.9814,3.0006,3.038,3.0135,3.0698,3.1965,3.1733,3.2152,3.309,3.309,3.3707,3.4705,3.4686,3.5364,3.6393,3.6393,3.7106,3.8258,3.9453,4.1475,4.3765,2.8874,2.8908,0.0,0.0,0.0,0.0,0.0,0.0,0.0,0.0,0.0,0.0,0.0,0.0,0.0,0.0,0.0,3.8659,3.9212,0.0,3.3894,0.0,0.0,3.3142,0.0,0.0,0.0,3.2131,0.0,0.0,0.0,0.0,0.0,0.0,0.0,3.4233,3.5484,3.5467,3.5846,3.6488,3.6688,3.558,3.3801,0.0,3.3146,3.2311,3.2265,0.0,0.0,2.9882,2.9847,0.0,0.0,0.0,0.0,0.0,0.0,0.0,0.0,0.0,0.0,2.9167,0.0,0.0,0.0,0.0,2.7921,0.0,0.0,0.0,0.0,0.0,0.0,0.0,0.0,0.0,0.0,2.4029,2.4205,2.4791,2.4859,0.0,0.0,2.4079,2.4305,2.4816,2.4859,2.5093,2.5619,2.672,2.756,2.8111,2.8655,2.9216,2.9779,2.9814,2.9814,2.9824,3.0333,3.0876,3.1432,3.1946,3.2514,3.309,3.309,3.3707,3.4708,3.4695,3.5379,3.6393,3.6393,3.7096,3.8268,3.9447,4.1455,4.3758,0.0,0.0,0.0,0.0,0.0,0.0,0.0,3.6309,0.0,0.0,0.0,0.0,0.0,4.477,4.5015,0.0,0.0,4.1394,4.0776,3.802,0.0,0.0,0.0,3.361,0.0,0.0,3.3349,3.3061,0.0,0.0,0.0,0.0,0.0,0.0,0.0,3.4273,0.0,0.0,0.0,0.0,0.0,3.3919,3.4315,0.0,0.0,3.1577,3.0861,3.0478,0.0,2.9905,2.9814,2.9814,2.9814,2.9814,2.9814,2.9814,2.9814,0.0,0.0,0.0,2.9891,2.9111,0.0,0.0,0.0,0.0,0.0,0.0,0.0,0.0,0.0,0.0,0.0,0.0,0.0,0.0,0.0,0.0,2.2682,2.2852,2.3362,2.3597,0.0,0.0,2.3479,2.3672,2.3664,2.393,2.4506,2.5586,2.661,2.7553,2.8447,2.9196,2.9779,2.9814,2.9814,2.9804,2.9973,3.0538,3.1423,3.1595,3.2205,3.309,3.309,3.3707,3.4692,3.4701,3.5357,3.6393,3.6393,3.7105,3.8245,3.9435,4.1479,4.3888,3.3326,0.0,0.0,0.0,0.0,0.0,0.0,0.0,0.0,0.0,4.3822,0.0,4.6254,0.0,4.7117,0.0,4.5438,4.3888,4.1883,4.0129,0.0,3.7544,3.5818,0.0,0.0,0.0,0.0,3.4203,3.4023,3.4245,0.0,0.0,0.0,0.0,0.0,3.4555,3.4075,3.5165,3.4804,0.0,0.0,3.2718,0.0,0.0,3.1839,3.1271,0.0,3.003,3.0246,2.9905,2.9814,2.9814,2.9814,2.9814,2.9814,2.9814,2.9814,2.9814,2.9814,2.9814,0.0,2.9318,2.9208,0.0,2.8765,0.0,0.0,0.0,0.0,0.0,0.0,0.0,0.0,0.0,0.0,0.0,0.0,2.2893,2.221,2.1932,2.2079,2.2326,2.2648,2.2387,2.2456,2.305,2.2831,2.2964,0.0,0.0,2.5744,2.6662,2.7932,2.8881,2.947,2.9696,2.9814,2.9814,2.9996,3.056,3.1403,3.1584,3.221,3.309,3.309,3.3726,3.469,3.4712,3.5378,3.6393,3.6393,3.7353,3.8825,3.9611,4.1723,4.448,3.3523,0.0,0.0,0.0,3.4765,0.0,0.0,0.0,4.3032,0.0,4.52,4.7301,4.682,4.7357,4.7922,4.8337,4.7763,4.6032,4.279,4.2529,0.0,0.0,3.7624,3.7558,3.7528,0.0,0.0,3.5565,3.5519,3.5511,0.0,0.0,0.0,0.0,3.5511,0.0,3.4022,3.5295,3.4993,3.3576,3.3096,3.2012,3.0708,3.0608,3.0915,3.1258,3.0188,2.9814,2.9814,2.9814,2.9814,2.9814,2.9814,2.9814,2.9814,2.9814,2.9814,2.9814,2.9814,2.9814,2.9814,2.9814,0.0,0.0,0.0,0.0,2.9679,0.0,0.0,0.0,0.0,0.0,0.0,0.0,0.0,0.0,0.0,0.0,2.2772,2.1995,2.1169,2.0949,2.1761,2.1085,2.1282,2.2922,2.2294,2.2217,0.0,0.0,2.5024,2.564,2.7226,2.8369,2.8927,2.9514,2.9814,2.9814,3.0316,3.0846,3.139,3.1912,3.2479,3.3072,3.3101,3.3712,3.47,3.4693,3.5378,3.6405,3.6464,3.7935,4.0007,4.0116,4.2355,4.5402,3.5054,3.5667,3.631,0.0,3.6603,3.6919,0.0,0.0,0.0,0.0,4.8016,5.0186,5.0414,5.1078,5.084,4.9202,4.8884,0.0,0.0,0.0,0.0,4.1212,4.0164,3.9172,3.8198,3.7349,0.0,3.6232,3.5728,3.5511,3.5511,0.0,0.0,0.0,0.0,3.4543,3.3057,3.4574,3.4658,3.3608,3.1897,3.1718,3.2294,0.0,3.0577,3.1258,3.0188,2.9814,2.9814,2.9814,2.9814,2.9814,2.9814,2.9814,2.9814,2.9814,2.9814,2.9814,2.9814,2.9814,2.9814,2.9814,2.9814,2.9814,0.0,0.0,0.0,0.0,0.0,0.0,0.0,0.0,0.0,0.0,0.0,0.0,0.0,0.0,0.0,2.1986,2.151,2.1124,2.0955,2.0727,2.1045,2.2125,2.1596,2.1776,2.3017,0.0,0.0,2.623,2.7473,2.8567,2.9553,2.9715,2.9814,2.9814,2.9942,3.0297,3.0807,3.1352,3.1925,3.2468,3.292,3.3712,3.47,3.4693,3.5378,3.6487,3.7335,3.9107,4.1391,4.3246,4.4505,4.5471,3.6123,0.0,0.0,3.8297,0.0,0.0,4.086,4.2125,0.0,4.5931,4.8519,0.0,4.9871,5.1236,5.16,5.0246,4.9606,0.0,4.6418,0.0,0.0,4.2853,4.1808,4.0779,3.9723,3.818,0.0,3.6489,0.0,0.0,3.5511,0.0,0.0,0.0,0.0,3.4005,3.2613,3.2697,3.2744,3.2632,3.117,3.117,0.0,3.0614,3.038,3.0617,3.0015,2.9814,2.9814,2.9814,2.9814,2.9814,2.9814,2.9814,2.9814,2.9814,2.9814,2.9814,2.9814,2.9814,2.9814,2.9814,2.9814,2.9814,2.9814,3.003,3.0146,0.0,0.0,0.0,0.0,0.0,0.0,0.0,0.0,0.0,0.0,0.0,0.0,0.0,2.1545,2.13,2.0382,2.0684,2.1095,2.1468,2.1434,2.1795,2.2712,0.0,0.0,2.6072,2.7635,2.8747,2.9406,2.9897,3.0025,2.9814,2.9814,3.0079,3.0633,3.117,3.1696,3.2256,3.3089,3.3942,3.4707,3.4949,3.5568,3.657,3.8247,3.9689,4.1213,4.4193,4.529,4.5439,3.7058,0.0,0.0,0.0,0.0,0.0,0.0,4.4254,0.0,4.6561,0.0,4.9246,4.8051,4.997,5.1265,5.1079,0.0,4.8528,4.6665,4.6491,4.5615,4.378,4.3112,4.2375,4.1537,3.8983,3.7327,0.0,0.0,0.0,0.0,0.0,0.0,0.0,0.0,0.0,0.0,3.0542,3.0384,3.1255,3.0715,3.0544,3.0593,3.0517,3.0198,2.9814,2.9814,2.9814,2.9814,2.9814,2.9814,2.9814,2.9814,2.9814,2.9814,2.9814,2.9814,2.9814,2.9814,2.9814,2.9814,2.9814,2.9814,2.9814,2.9814,2.9814,2.9814,2.9814,2.9814,2.9789,0.0,0.0,0.0,0.0,0.0,0.0,0.0,0.0,0.0,0.0,0.0,0.0,2.033,2.0918,2.1308,2.1122,2.1529,2.199,2.2491,0.0,0.0,2.5806,2.7764,2.8939,2.9219,0.0,3.0326,3.0006,2.9996,3.0198,3.0617,3.1277,3.1856,3.2375,3.3438,3.4241,3.4847,3.5319,3.5949,3.6838,3.9026,3.9995,4.0544,4.4011,4.5296,4.5403,3.8491,0.0,0.0,0.0,0.0,4.3945,4.62,4.8845,5.0357,4.9729,5.1792,5.2797,5.1462,5.1738,5.1577,5.046,4.9723,0.0,0.0,0.0,0.0,4.5819,4.5151,4.4004,4.2277,4.0127,3.8455,0.0,0.0,0.0,0.0,0.0,0.0,0.0,0.0,0.0,3.137,3.0282,0.0,3.0691,3.0153,3.0209,3.0559,3.0114,2.9887,2.9814,2.9814,2.9814,2.9814,2.9814,2.9814,2.9814,2.9814,2.9814,2.9814,2.9814,2.9814,2.9814,2.9814,2.9814,2.9814,2.9814,2.9814,2.9814,2.9814,2.9814,2.9814,2.9814,2.9814,2.9654,2.9157,0.0,0.0,0.0,0.0,0.0,0.0,0.0,0.0,0.0,0.0,2.4644,2.1908,2.1487,2.15,2.1728,2.1371,2.1902,2.3602,0.0,0.0,0.0,2.7801,0.0,0.0,0.0,3.0326,3.1129,3.1019,3.0836,3.0627,3.1967,3.2695,3.2978,3.3627,3.4469,3.537,3.5444,3.641,3.7944,3.9341,4.0478,4.1637,4.4309,4.5311,4.5469,0.0,0.0,0.0,0.0,0.0,0.0,0.0,5.1839,0.0,5.0956,5.1244,5.1412,5.0765,5.1588,5.193,5.1284,5.0058,4.9149,4.8827,4.788,4.7154,4.6835,4.583,0.0,4.3409,4.0776,3.8909,3.7934,0.0,0.0,0.0,0.0,0.0,0.0,0.0,3.2971,0.0,0.0,0.0,3.0591,3.0323,3.0372,3.0577,3.0318,3.005,2.9814,2.9814,2.9814,2.9814,2.9814,2.9814,2.9814,2.9814,2.9814,2.9814,2.9814,2.9814,2.9814,2.9814,2.9814,2.9814,2.9814,2.9814,2.9814,2.9814,2.9814,2.9814,2.9814,2.9814,2.963,2.9004,2.8494,0.0,0.0,0.0,0.0,0.0,0.0,2.5949,0.0,0.0,0.0,0.0,2.3144,0.0,0.0,0.0,0.0,0.0,0.0,0.0,0.0,0.0,0.0,0.0,0.0,0.0,3.2628,3.2289,3.2308,3.2694,3.3109,3.3533,3.3937,3.4204,3.4784,3.5511,3.5836,3.6451,3.7396,3.9186,4.0228,4.108,4.4171,4.5302,4.5482,0.0,4.291,0.0,0.0,4.7135,0.0,5.007,5.2991,5.4318,5.2094,5.1088,5.0508,5.0349,5.1566,5.2358,5.2199,5.0413,4.931,4.931,4.8045,4.7309,4.7309,4.6137,4.5126,4.4318,4.1217,3.9225,0.0,0.0,0.0,0.0,0.0,0.0,0.0,0.0,0.0,0.0,0.0,3.091,3.0435,3.0435,3.0428,3.0427,3.0422,3.0178,2.9814,2.9814,2.9814,2.9814,2.9814,2.9814,2.9814,2.9814,2.9814,2.9814,2.9814,2.9814,2.9814,2.9814,2.9814,2.9814,2.9814,2.9814,2.9814,2.9814,2.9814,2.9814,2.9814,2.9814,2.9651,2.9171,2.8994,0.0,0.0,0.0,0.0,0.0,0.0,0.0,0.0,0.0,0.0,2.4788,0.0,2.4284,0.0,0.0,0.0,2.4309,0.0,0.0,0.0,0.0,3.0748,3.185,0.0,3.3025,3.436,3.4029,3.4245,3.4978,3.4516,3.4585,3.5042,3.4784,3.5091,3.5728,3.62,3.6393,3.6644,3.8975,3.9963,4.0498,4.4008,4.5393,4.5687,0.0,0.0,0.0,0.0,0.0,0.0,4.9412,5.1191,5.3098,5.459,5.4697,5.4427,5.3813,5.3355,5.2857,5.225,5.0418,4.931,4.931,4.8045,4.7309,4.7309,4.6599,4.5624,4.4328,4.1676,3.9678,0.0,0.0,0.0,0.0,0.0,0.0,0.0,0.0,0.0,0.0,3.1207,3.0686,2.9878,2.9878,2.9875,2.9863,2.9854,2.9833,2.9814,2.9814,2.9814,2.9814,2.9814,2.9814,2.9814,2.9814,2.9814,2.9814,2.9814,2.9814,2.9814,2.9814,2.9814,2.9814,2.9814,2.9814,2.9814,2.9814,2.9814,2.9814,2.9814,2.9814,2.9779,2.9715,2.9274,2.887,0.0,0.0,0.0,0.0,0.0,2.8107,2.8503,0.0,0.0,2.6345,2.582,2.5252,2.4586,2.4158,0.0,0.0,0.0,0.0,2.8342,0.0,3.0443,3.3288,3.3057,3.405,3.6257,3.6494,3.6485,3.6217,3.6039,3.6035,3.6105,3.5129,3.5307,3.6321,3.6381,3.6393,3.6635,3.8964,4.0243,4.1089,4.4173,4.5671,4.6307,0.0,0.0,0.0,0.0,0.0,0.0,0.0,5.2977,5.4285,5.51,5.4495,5.3905,5.3626,5.3011,5.2503,5.2223,5.0407,4.9294,4.9288,4.8022,4.7309,4.7309,4.6275,4.5443,4.492,4.1934,3.9954,0.0,0.0,0.0,0.0,0.0,0.0,0.0,0.0,3.4001,3.2502,3.2169,3.1347,3.0252,2.9942,2.9814,2.9814,2.9814,2.9814,2.9814,2.9814,2.9814,2.9814,2.9814,2.9814,2.9814,2.9814,2.9814,2.9814,2.9814,2.9814,2.9814,2.9814,2.9814,2.9814,2.9814,2.9814,2.9814,2.9814,2.9814,2.9814,2.9814,2.9814,2.9814,2.9814,2.9597,2.9439,0.0,0.0,0.0,0.0,0.0,0.0,2.8872,0.0,2.7578,2.7035,2.6909,2.6566,2.5862,0.0,0.0,0.0,0.0,0.0,2.844,0.0,3.1538,3.3954,3.4383,3.5831,3.8369,3.8173,3.7991,3.7795,3.6695,3.5886,3.5326,3.5224,3.5645,3.6393,3.6393,3.6393,3.6563,3.8185,3.9154,4.0019,4.3151,4.4657,4.5368,4.8442,0.0,4.8478,0.0,5.097,5.1664,5.3014,5.3845,5.4261,5.4043,5.3196,5.2825,5.3419,5.2887,5.241,5.2218,5.0406,4.9301,4.9313,4.8032,4.7309,4.7309,4.6381,0.0,4.5317,4.2472,4.047,3.9403,3.7444,0.0,0.0,0.0,0.0,0.0,3.5373,3.451,3.3123,3.263,3.1619,3.0326,2.9951,2.9814,2.9814,2.9814,2.9814,2.9814,2.9814,2.9814,2.9814,2.9814,2.9814,2.9814,2.9814,2.9814,2.9814,2.9814,2.9814,2.9814,2.9814,2.9814,2.9814,2.9814,2.9814,2.9814,2.9814,2.9814,2.9814,2.9814,2.9814,2.9814,2.9814,2.9814,2.9729,2.9569,0.0,0.0,0.0,2.8941,0.0,0.0,2.8037,2.7528,2.7311,2.7319,2.7135,2.6637,0.0,0.0,0.0,0.0,0.0,0.0,0.0,0.0,0.0,3.5514,3.7077,3.9574,3.9042,3.8811,3.8724,3.7013,3.567,3.4738,3.5443,3.6018,3.6393,3.6393,3.6393,3.6563,3.8063,3.8764,3.9378,4.2843,4.4235,4.4726,4.8568,4.9611,5.1036,5.284,5.3151,5.3181,5.3198,5.2648,5.1995,5.1345,5.1231,5.1988,5.3974,5.3605,5.291,5.2259,5.043,4.9301,4.9313,4.8032,4.7309,0.0,0.0,4.6655,4.5342,4.3385,4.1392,3.9388,0.0,0.0,3.5511,0.0,3.5511,3.5473,3.5072,3.4041,3.2577,3.2182,3.1152,2.9814,2.9814,2.9814,2.9814,2.9814,2.9814,2.9814,2.9814,2.9814,2.9814,2.9814,2.9814,2.9814,2.9814,2.9814,2.9814,2.9814,2.9814,2.9814,2.9814,2.9814,2.9814,2.9814,2.9814,2.9814,2.9814,2.9814,2.9814,2.9814,2.9814,2.9814,2.9814,2.9814,2.9603,2.9007,0.0,0.0,0.0,0.0,0.0,2.8113,2.716,2.6725,2.7261,2.6835,0.0,0.0,0.0,0.0,0.0,0.0,0.0,3.169,3.1921,0.0,3.6633,3.6353,3.734,3.9594,3.9068,3.8784,3.8724,3.7061,3.5721,3.4766,3.5904,3.6393,3.6393,3.6393,3.6393,3.6635,3.896,3.9567,3.9605,4.3752,4.4988,4.4853,5.0819,5.0905,5.1294,5.2334,5.2522,5.2831,5.3747,5.3706,5.3481,5.3285,5.324,5.3121,5.2876,5.224,5.1931,0.0,5.0803,4.9752,0.0,4.8477,4.7774,4.7309,4.6433,4.573,4.5319,4.2952,4.1196,4.0079,0.0,0.0,0.0,3.5976,3.6178,3.617,3.5767,3.5156,3.4331,3.2686,3.158,3.0836,3.0079,2.9814,2.9814,2.9814,2.9814,2.9814,2.9814,2.9814,2.9814,2.9814,2.9814,2.9814,2.9814,2.9814,2.9814,2.9814,2.9814,2.9814,2.9814,2.9814,2.9814,2.9814,2.9814,2.9814,2.9814,2.9814,2.9814,2.9814,2.9814,2.9814,2.9814,2.9814,2.9739,2.9543,2.9679,0.0,0.0,0.0,2.7971,2.7604,2.7261,2.711,2.7286,2.7635,0.0,0.0,0.0,0.0,0.0,0.0,0.0,0.0,3.1885,0.0,3.5059,3.6281,3.7266,3.7987,3.8534,3.7829,3.5969,3.5068,3.4686,3.4747,3.5478,3.6018,3.6393,3.6393,3.6393,3.6465,3.7231,3.7624,3.8169,4.1129,4.2682,4.3613,5.126,5.1194,5.1419,5.208,5.2199,5.2471,5.3332,5.3451,5.3351,5.3117,5.3062,5.285,5.226,5.161,0.0,5.1782,5.0814,4.9928,4.9344,4.8657,4.8011,4.732,4.6503,4.5828,4.5302,4.3457,0.0,4.0399,3.8382,3.6988,3.6224,3.6637,3.6839,3.679,3.6014,3.5293,3.453,3.2593,3.1408,3.0736,3.007,2.9814,2.9814,2.9814,2.9814,2.9814,2.9814,2.9814,2.9814,2.9814,2.9814,2.9814,2.9814,2.9814,2.9814,2.9814,2.9814,2.9814,2.9814,2.9814,2.9814,2.9814,2.9814,2.9814,2.9814,2.9814,2.9814,2.9814,2.9814,2.9814,2.9814,2.9814,2.9814,2.9814,2.9814,2.9524,2.8719,0.0,0.0,0.0,0.0,0.0,0.0,2.806,2.8169,0.0,0.0,0.0,0.0,0.0,0.0,3.0902,3.2148,0.0,3.4705,3.5732,3.6437,3.6827,3.7119,3.6136,3.4091,3.3949,3.4179,3.4732,3.5283,3.5837,3.6393,3.6393,3.6393,3.6502,3.7365,3.7387,3.734,4.1122,4.243,4.2772,5.0287,5.0744,5.1419,0.0,5.2151,0.0,5.2258,5.2218,5.1992,5.1345,5.1262,5.1484,5.208,5.1526,5.1122,5.1122,0.0,0.0,0.0,4.866,4.8011,4.732,4.7219,4.6576,4.5331,4.4567,4.2908,4.0341,3.8453,3.7475,3.7394,3.7506,3.7515,3.7418,3.605,3.4817,3.3686,3.2134,3.0885,2.9951,2.9942,2.9887,2.9868,2.9897,2.9868,2.9814,2.9833,2.9833,2.9814,2.9814,2.9814,2.9814,2.9814,2.9814,2.9814,2.9814,2.9814,2.9814,2.9814,2.9814,2.9814,2.9814,2.9814,2.9814,2.9814,2.9814,2.9814,2.9814,2.9814,2.9814,2.9814,2.9814,2.9814,2.9814,2.9814,2.9411,2.83,0.0,0.0,0.0,0.0,0.0,0.0,2.8088,2.8206,0.0,0.0,0.0,0.0,0.0,2.9786,3.2078,3.2564,3.3577,3.5209,3.4889,3.5166,3.607,3.5112,3.4112,3.3158,3.3697,3.4243,3.4787,3.5269,3.5837,3.6393,3.6393,3.6393,3.661,3.8902,3.8432,3.7212,4.299,4.376,4.2415,0.0,0.0,5.1419,5.208,5.1766,5.1785,5.2817,5.255,5.2138,5.1964,5.195,5.1824,5.1473,5.0856,5.0442,5.0442,5.0294,4.9734,4.8594,4.838,4.8011,4.732,4.6322,4.5624,4.5306,4.3698,4.1782,3.964,3.9154,3.8413,3.7416,3.8448,3.8641,3.8107,3.7164,3.6308,3.5434,3.3032,3.1859,3.1607,3.1193,3.0781,3.0444,3.0865,3.0499,2.9843,3.0252,3.0143,2.9814,2.9814,2.9814,2.9814,2.9814,2.9814,2.9814,2.9814,2.9814,2.9814,2.9814,2.9814,2.9814,2.9814,2.9814,2.9814,2.9814,2.9814,2.9814,2.9814,2.9814,2.9814,2.9814,2.9814,2.9814,2.9814,2.9814,2.9534,2.8806,2.8709,0.0,0.0,2.7921,2.7971,2.8097,2.8088,2.8138,0.0,0.0,0.0,0.0,2.8908,2.9688,3.1528,3.2383,3.3066,3.3643,3.4361,3.4823,3.5048,3.4389,3.3975,3.3733,3.4274,3.4789,3.5311,3.5437,3.5837,3.6393,3.6393,3.6393,3.6533,3.7983,3.8184,3.8149,4.1863,4.3217,4.3488,5.0717,5.0962,5.1312,5.1675,5.1431,5.1461,5.2175,5.1728,5.1282,5.1282,5.1057,5.0856,5.0749,5.0188,4.9778,4.9805,4.9791,4.937,4.8356,4.8314,4.8011,4.732,4.6314,4.5597,4.5304,4.3976,4.2435,4.0768,4.0452,3.994,3.9223,3.9647,3.9649,3.9268,3.8003,3.685,3.5719,3.3757,3.2505,3.1818,3.1529,3.123,3.1009,3.1285,3.0894,3.0208,3.0494,3.0252,2.9814,2.9814,2.9814,2.9814,2.9814,2.9814,2.986,3.0089,2.9998,2.9814,2.9814,2.9814,2.9814,2.9814,2.9814,2.9814,2.9814,2.9814,2.9814,2.9814,2.9814,2.9814,2.9814,2.9814,2.9814,2.9814,2.9814,2.9597,2.8988,2.8897,0.0,2.8514,2.8455,2.8555,2.885,2.8875,2.8759,2.85,2.8456,0.0,2.9277,2.9536,3.0086,3.1013,3.2014,3.2571,3.2675,3.3543,3.3981,3.396,3.3653,3.3664,3.3918,3.4186,3.4768,3.5509,3.5498,3.5837,3.6393,3.6393,3.6393,3.6555,3.8272,3.8579,3.8581,4.2407,4.3732,4.3914,5.0965,5.1121,5.1206,5.1206,5.1206,5.1164,5.1057,5.056,5.0188,5.0081,4.9628,4.9492,5.0013,4.9527,4.915,4.9135,4.9068,4.8767,4.8177,4.8166,4.7907,4.7309,4.6651,4.5988,4.5298,4.4541,4.3554,4.2416,4.1818,4.1498,4.1401,4.0906,4.0589,4.0332,3.8786,3.7222,3.57,3.4632,3.3377,3.2101,3.1965,3.1841,3.1758,3.169,3.1261,3.0717,3.0802,3.051,3.0043,3.0037,3.0031,3.0041,3.0034,3.0029,3.0121,3.0591,3.0408,3.0026,2.9938,2.9932,2.9932,3.0013,3.0027,3.004,3.0048,3.0029,3.0054,3.005,3.004,3.0015,2.9939,2.9905,2.9854,2.9679,2.9739,2.9582,2.8978,0.0,2.9073,2.9154,2.9164,2.9383,2.998,3.004,2.9838,2.9311,2.9752,3.005,3.005,3.0646,3.0988,3.0988,3.1779,3.2234,3.2322,3.2835,3.309,3.309,3.3194,3.3455,3.39,3.3966,3.4556,3.5497,3.5492,3.5837,3.6393,3.6393,3.6508,3.6862,3.9044,3.9379,3.9162,4.3647,4.4691,4.4199,5.0438,5.0811,5.1206,5.1206,5.1206,5.1016,5.0442,5.0253,5.0028,4.9522,4.9363,4.9357,4.9436,4.8841,4.8478,4.847,4.7929,4.7567,4.7464,4.7464,4.7412,4.7309,4.6651,4.5978,4.5323,4.4098,4.3101,4.2416,4.2297,4.1941,4.1411,4.1873,4.1496,4.0375,3.9767,3.8727,3.7374,3.6277,3.5681,3.5389,3.4528,3.387,3.3373,3.2998,3.2191,3.1334,3.178,3.1607,3.1139,3.116,3.1149,3.1136,3.115,3.1144,3.1165,3.125,3.1218,3.1052,3.0607,3.0489,3.0577,3.1047,3.1141,3.1154,3.1148,3.1144,3.1145,3.115,3.1145,3.1009,3.0548,3.0472,3.0171,2.9208,2.9478,2.9582,2.8978,0.0,2.9816,3.0268,3.0338,3.0548,3.1095,3.1145,3.1115,3.1014,3.1098,3.1148,3.1148,3.2138,3.2712,3.2712,3.2376,3.243,3.2971,3.3064,3.309,3.3126,3.356,3.3806,3.3911,3.4362,3.4895,3.5495,3.5507,3.5837,3.6393,3.6393,3.6974,3.7962,3.9368,4.0376,4.1398,4.4264,4.5181,4.5245,5.0811,5.1,5.1206,5.1206,5.1206,5.0962,5.0294,4.9934,4.948,4.8846,4.8458,4.8354,4.8732,4.8167,4.7908,4.8257,4.77,4.7309,4.7309,4.7309,4.7309,4.7309,4.6651,4.5827,4.4779,4.4157,4.3539,4.2882,4.2882,4.2733,4.2426,4.2416,4.2069,4.1427,4.0537,3.9448,3.8293,3.7433,3.6733,3.6152,3.5696,3.5018,3.4274,3.4043,3.3079,3.1852,3.2101,3.1852,3.1409,3.1406,3.1406,3.1403,3.1406,3.1408,3.1448,3.1757,3.1622,3.134,3.1098,3.1042,3.109,3.1334,3.14,3.1405,3.1385,3.1397,3.1407,3.1392,3.1396,3.1246,3.0698,3.0588,3.0337,2.9518,2.9628,0.0,0.0,2.9874,3.0307,3.0583,3.0874,3.1135,3.1371,3.1396,3.1522,3.1813,3.1838,3.21,3.2705,3.3241,3.3663,3.3956,3.3409,3.312,3.3101,3.309,3.309,3.309,3.3341,3.3618,3.3921,3.4156,3.4705,3.5476,3.5175,3.5584,3.6381,3.6042,3.6768,3.8223,3.9444,4.0822,4.2399,4.4533,4.5544,4.5982,5.1206,5.1206,5.1206,5.1206,5.1206,5.0921,5.0093,4.9601,4.9005,4.8176,4.76,4.7505,4.8011,4.7608,4.7516,4.8022,4.7608,4.7309,4.7309,4.7309,4.7309,4.7309,4.6651,4.5769,4.4558,4.4389,4.3957,4.33,4.33,4.33,4.329,4.2833,4.2525,4.2367,4.1323,4.024,3.9134,3.862,3.7843,3.691,3.6677,3.6106,3.538,3.4876,3.3906,3.276,3.251,3.2147,3.1795,3.1795,3.1795,3.1807,3.1793,3.1811,3.1867,3.2276,3.229,3.2067,3.1701,3.1595,3.1617,3.1762,3.1795,3.1807,3.179,3.1799,3.1823,3.1949,3.1873,3.1673,3.126,3.0949,3.0583,2.9914,0.0,0.0,0.0,3.0265,3.0693,3.0947,3.134,3.1643,3.1773,3.1808,3.1974,3.239,3.2531,3.2984,3.3842,3.4155,3.4467,3.4869,3.424,3.3697,3.3273,3.3147,3.309,3.309,3.309,3.3319,3.3733,3.3848,3.4333,3.5115,3.481,3.5275,3.6144,3.5698,3.6689,3.8621,3.9527,4.1062,4.2959,4.4675,4.5633,4.6191,5.1206,5.1206,5.1206,5.1206,5.1206,5.0803,4.9563,4.9322,4.8831,4.7557,4.7326,4.7309,4.7361,4.732,4.7309,4.7361,4.732,4.7309,4.7309,4.7309,4.7309,4.7309,4.6651,4.5946,4.5247,4.4616,4.3957,4.33,4.33,4.33,4.33,4.325,4.2942,4.2387,4.2308,4.1538,4.0293,4.0236,3.9793,3.9077,3.8089,3.7632,3.7359,3.542,3.4633,3.439,3.3388,3.3011,3.2964,3.2964,3.2964,3.2975,3.2979,3.2975,3.2975,3.3018,3.3722,3.4131,3.2568,3.2141,3.2285,3.2849,3.2964,3.2975,3.2982,3.2979,3.3115,3.3596,3.3305,3.2964,3.2914,3.2049,3.0994,2.9965,0.0,0.0,2.9814,3.0258,3.0968,3.1953,3.2124,3.2359,3.2925,3.2964,3.2989,3.304,3.349,3.3799,3.3909,3.4839,3.5393,3.5436,3.444,3.387,3.3848,3.3341,3.309,3.309,3.309,3.3126,3.3194,3.3675,3.3925,3.4042,3.4491,3.5036,3.5561,3.5515,3.7179,3.9771,3.9853,4.1271,4.3409,4.4795,4.5334,4.5544,5.1206,5.1206,5.1069,5.0655,5.059,5.0146,4.8858,4.8671,4.8363,4.7412,4.7309,4.7309,4.7309,4.7309,4.7309,4.7309,4.7309,4.7309,4.7309,4.7309,4.7309,4.7309,4.6651,4.5984,4.5308,4.4645,4.3957,4.33,4.33,4.33,4.33,4.33,4.319,4.2942,4.2575,4.1892,4.0992,4.0581,4.0004,3.9373,3.8972,3.8402,3.7727,3.6912,3.5835,3.4644,3.4227,3.387,3.356,3.3205,3.3319,3.3607,3.3607,3.3603,3.3737,3.4388,3.5384,3.6012,3.4958,3.4246,3.3896,3.4445,3.4106,3.368,3.4011,3.4087,3.4137,3.4363,3.4237,3.3897,3.3215,3.2738,3.2085,3.0969,0.0,3.0783,3.0786,3.1241,3.1738,3.2134,3.2821,3.333,3.3569,3.3889,3.4237,3.4552,3.4788,3.5059,3.5424,3.5832,3.6074,3.6063,3.5293,3.4742,3.439,3.3859,3.3607,3.3582,3.3262,3.309,3.3126,3.3665,3.4087,3.4415,3.462,3.5609,3.709,3.6747,3.8319,4.0942,4.0957,4.2435,4.4609,4.5112,4.5824,4.6621,5.0636,5.0761,5.0749,5.0294,5.0211,4.9844,4.8773,4.8621,4.8311,4.7412,4.7309,4.7309,4.7309,4.7309,4.7309,4.7309,4.7309,4.7309,4.7309,4.7103,4.7,4.7,4.6332,4.568,4.4993,4.4528,4.3957,4.33,4.33,4.33,4.33,4.33,4.33,4.329,4.2882,4.2208,4.1361,4.0895,4.0206,3.9391,3.9391,3.8972,3.8298,3.8155,3.7232,3.5928,3.5439,3.5028,3.4598,3.3847,3.3852,3.4159,3.4159,3.4423,3.4885,3.5769,3.6979,3.7882,3.7201,3.6668,3.6257,3.6087,3.5637,3.5243,3.527,3.5269,3.5223,3.4983,3.4828,3.4539,3.3947,3.3581,3.3115,3.23,3.2049,3.1925,3.1933,3.2392,3.2738,3.2731,3.3562,3.4148,3.4137,3.4494,3.4853,3.5218,3.5409,3.5756,3.6366,3.6393,3.6393,3.6393,3.5999,3.56,3.5233,3.4514,3.4078,3.3906,3.3709,3.3502,3.3364,3.3907,3.4365,3.4717,3.5105,3.6249,3.785,3.7842,3.9334,4.1602,4.1593,4.2999,4.5008,4.5213,4.6007,4.7012,4.9415,4.9775,5.0199,5.0199,5.0196,4.9963,4.937,4.9276,4.8819,4.7464,4.7309,4.7309,4.7309,4.7309,4.7309,4.7309,4.7309,4.7309,4.7298,4.6661,4.6302,4.6302,4.5647,4.4974,4.4318,4.4297,4.3957,4.33,4.33,4.33,4.33,4.33,4.33,4.33,4.33,4.2585,4.141,4.1401,4.064,3.943,3.9421,3.9421,3.9373,3.8963,3.8806,3.8609,3.7095,3.6518,3.6332,3.5127,3.4724,3.4717,3.4717,3.5561,3.662,3.7098,3.8455,3.9668,3.8989,3.9309,3.9389,3.7655,3.7731,3.7893,3.677,3.6522,3.6337,3.567,3.5091,3.489,3.5408,3.4628,3.3922,3.3897,3.3456,3.3115,3.3115,3.356,3.3915,3.3916,3.4383,3.4712,3.4705,3.4703,3.4703,3.4703,3.5218,3.5757,3.6368,3.6393,3.6393,3.6393,3.6393,3.6393,3.6393,3.5278,3.4443,3.3932,3.4443,3.4408,3.3916,3.4456,3.4722,3.4789,3.5981,3.6813,3.7423,3.8547,4.0027,4.1606,4.1606,4.2729,4.4386,4.5057,4.5741,4.6397,4.9327,4.9428,4.9424,4.8951,4.8872,4.8663,4.7993,4.7893,4.7763,4.735,4.7309,4.7309,4.7309,4.7309,4.7309,4.7309,4.7309,4.7103,4.664,4.6418,4.6082,4.5626,4.4969,4.4508,4.4297,4.3848,4.3499,4.33,4.33,4.33,4.33,4.33,4.33,4.33,4.33,4.2842,4.207,4.1596,4.116,4.0755,4.0293,4.039,4.0804,4.0685,4.0169,3.9439,3.8987,3.8559,3.8129,3.7404,3.6871,3.6527,3.6527,3.8168,4.0008,3.9669,4.0557,4.1477,4.0812,4.1106,4.1281,3.9939,3.9165,3.8767,3.8884,3.8896,3.8601,3.755,3.7205,3.6756,3.5704,3.5246,3.4902,3.4519,3.4338,3.4212,3.4212,3.4377,3.4469,3.4447,3.4936,3.5273,3.5254,3.5627,3.5904,3.5904,3.6043,3.6205,3.6393,3.6393,3.6393,3.6393,3.6393,3.6393,3.6393,3.5635,3.5175,3.5024,3.4793,3.4629,3.4487,3.5006,3.5717,3.6556,3.7301,3.8644,4.0354,4.0683,4.1596,4.2783,4.2783,4.3706,4.5039,4.5224,4.6015,4.7042,4.8556,4.8709,4.8778,4.8358,4.8302,4.8174,4.7756,4.7703,4.7608,4.732,4.7309,4.7309,4.7309,4.7309,4.7309,4.7309,4.7309,4.7011,4.6332,4.6284,4.5899,4.4936,4.4531,4.4316,4.4297,4.3648,4.33,4.33,4.33,4.33,4.33,4.33,4.33,4.33,4.33,4.2942,4.2347,4.1683,4.1405,4.134,4.0673,4.0791,4.1428,4.1686,4.139,4.0799,4.0601,4.0316,3.9902,3.9134,3.8623,3.8416,3.8861,4.021,4.1576,4.1378,4.2,4.263,4.1966,4.2276,4.2575,4.1853,4.1181,4.0692,4.0597,4.0564,4.0227,3.906,3.88,3.8477,3.7441,3.6857,3.6434,3.6089,3.5677,3.5292,3.5043,3.5216,3.5282,3.5033,3.5506,3.5867,3.5848,3.62,3.6393,3.6393,3.6393,3.6393,3.6393,3.6393,3.6393,3.6393,3.6393,3.6494,3.6708,3.6353,3.5949,3.5498,3.5401,3.5498,3.5735,3.6274,3.7186,3.838,3.9141,4.0436,4.2012,4.2196,4.2991,4.4068,4.3808,4.4515,4.5698,4.5696,4.6383,4.7309,4.7407,4.7783,4.8209,4.8194,4.827,4.8332,4.8332,4.8425,4.827,4.766,4.7567,4.7567,4.7567,4.7567,4.7567,4.7567,4.7412,4.7041,4.628,4.6231,4.5655,4.4345,4.4369,4.4402,4.4428,4.3698,4.33,4.33,4.33,4.33,4.33,4.33,4.33,4.33,4.33,4.2991,4.2426,4.1764,4.152,4.1501,4.086,4.0977,4.1646,4.2258,4.2476,4.2425,4.192,4.1744,4.1574,4.0446,4.0126,4.0363,4.1303,4.1656,4.1853,4.2333,4.287,4.317,4.2618,4.287,4.33,4.33,4.33,4.3021,4.1998,4.1742,4.1451,4.036,4.0128,4.0123,4.0074,3.9049,3.8192,3.8192,3.718,3.6205,3.5645,3.6043,3.6205,3.5645,3.6068,3.6393,3.6393,3.6393,3.6393,3.6393,3.6393,3.6393,3.6393,3.6393,3.6418,3.6468,3.6418,3.6695,3.7274,3.7223,3.6697,3.5745,3.6336,3.6924,3.7466,3.8013,3.891,4.0114,4.121,4.2099,4.2776,4.3274,4.4207,4.5231,4.4613,4.518,4.6287,4.6291,4.6715,4.7309,4.7328,4.7426,4.7512,4.7502,4.8166,4.8685,4.8685,4.9391,4.988,4.9735,4.9735,4.9735,4.9735,4.9735,4.9735,4.9735,4.8477,4.7154,4.5922,4.5634,4.5156,4.433,4.4818,4.5173,4.5402,4.4007,4.33,4.33,4.33,4.33,4.33,4.33,4.33,4.33,4.33,4.324,4.3051,4.2466,4.2472,4.2837,4.2213,4.2327,4.2892,4.3041,4.3091,4.3101,4.297,4.2941,4.2763,4.1609,4.1826,4.2456,4.1791,4.2218,4.2952,4.306,4.32,4.327,4.315,4.319,4.33,4.33,4.33,4.324,4.2981,4.2931,4.2746,4.2122,4.2009,4.1892,4.1483,4.0022,3.8881,3.8881,3.7482,3.6343,3.623,3.6318,3.6343,3.623,3.6318,3.6393,3.6393,3.6393,3.6393,3.6393,3.6393,3.6393,3.6393,3.6393,3.6594,3.7009,3.6619,3.6859,3.7814,3.7399,3.7299,3.7462,3.8065,3.844,3.8559,3.9228,4.0145,4.1256,4.2049,4.2963,4.3966,4.4599,4.5029,4.5303,4.5149,4.557,4.6298,4.6294,4.6715,4.7309,4.8022,4.8022,4.8177,4.8685,4.9224,4.9579,4.956,5.0047,5.0396,5.0396,5.0396,5.0396,5.0396,5.0396,5.0396,5.0396,4.8881,4.7792,4.7424,4.6931,4.6339,4.5718,4.6021,4.6122,4.5924,4.5101,4.4672,4.4668,4.4668,4.4668,4.4668,4.4217,4.4007,4.3997,4.3499,4.33,4.325,4.2674,4.2739,4.3252,4.2623,4.2773,4.33,4.33,4.33,4.33,4.33,4.33,4.32,4.2624,4.2823,4.319,4.2585,4.2833,4.33,4.33,4.33,4.33,4.33,4.33,4.33,4.33,4.33,4.33,4.33,4.3548,4.3698,4.3447,4.3675,4.381,4.3517,4.2263,4.0938,4.0044,3.8666,3.7383,3.6513,3.6393,3.6393,3.6393,3.6393,3.6502,3.6757,3.7276,3.7592,3.7592,3.7898,3.8066,3.8066,3.7505,3.7337,3.7634,3.6826,3.6783,3.7613,3.7585,3.8159,3.9331,3.936,3.9673,4.0282,4.1235,4.212,4.2908,4.3267,4.3931,4.4789,4.4796,4.5194,4.579,4.5787,4.5984,4.6334,4.6657,4.7012,4.7309,4.9079,4.9079,4.9367,5.0248,5.0549,5.0652,5.0651,5.0793,5.0927,5.0927,5.0927,5.0927,5.0927,5.0793,5.0677,5.0543,4.9093,4.8497,4.9158,4.8295,4.7554,4.7068,4.7128,4.6967,4.6456,4.6532,4.6469,4.62,4.62,4.62,4.6191,4.5408,4.4933,4.4758,4.3948,4.3449,4.328,4.2773,4.2833,4.325,4.2773,4.2842,4.33,4.33,4.33,4.33,4.33,4.33,4.33,4.33,4.33,4.33,4.33,4.33,4.33,4.33,4.33,4.33,4.33,4.33,4.33,4.33,4.33,4.3339,4.3449,4.3898,4.4318,4.444,4.4987,4.5504,4.5613,4.461,4.3191,4.1425,4.0076,3.8597,3.679,3.6619,3.6635,3.6558,3.6606,3.6851,3.7279,3.8387,3.9026,3.8908,3.9628,3.9996,3.9913,3.895,3.8455,3.8534,3.7418,3.7118,3.7765,3.8032,3.9089,4.0921,4.0654,4.1087,4.2197,4.3236,4.3992,4.4459,4.4348,4.4739,4.5425,4.4885,4.5359,4.6467,4.6482,4.6469,4.6537,4.7103,4.7309,4.7309,5.0183,5.0184,5.023,5.0373,5.1111,5.1697,5.1681,5.248,5.307,5.307,5.307,5.307,5.307,5.2472,5.1789,5.1136,4.958,4.868,4.8754,4.7311,4.6434,4.6344,4.6893,4.7272,4.7406,4.7981,4.7582,4.6205,4.6205,4.6205,4.6205,4.6066,4.5574,4.4808,4.4658,4.4107,4.329,4.32,4.324,4.329,4.32,4.324,4.33,4.33,4.33,4.33,4.33,4.33,4.33,4.33,4.33,4.33,4.33,4.33,4.33,4.33,4.33,4.33,4.33,4.33,4.33,4.33,4.33,4.3449,4.4017,4.4217,4.4469,4.5045,4.5692,4.634,4.6919,4.5603,4.401,4.2677,4.0968,3.9168,3.7357,3.75,3.7593,3.7154,3.7497,3.782,3.7888,3.9035,3.9529,3.8934,3.9994,4.0443,3.9913,3.976,3.9881,4.0326,3.9192,3.9071,4.0134,3.9227,3.9677,4.1492,4.2537,4.3353,4.4025,4.416,4.4558,4.5137,4.4539,4.4992,4.6169,4.6066,4.6486,4.7162,4.716,4.7167,4.7195,4.7258,4.7309,4.7309,5.1225,5.1244,5.143,5.2026,5.2514,5.2792,5.2792,5.3197,5.3509,5.3509,5.3509,5.3332,5.2885,5.1769,5.1282,5.1763,4.9997,4.9227,5.0041,4.8614,4.775,4.775,4.8063,4.8251,4.8383,4.8663,4.8474,4.775,4.775,4.775,4.775,4.7242,4.6747,4.6311,4.5279,4.4558,4.4107,4.3548,4.33,4.33,4.33,4.33,4.33,4.33,4.33,4.33,4.33,4.33,4.33,4.33,4.33,4.33,4.33,4.33,4.33,4.33,4.33,4.33,4.33,4.3558,4.3858,4.3858,4.4147,4.4508,4.4808,4.5141,4.5509,4.5781,4.6377,4.6948,4.7258,4.665,4.5599,4.4025,4.2458,4.082,3.8977,3.8291,3.8188,3.8647,3.9215,3.9828,4.055,4.1723,4.213,4.1453,4.2249,4.2489,4.1821,4.119,4.0954,4.1188,4.0074,3.9717,4.0202,4.0374,4.121,4.2741,4.3966,4.4689,4.4969,4.5677,4.5924,4.583,4.5548,4.5748,4.6309,4.6309,4.6486,4.6778,4.7137,4.7306,4.7309,4.7309,4.7309,4.7309]},{"header":{"parameterUnit":"m.s-1","parameterCategory":1,"la1":30.6,"la2":28.766,"lo1":-90.7593,"lo2":-88.6598,"dy":0.0162,"dx":0.0183,"nx":116,"ny":114,"refTime":"2023-09-18T00:00:00:Z","depth":0,"parameterNumber":3,"parameterNumberName":"V-component_of_WINDS"},"data":[0.0,0.0,0.0,0.0,0.0,0.0,0.0,0.0,0.0,0.0,0.0,0.0,0.0,0.0,0.0,0.0,0.0,0.0,0.0,0.0,0.0,0.0,0.0,0.0,0.0,0.0,0.0,0.0,0.0,0.0,0.0,0.0,0.0,0.0,0.0,0.0,0.0,0.0,0.0,0.0,0.0,0.0,0.0,0.0,0.0,0.0,0.0,0.0,0.0,0.0,0.0,0.0,0.0,0.0,0.0,0.0,0.0,0.0,0.0,0.0,0.0,0.0,0.0,0.0,0.0,0.0,0.0,0.0,0.0,0.0,0.0,0.0,0.0,0.0,0.0,0.0,0.0,0.0,0.0,0.0,0.0,0.0,0.0,0.0,0.0,0.0,0.0,0.0,0.0,0.0,0.0,0.0,0.0,0.0,0.0,0.0,0.0,0.0,0.0,0.0,0.0,0.0,0.0,0.0,0.0,0.0,0.0,0.0,0.0,0.0,0.0,0.0,0.0,0.0,0.0,0.0,0.0,0.0,0.0,0.0,0.0,0.0,0.0,0.0,0.0,0.0,0.0,0.0,0.0,0.0,0.0,0.0,0.0,0.0,0.0,0.0,0.0,0.0,0.0,0.0,0.0,0.0,0.0,0.0,0.0,0.0,0.0,0.0,0.0,0.0,0.0,0.0,0.0,0.0,0.0,0.0,0.0,0.0,0.0,0.0,0.0,0.0,0.0,0.0,0.0,0.0,0.0,0.0,0.0,0.0,0.0,0.0,0.0,0.0,0.0,0.0,0.0,0.0,0.0,0.0,0.0,0.0,0.0,0.0,0.0,0.0,0.0,0.0,0.0,0.0,0.0,0.0,0.0,0.0,0.0,0.0,0.0,0.0,0.0,0.0,0.0,0.0,0.0,0.0,0.0,0.0,0.0,0.0,0.0,0.0,0.0,0.0,0.0,0.0,0.0,0.0,0.0,0.0,0.0,0.0,0.0,0.0,0.0,0.0,0.0,0.0,0.0,0.0,0.0,0.0,0.0,0.0,0.0,0.0,0.0,0.0,0.0,0.0,0.0,0.0,0.0,0.0,0.0,0.0,0.0,0.0,0.0,0.0,0.0,0.0,0.0,0.0,0.0,0.0,0.0,0.0,0.0,0.0,0.0,0.0,0.0,0.0,0.0,0.0,0.0,0.0,0.0,0.0,0.0,0.0,0.0,0.0,0.0,0.0,0.0,0.0,0.0,0.0,0.0,0.0,0.0,0.0,0.0,0.0,0.0,0.0,0.0,0.0,0.0,0.0,0.0,0.0,0.0,0.0,0.0,0.0,0.0,0.0,0.0,0.0,0.0,0.0,0.0,0.0,0.0,0.0,0.0,0.0,0.0,0.0,0.0,0.0,0.0,0.0,0.0,0.0,0.0,0.0,0.0,0.0,0.0,0.0,0.0,0.0,0.0,0.0,0.0,0.0,0.0,0.0,0.0,0.0,0.0,0.0,0.0,0.0,0.0,0.0,0.0,0.0,0.0,0.0,0.0,0.0,0.0,0.0,0.0,0.0,0.0,0.0,0.0,0.0,0.0,0.0,0.0,0.0,0.0,0.0,0.0,0.0,0.0,0.0,0.0,0.0,0.0,0.0,0.0,0.0,0.0,0.0,0.0,0.0,0.0,0.0,0.0,0.0,0.0,0.0,0.0,0.0,0.0,0.0,0.0,0.0,0.0,0.0,0.0,0.0,0.0,0.0,0.0,0.0,0.0,0.0,0.0,0.0,0.0,0.0,0.0,0.0,0.0,0.0,0.0,0.0,0.0,0.0,0.0,0.0,0.0,0.0,0.0,0.0,0.0,0.0,0.0,0.0,0.0,0.0,0.0,0.0,0.0,0.0,0.0,0.0,0.0,0.0,0.0,0.0,0.0,0.0,0.0,0.0,0.0,0.0,0.0,0.0,0.0,0.0,0.0,0.0,0.0,0.0,0.0,0.0,0.0,0.0,0.0,0.0,0.0,0.0,0.0,0.0,0.0,0.0,0.0,0.0,0.0,0.0,0.0,0.0,0.0,0.0,0.0,0.0,0.0,0.0,0.0,0.0,0.0,0.0,0.0,0.0,0.0,0.0,0.0,0.0,0.0,0.0,0.0,0.0,0.0,0.0,0.0,0.0,0.0,0.0,0.0,0.0,0.0,0.0,0.0,0.0,0.0,0.0,0.0,0.0,0.0,0.0,0.0,0.0,0.0,0.0,0.0,0.0,0.0,0.0,0.0,0.0,0.0,0.0,0.0,0.0,0.0,0.0,0.0,0.0,0.0,0.0,0.0,0.0,0.0,0.0,0.0,0.0,0.0,0.0,0.0,0.0,0.0,0.0,0.0,0.0,0.0,0.0,0.0,0.0,0.0,0.0,0.0,0.0,0.0,0.0,0.0,0.0,0.0,0.0,0.0,0.0,0.0,0.0,0.0,0.0,0.0,0.0,0.0,0.0,0.0,0.0,0.0,0.0,0.0,0.0,0.0,0.0,0.0,0.0,0.0,0.0,0.0,0.0,0.0,0.0,0.0,0.0,0.0,0.0,0.0,0.0,0.0,0.0,0.0,0.0,0.0,0.0,0.0,0.0,0.0,0.0,0.0,0.0,0.0,0.0,0.0,0.0,0.0,0.0,0.0,0.0,0.0,0.0,0.0,0.0,0.0,0.0,0.0,0.0,0.0,0.0,0.0,0.0,0.0,0.0,0.0,0.0,0.0,0.0,0.0,0.0,0.0,0.0,0.0,0.0,0.0,0.0,0.0,0.0,0.0,0.0,0.0,0.0,0.0,0.0,0.0,0.0,0.0,0.0,0.0,0.0,0.0,0.0,0.0,0.0,0.0,0.0,0.0,0.0,0.0,0.0,0.0,0.0,0.0,0.0,0.0,0.0,0.0,0.0,0.0,0.0,0.0,0.0,0.0,0.0,0.0,0.0,0.0,0.0,0.0,0.0,0.0,0.0,0.0,0.0,0.0,0.0,0.0,0.0,0.0,0.0,0.0,0.0,0.0,0.0,0.0,0.0,0.0,0.0,0.0,0.0,0.0,0.0,0.0,0.0,0.0,0.0,0.0,0.0,0.0,0.0,0.0,0.0,0.0,0.0,0.0,0.0,0.0,0.0,0.0,0.0,0.0,0.0,0.0,0.0,0.0,0.0,0.0,0.0,0.0,0.0,0.0,0.0,0.0,0.0,0.0,0.0,0.0,0.0,0.0,0.0,0.0,0.0,0.0,0.0,0.0,0.0,0.0,0.0,0.0,0.0,0.0,0.0,0.0,0.0,0.0,0.0,0.0,0.0,0.0,0.0,0.0,0.0,0.0,0.0,0.0,0.0,0.0,0.0,0.0,0.0,0.0,0.0,0.0,0.0,0.0,0.0,0.0,0.0,0.0,0.0,0.0,0.0,0.0,0.0,0.0,0.0,0.0,0.0,0.0,0.0,0.0,0.0,0.0,0.0,0.0,0.0,0.0,0.0,0.0,0.0,0.0,0.0,0.0,0.0,0.0,0.0,0.0,0.0,0.0,0.0,0.0,0.0,0.0,0.0,0.0,0.0,0.0,0.0,0.0,0.0,0.0,0.0,0.0,0.0,0.0,0.0,0.0,0.0,0.0,0.0,0.0,0.0,0.0,0.0,0.0,0.0,0.0,0.0,0.0,0.0,0.0,0.0,0.0,0.0,0.0,0.0,0.0,0.0,0.0,0.0,0.0,0.0,0.0,0.0,0.0,0.0,0.0,0.0,0.0,0.0,0.0,0.0,0.0,0.0,0.0,0.0,0.0,0.0,0.0,0.0,0.0,0.0,0.0,0.0,0.0,0.0,0.0,0.0,0.0,0.0,0.0,0.0,0.0,0.0,0.0,0.0,0.0,0.0,0.0,0.0,0.0,0.0,0.0,0.0,0.0,0.0,0.0,0.0,0.0,0.0,0.0,0.0,0.0,0.0,0.0,0.0,0.0,0.0,0.0,0.0,0.0,0.0,0.0,0.0,0.0,0.0,0.0,0.0,0.0,0.0,0.0,0.0,0.0,0.0,0.0,0.0,0.0,0.0,0.0,0.0,0.0,0.0,0.0,0.0,0.0,0.0,0.0,0.0,0.0,0.0,0.0,0.0,0.0,0.0,0.0,0.0,0.0,0.0,0.0,0.0,0.0,0.0,0.0,0.0,0.0,0.0,0.0,0.0,0.0,0.0,0.0,0.0,0.0,0.0,0.0,0.0,0.0,0.0,0.0,0.0,0.0,0.0,0.0,0.0,0.0,0.0,0.0,0.0,0.0,0.0,0.0,0.0,0.0,0.0,0.0,0.0,0.0,0.0,0.0,0.0,0.0,0.0,0.0,0.0,0.0,0.0,0.0,0.0,0.0,0.0,0.0,0.0,0.0,0.0,0.0,0.0,0.0,0.0,0.0,0.0,0.0,0.0,0.0,0.0,0.0,0.0,0.0,0.0,0.0,0.0,0.0,0.0,0.0,0.0,0.0,0.0,0.0,0.0,0.0,0.0,0.0,0.0,0.0,0.0,0.0,0.0,0.0,0.0,0.0,0.0,0.0,0.0,0.0,0.0,0.0,0.0,0.0,0.0,0.0,0.0,0.0,0.0,0.0,0.0,0.0,0.0,0.0,0.0,0.0,0.0,0.0,0.0,0.0,0.0,0.0,0.0,0.0,0.0,0.0,0.0,0.0,0.0,0.0,0.0,0.0,0.0,0.0,0.0,0.0,0.0,0.0,0.0,0.0,0.0,0.0,0.0,0.0,0.0,0.0,0.0,0.0,0.0,0.0,0.0,0.0,0.0,0.0,0.0,0.0,0.0,0.0,0.0,0.0,0.0,0.0,0.0,0.0,0.0,0.0,0.0,0.0,0.0,0.0,0.0,0.0,0.0,0.0,0.0,0.0,0.0,0.0,0.0,0.0,0.0,0.0,0.0,0.0,0.0,0.0,0.0,0.0,0.0,0.0,0.0,0.0,0.0,0.0,0.0,0.0,0.0,0.0,0.0,0.0,0.0,0.0,0.0,0.0,0.0,0.0,0.0,0.0,0.0,0.0,0.0,0.0,0.0,0.0,0.0,0.0,0.0,0.0,0.0,0.0,0.0,0.0,0.0,0.0,0.0,0.0,0.0,0.0,0.0,0.0,0.0,0.0,0.0,0.0,0.0,0.0,0.0,0.0,0.0,0.0,0.0,0.0,0.0,0.0,0.0,0.0,0.0,0.0,0.0,0.0,0.0,0.0,0.0,0.0,0.0,0.0,0.0,0.0,0.0,0.0,0.0,0.0,0.0,0.0,0.0,0.0,0.0,0.0,0.0,0.0,0.0,0.0,0.0,0.0,0.0,0.0,0.0,0.0,0.0,0.0,0.0,0.0,0.0,0.0,0.0,0.0,0.0,0.0,0.0,0.0,0.0,0.0,0.0,0.0,0.0,0.0,0.0,0.0,0.0,0.0,0.0,0.0,0.0,0.0,0.0,0.0,0.0,0.0,0.0,0.0,0.0,0.0,0.0,0.0,0.0,0.0,0.0,0.0,0.0,0.0,0.0,0.0,0.0,0.0,0.0,0.0,0.0,0.0,0.0,0.0,0.0,0.0,0.0,0.0,0.0,0.0,0.0,0.0,0.0,0.0,0.0,0.0,0.0,0.0,0.0,0.0,0.0,0.0,0.0,0.0,0.0,0.0,0.0,0.0,0.0,0.0,0.0,0.0,0.0,0.0,0.0,0.0,0.0,0.0,0.0,0.0,0.0,0.0,0.0,0.0,0.0,0.0,0.0,0.0,0.0,0.0,0.0,0.0,0.0,0.0,0.0,0.0,0.0,0.0,0.0,0.0,0.0,0.0,0.0,0.0,0.0,0.0,0.0,0.0,0.0,0.0,0.0,0.0,0.0,0.0,0.0,0.0,0.0,0.0,0.0,0.0,0.0,0.0,0.0,0.0,0.0,0.0,0.0,0.0,0.0,0.0,0.0,0.0,0.0,0.0,0.0,0.0,0.0,0.0,0.0,0.0,0.0,0.0,0.0,0.0,0.0,0.0,0.0,0.0,0.0,0.0,0.0,0.0,0.0,0.0,0.0,0.0,0.0,0.0,0.0,0.0,0.0,0.0,0.0,1.1372,0.0,0.0,0.0,0.0,0.0,0.0,0.0,0.0,0.0,0.0,0.0,0.0,0.0,0.0,0.0,0.0,0.0,0.0,0.0,0.0,0.0,0.0,0.0,0.0,0.0,0.0,0.0,0.0,0.0,0.0,0.0,0.0,0.0,0.0,0.0,0.0,0.0,0.0,0.0,0.0,0.0,0.0,0.0,0.0,0.0,0.0,0.0,0.0,0.0,0.0,0.0,0.0,0.0,0.0,0.0,0.0,0.0,0.0,0.0,0.0,0.0,0.0,0.0,0.0,0.0,0.0,0.0,0.0,0.0,0.0,0.0,0.0,0.0,0.0,0.0,0.0,0.0,0.0,0.0,0.0,0.0,0.0,0.0,0.0,0.0,0.0,0.0,0.0,0.0,0.0,0.0,0.0,0.0,0.0,0.0,0.0,0.0,0.0,0.0,0.0,0.0,0.0,0.0,0.0,0.0,0.0,0.0,0.0,0.0,0.0,0.0,0.0,0.0,0.0,0.0,0.0,1.2472,0.0,0.0,0.0,0.0,0.0,0.0,0.0,0.0,0.0,0.0,0.0,0.0,0.0,0.0,0.0,0.0,0.0,0.0,0.0,0.0,0.0,0.0,0.0,0.0,0.0,0.0,0.0,0.0,0.0,0.0,0.0,0.0,0.0,0.0,0.0,0.0,0.0,0.0,0.0,0.0,0.0,0.0,0.0,0.0,0.0,0.0,0.0,0.0,0.0,0.0,0.0,0.0,0.0,0.0,0.0,0.0,0.0,0.0,0.0,0.0,0.0,0.0,0.0,0.0,0.0,0.0,0.0,0.0,0.0,0.0,0.0,0.0,0.0,0.0,0.0,0.0,0.0,0.0,0.0,0.0,0.0,0.0,0.0,0.0,0.0,0.0,0.0,0.0,0.0,0.0,0.0,0.0,0.0,0.0,0.0,0.0,0.0,0.0,0.0,0.0,0.0,0.0,0.0,0.0,0.0,0.0,0.0,0.0,1.5747,1.5833,1.8006,1.8163,1.8416,1.8569,1.5909,1.44,1.3791,1.3701,0.0,0.0,0.0,0.0,0.0,0.0,0.0,0.0,0.0,0.0,0.0,0.0,0.0,0.0,0.0,0.0,0.0,0.0,0.0,0.0,0.0,0.0,0.0,0.0,0.0,0.0,0.0,0.0,0.0,0.0,0.0,0.0,0.0,0.0,0.0,0.0,0.0,0.0,1.6001,1.6764,1.7199,1.7193,0.0,0.0,0.0,0.0,0.0,0.0,0.0,0.0,0.0,0.0,0.0,0.0,0.0,0.0,0.0,0.0,0.0,0.0,0.0,0.0,0.0,0.0,0.0,0.0,0.0,0.0,0.0,0.0,0.0,0.0,0.0,0.0,0.0,0.0,0.0,0.0,0.0,0.0,0.0,0.0,0.0,0.0,0.0,0.0,1.5941,1.5628,0.0,0.0,0.0,0.0,0.0,0.0,0.0,0.0,0.0,0.0,0.0,0.0,0.0,1.482,1.2473,1.384,1.5696,1.8032,2.0546,2.0448,1.8036,1.8771,1.9155,1.9172,1.8764,0.0,1.6378,1.4004,0.0,0.0,0.0,0.0,0.0,0.0,0.0,0.0,0.0,0.0,0.0,0.0,0.0,0.0,0.0,0.0,0.0,0.0,0.0,0.0,0.0,0.0,0.0,0.0,0.0,0.0,0.0,0.0,0.0,0.0,0.0,0.0,0.0,0.0,0.0,0.0,1.5486,1.6663,1.7884,1.8851,1.9383,1.9522,1.851,1.7572,1.6704,1.5966,0.0,0.0,0.0,0.0,0.0,0.0,0.0,0.0,0.0,0.0,0.0,0.0,0.0,0.0,0.0,0.0,0.0,0.0,0.0,0.0,0.0,0.0,0.0,0.0,0.0,0.0,0.0,0.0,0.0,0.0,0.0,0.0,0.0,0.0,0.0,0.0,0.0,0.0,0.0,1.6818,1.8384,1.8723,1.8121,1.7715,0.0,0.0,0.0,0.0,0.0,0.0,0.0,0.0,0.0,1.8232,1.8194,1.8332,1.8672,1.9371,2.0117,2.0883,2.2379,2.2318,2.0878,2.1263,2.1443,2.1448,2.1448,2.1077,2.0233,1.7061,1.5787,1.586,0.0,0.0,0.0,0.0,1.4941,1.5753,0.0,0.0,0.0,0.0,0.0,0.0,0.0,0.0,0.0,0.0,0.0,0.0,0.0,0.0,0.0,1.5105,0.0,0.0,0.0,0.0,0.0,0.0,0.0,0.0,0.0,0.0,0.0,0.0,1.8267,1.9217,2.0079,2.108,2.1622,2.174,2.174,2.0401,1.8083,1.7353,1.6657,0.0,0.0,0.0,0.0,0.0,0.0,0.0,0.0,0.0,0.0,0.0,0.0,0.0,0.0,0.0,0.0,0.0,0.0,0.0,0.0,0.0,0.0,0.0,0.0,0.0,0.0,0.0,0.0,0.0,0.0,0.0,0.0,0.0,0.0,0.0,0.0,0.0,0.0,1.9037,2.0811,2.0841,2.0548,2.0004,0.0,0.0,0.0,0.0,0.0,0.0,1.9095,1.9948,2.053,2.0757,2.0246,2.0957,2.3083,2.3542,2.3986,2.4424,2.3985,2.399,2.4419,2.3961,2.3765,2.3775,2.3775,2.3775,2.3529,2.0546,1.8291,1.677,1.7174,1.6845,1.6094,1.58,1.6759,1.8273,0.0,0.0,0.0,0.0,0.0,0.0,0.0,0.0,0.0,0.0,0.0,0.0,0.0,0.0,1.58,1.7911,1.672,1.6468,0.0,0.0,0.0,0.0,0.0,0.0,0.0,0.0,0.0,1.9615,2.0268,2.1379,2.292,2.3544,2.4104,2.4583,2.4583,2.3924,2.258,1.9976,1.9125,1.9336,0.0,0.0,0.0,0.0,0.0,0.0,0.0,0.0,0.0,0.0,0.0,0.0,0.0,0.0,0.0,0.0,0.0,0.0,0.0,0.0,0.0,0.0,0.0,0.0,0.0,0.0,0.0,0.0,0.0,0.0,0.0,0.0,0.0,0.0,0.0,0.0,0.0,0.0,0.0,2.0952,2.2783,0.0,0.0,0.0,0.0,2.0333,2.1343,2.2001,2.2162,2.4183,2.482,2.3715,2.2432,2.2201,2.3085,2.4751,2.6402,2.8028,2.637,2.6446,2.7979,2.6328,2.5571,2.5574,2.5574,2.5571,2.5435,2.3599,2.186,2.0178,1.8581,1.7924,1.7871,1.7852,1.8958,2.045,0.0,0.0,0.0,0.0,0.0,0.0,0.0,0.0,0.0,0.0,0.0,0.0,0.0,1.703,1.8528,2.0696,2.0044,1.9597,1.9792,0.0,0.0,0.0,0.0,0.0,0.0,0.0,1.9115,2.1411,2.2691,2.3803,2.4724,2.567,2.6222,2.6449,2.7043,2.6745,2.5611,2.2819,2.0929,1.9711,1.8536,1.7152,0.0,0.0,0.0,0.0,0.0,0.0,0.0,0.0,0.0,0.0,0.0,0.0,0.0,0.0,0.0,0.0,0.0,0.0,0.0,0.0,0.0,0.0,0.0,0.0,0.0,0.0,0.0,0.0,0.0,0.0,0.0,0.0,0.0,0.0,0.0,0.0,0.0,2.4683,2.6384,0.0,2.491,2.3872,2.3616,2.4272,2.5008,2.5681,2.6295,2.7334,2.7558,2.6827,2.6914,2.6285,2.478,2.9984,3.1144,2.829,2.768,2.9538,3.3502,3.2873,3.2579,3.258,3.2582,3.2594,3.2169,2.6934,2.3763,2.2147,2.1525,2.0612,1.9664,1.9674,2.0065,2.0668,0.0,0.0,0.0,0.0,0.0,0.0,0.0,0.0,0.0,0.0,0.0,1.5151,1.8147,1.9759,2.1534,2.3796,2.3081,2.2293,2.1759,0.0,0.0,0.0,0.0,0.0,0.0,1.9923,2.1494,2.358,2.5371,2.6392,2.6661,2.7945,2.8543,2.8578,2.9196,2.9128,2.8421,2.6558,2.4001,2.1142,2.0199,1.9268,1.817,0.0,0.0,0.0,0.0,0.0,0.0,0.0,0.0,0.0,0.0,0.0,0.0,0.0,0.0,0.0,0.0,0.0,0.0,0.0,0.0,0.0,0.0,0.0,0.0,0.0,0.0,0.0,0.0,0.0,0.0,0.0,0.0,0.0,0.0,0.0,2.7875,2.806,2.9892,3.0487,2.8835,2.8404,2.8166,2.8095,2.968,3.0617,3.053,3.136,3.1425,3.0547,3.149,3.1519,3.0421,3.5133,3.5694,3.2136,3.1397,3.2916,3.643,3.7168,3.7117,3.6406,3.6411,3.6399,3.6024,3.1271,2.8637,2.7348,2.4932,2.3295,2.2331,2.2329,2.2333,2.2372,0.0,0.0,0.0,0.0,0.0,0.0,0.0,0.0,0.0,0.0,1.3815,1.6499,2.0098,2.2439,2.4743,2.7157,2.5633,2.4296,2.3732,2.0317,0.0,0.0,0.0,0.0,2.0307,2.2557,2.4534,2.6213,2.8201,2.9064,2.8838,3.0342,3.1046,3.1046,3.1079,3.1071,3.1046,3.1079,2.8452,2.4123,2.2369,2.193,2.2017,0.0,0.0,0.0,0.0,0.0,0.0,0.0,0.0,0.0,0.0,0.0,0.0,0.0,0.0,0.0,0.0,0.0,0.0,0.0,0.0,0.0,0.0,0.0,0.0,0.0,0.0,0.0,0.0,0.0,0.0,0.0,0.0,0.0,2.4473,2.8523,3.1311,3.0849,3.3147,3.378,3.1252,3.2363,3.2774,3.1661,3.5265,3.6676,3.4702,3.6257,3.6488,3.4872,3.588,3.7493,3.9678,3.9702,3.9702,3.9664,3.7529,3.6485,3.6473,3.8681,3.8485,3.6415,3.6389,3.6386,3.6404,3.6404,3.6394,3.5693,2.8557,2.5773,2.5774,2.5774,2.5774,2.5715,0.0,0.0,0.0,0.0,0.0,0.0,0.0,0.0,0.0,0.0,1.6063,1.9422,2.2445,2.5256,2.7558,2.9125,2.6733,2.473,2.3696,0.0,0.0,0.0,0.0,0.0,2.3326,2.5203,2.7081,2.9009,3.0381,3.1029,3.0964,3.1776,3.2148,3.2183,3.2877,3.2808,3.2201,3.2996,3.2193,3.0113,2.685,2.4469,2.271,0.0,0.0,0.0,0.0,0.0,0.0,0.0,0.0,0.0,0.0,0.0,0.0,0.0,0.0,0.0,0.0,0.0,0.0,0.0,0.0,0.0,0.0,0.0,0.0,0.0,0.0,0.0,0.0,0.0,0.0,0.0,0.0,2.7974,2.7921,3.0972,3.3607,3.4673,3.5817,3.6238,3.5516,3.5814,3.5943,3.5634,3.7018,3.7614,3.7084,3.7517,3.7689,3.7541,3.7556,3.8241,3.9688,3.9702,3.969,3.969,3.9081,3.7954,3.6466,3.8687,3.8493,3.6383,3.639,3.6406,3.6396,3.6396,3.6395,3.5807,2.9896,2.759,2.7582,2.7582,2.7582,2.7688,0.0,0.0,0.0,0.0,0.0,0.0,0.0,0.0,0.0,0.0,1.7158,2.086,2.3536,2.6482,2.8709,2.9741,2.7432,2.5268,2.378,0.0,0.0,0.0,0.0,2.3219,2.6655,2.817,2.9597,3.0966,3.2278,3.273,3.2393,3.336,3.3819,3.3845,3.467,3.4736,3.4289,3.5172,3.5157,3.4378,3.2133,2.9499,2.6693,2.4655,2.3599,2.3079,2.2026,2.1599,2.129,1.9882,0.0,0.0,0.0,0.0,0.0,0.0,0.0,0.0,0.0,0.0,0.0,0.0,0.0,0.0,0.0,0.0,0.0,0.0,0.0,0.0,0.0,0.0,0.0,0.0,3.025,3.2523,3.3223,3.4655,3.6232,3.7927,3.8592,3.8843,3.8592,3.8592,3.8592,3.8592,3.8856,3.9057,3.9057,3.9057,3.9045,3.907,3.883,3.9018,3.9677,3.9715,3.9715,3.9689,3.9688,3.9032,3.7821,3.9093,3.899,3.7742,3.6788,3.6405,3.6413,3.6413,3.6392,0.0,0.0,0.0,0.0,0.0,3.1679,3.1545,0.0,0.0,0.0,0.0,0.0,0.0,0.0,0.0,0.0,0.0,0.0,2.1328,2.3715,2.6646,2.8781,2.9613,2.7665,2.5573,0.0,0.0,0.0,2.2432,2.465,2.7146,2.993,3.1111,3.1969,3.2564,3.3931,3.4257,3.3595,3.4984,3.5639,3.575,3.6425,3.6695,3.6755,3.7464,3.7606,3.7382,3.732,3.533,3.2066,2.9182,2.8149,2.8097,2.6624,2.541,2.4309,2.2623,0.0,0.0,0.0,0.0,0.0,0.0,0.0,0.0,0.0,0.0,0.0,0.0,0.0,0.0,0.0,0.0,0.0,0.0,0.0,0.0,0.0,0.0,0.0,0.0,3.4518,3.7373,3.912,3.8944,3.9132,4.0437,4.1026,4.1113,4.0638,4.0588,4.0588,4.0588,4.0588,4.0588,4.0588,0.0,0.0,0.0,0.0,3.9697,3.9697,3.9697,3.9697,3.971,3.9702,3.9715,3.9698,3.9701,3.9699,3.9588,3.763,3.6764,3.6776,3.6776,3.6776,3.6751,3.6518,3.3465,2.9799,3.4612,3.6392,3.5854,0.0,0.0,0.0,0.0,0.0,0.0,0.0,0.0,0.0,1.4361,1.8461,2.1857,2.365,2.6656,2.9028,3.0209,2.7086,2.4189,0.0,0.0,2.2272,2.467,2.7195,2.9587,3.1824,3.2938,3.3956,3.4866,3.5169,3.5506,3.5881,3.6179,3.6567,3.7067,3.7742,3.8042,3.8101,3.932,3.9787,3.9715,3.9402,3.701,3.3569,3.2958,3.1364,2.9437,2.9111,2.8539,2.7759,2.6569,2.5429,2.4248,2.2502,0.0,0.0,0.0,0.0,0.0,0.0,0.0,0.0,0.0,0.0,0.0,0.0,0.0,0.0,0.0,0.0,0.0,0.0,0.0,0.0,3.4805,3.7439,3.9785,4.1909,4.2498,4.2295,4.1277,4.1239,4.1264,4.1177,4.1138,4.1138,4.1138,4.1138,4.1138,4.1138,4.0738,4.0462,4.0337,3.9923,3.9697,3.9697,3.9697,3.9697,3.9697,0.0,0.0,3.971,3.9713,3.9702,3.9689,3.9247,3.9056,3.905,3.905,3.905,3.8888,3.7097,3.5751,3.4964,3.6001,3.6395,3.6284,0.0,0.0,0.0,0.0,0.0,0.0,0.0,0.0,0.0,0.0,1.8186,2.1235,2.2323,2.4922,2.6617,2.6697,2.403,0.0,0.0,2.313,2.4886,2.8346,3.0279,3.2117,3.3924,3.4491,3.5165,3.5998,3.5998,3.6335,3.6956,3.6956,3.7285,3.7943,3.8593,3.908,3.9478,4.0466,4.1094,4.1395,4.1174,3.9781,3.768,3.6535,3.4702,3.2672,3.2408,3.1387,2.9945,2.8565,2.7687,2.6863,2.4962,2.3111,2.1409,0.0,0.0,0.0,0.0,0.0,0.0,0.0,0.0,0.0,0.0,0.0,0.0,0.0,0.0,2.8862,3.1143,0.0,3.5819,3.8429,4.0475,4.2233,4.3614,4.4027,4.3901,4.3059,4.2958,4.2733,4.2194,4.2144,4.2144,4.2144,4.2144,4.2144,4.2144,4.1907,4.1401,4.0679,4.0018,3.9869,4.0267,4.0267,4.0332,4.0474,3.9971,3.9714,3.9689,3.971,3.9692,3.9685,3.9701,3.969,3.9689,3.9689,3.9689,3.9588,3.8479,3.7369,3.6405,3.6407,3.6407,3.6382,0.0,0.0,0.0,0.0,0.0,0.0,0.0,0.0,0.0,0.0,0.0,2.0083,2.0662,2.2717,2.3551,0.0,0.0,0.0,0.0,2.5391,2.7961,3.1926,3.3328,3.4605,3.5824,3.587,3.6118,3.6665,3.6823,3.7165,3.7785,3.7934,3.8332,3.8999,3.9679,4.0268,4.0825,4.1484,4.2082,4.258,4.258,4.2317,4.1738,3.9885,3.7983,3.6172,3.5498,3.3743,3.1523,3.0002,2.9243,2.8596,2.6808,2.568,2.4695,2.2871,2.1745,0.0,0.0,0.0,0.0,0.0,0.0,0.0,0.0,2.6315,2.7271,2.9166,3.1135,3.3299,3.5842,3.8223,4.0325,4.1935,4.3771,4.503,4.5186,4.5529,4.5526,4.4852,4.4665,4.4252,4.3402,4.3302,4.3277,4.3151,4.3198,4.3156,4.3017,4.2997,4.2465,4.1273,4.0436,4.0297,4.0891,4.0895,4.1025,4.1295,4.0218,3.969,3.9703,4.0164,4.0122,3.9702,3.969,3.9696,3.9697,3.9708,3.9696,3.9698,3.9689,3.8617,3.7034,3.7035,3.7035,3.7035,0.0,0.0,0.0,0.0,0.0,0.0,0.0,0.0,0.0,0.0,0.0,0.0,0.0,0.0,0.0,0.0,0.0,0.0,2.4421,2.737,3.0498,3.3769,3.5841,3.7012,3.7186,3.7186,3.7216,3.7306,3.7892,3.8542,3.9182,3.9789,4.0427,4.1104,4.1772,4.2111,4.2221,4.2841,4.313,4.321,4.321,4.317,4.3081,4.2842,4.1013,3.845,3.726,3.5183,3.2868,3.1947,3.0415,2.8847,2.8596,2.7807,2.6539,2.4177,0.0,2.1611,2.035,2.0663,2.1897,2.4081,2.5236,2.6583,0.0,3.072,3.1787,3.3038,3.4663,3.6538,3.8806,4.1337,4.3597,4.5217,4.7581,4.8775,4.7527,4.8885,4.8865,4.5775,4.4945,4.4539,4.4428,4.4428,4.4227,4.374,4.3869,4.37,4.3028,4.2997,4.2925,4.2772,4.1686,4.1148,4.1243,4.1252,4.1252,4.1295,4.0209,3.969,3.9779,4.1735,4.1563,3.9714,3.9704,3.9713,3.9709,3.9686,3.9688,3.971,3.9698,3.9546,3.9345,3.932,3.9339,3.9328,0.0,0.0,0.0,0.0,0.0,0.0,0.0,0.0,0.0,0.0,0.0,0.0,0.0,0.0,0.0,0.0,0.0,0.0,2.5833,2.9262,3.2822,3.6481,3.7501,3.7973,3.7973,3.8353,3.8554,3.8554,3.923,3.9918,4.0576,4.0855,4.1343,4.1982,4.2261,4.282,4.3509,4.3758,4.4117,4.4456,4.4456,4.4247,4.3848,4.3449,4.1844,3.9565,3.7632,3.5538,0.0,0.0,3.0232,2.9923,2.9148,2.8596,2.7908,2.6277,2.5464,0.0,2.3732,2.4378,2.565,2.6725,2.8334,3.0201,3.2479,3.4085,3.578,3.8078,4.0137,4.2291,4.4768,4.6338,4.7606,0.0,4.9694,5.0147,4.9537,4.983,4.9296,4.7096,4.5959,4.5016,4.4213,4.4428,4.4435,4.4019,4.4465,4.4788,4.4917,4.4936,4.4321,4.3048,4.2535,4.2291,4.2301,4.3576,4.3562,4.2287,4.1825,4.1617,4.1659,4.2583,4.1793,3.9694,3.9694,4.0436,4.1519,4.0215,3.97,3.9697,3.9696,3.9687,3.9702,3.9689,3.969,3.969,0.0,0.0,0.0,0.0,0.0,0.0,0.0,0.0,0.0,0.0,0.0,0.0,0.0,0.0,0.0,0.0,0.0,0.0,0.0,3.026,3.4058,3.7947,3.867,3.8939,3.8939,3.9619,3.9939,3.9939,4.0606,4.1194,4.1682,4.1843,4.2292,4.293,4.293,4.3549,4.4576,4.4576,4.4855,4.5274,4.5095,4.4606,4.3908,4.2891,4.1276,3.9319,3.7405,3.5351,0.0,0.0,2.9416,2.9583,2.8739,2.8455,2.8314,2.7537,2.7194,2.6944,2.6365,2.7369,2.874,2.9457,3.1807,3.444,3.6262,3.818,4.0353,4.3098,4.4589,4.6102,4.8483,4.983,5.074,5.1177,5.163,5.178,5.1386,5.0942,4.9909,4.7833,4.6514,4.5154,4.3539,4.4126,4.4446,4.4051,4.4934,4.5587,4.5822,4.6127,4.5559,4.3956,4.3915,4.3915,4.3902,4.5497,4.5497,4.3902,4.329,4.2995,4.301,4.3011,4.2135,4.06,4.0618,4.1513,4.2888,4.1256,4.0605,4.0613,4.0616,4.0247,3.9696,3.9701,3.9695,3.9685,0.0,0.0,0.0,0.0,0.0,0.0,0.0,0.0,0.0,0.0,0.0,0.0,0.0,0.0,0.0,0.0,0.0,0.0,0.0,2.991,3.3763,3.7272,3.929,4.0337,4.0337,4.1005,4.1343,4.1343,4.2012,4.2351,4.2381,4.296,4.3609,4.4247,4.4247,4.4606,4.5274,4.5274,4.5274,4.5255,4.4576,4.3938,4.312,4.1225,3.9251,3.7387,3.6751,0.0,0.0,0.0,2.8031,2.688,2.7238,2.7361,0.0,2.7311,2.6918,2.6616,2.7125,2.8473,3.0256,3.243,3.5703,3.8994,4.1184,4.3669,4.6033,4.7756,4.6915,4.635,4.7947,5.046,5.2279,5.2173,5.3788,5.4547,5.3121,5.3015,5.1573,4.7508,4.614,4.4678,0.0,4.3708,4.4378,4.3851,4.5332,4.5784,4.4704,4.5691,4.6273,4.6203,4.6196,4.621,4.6193,4.6265,4.6265,4.6178,4.4044,4.2995,4.2995,4.3,4.2955,4.2913,4.2885,4.2943,4.2979,4.2936,4.2887,4.2901,4.2915,4.1603,3.9694,3.9707,3.97,3.9697,0.0,0.0,0.0,0.0,0.0,0.0,0.0,0.0,0.0,0.0,0.0,0.0,0.0,0.0,0.0,0.0,0.0,0.0,0.0,2.9107,3.3035,3.6011,3.8871,4.0688,4.1312,4.2858,4.3735,4.3925,4.4598,4.4933,4.4915,4.4491,4.4639,4.5203,4.4579,4.4935,4.5942,4.5942,4.6221,4.6501,4.4935,4.3918,4.306,4.0157,3.7285,3.4574,0.0,0.0,0.0,2.7884,2.67,2.6162,2.6172,2.6457,2.6918,2.7629,2.8232,2.8969,3.0206,3.3034,3.6076,3.7928,4.1249,4.463,4.689,4.8389,4.9807,5.1534,5.1395,5.0621,4.9536,5.106,5.2419,5.2238,5.3142,5.3863,5.3786,5.3441,5.1875,4.8284,4.7218,0.0,0.0,0.0,0.0,4.3962,4.4971,4.5612,4.5716,4.6082,4.63,4.63,4.6296,4.6296,4.63,4.6296,4.6296,4.6275,4.4777,4.3701,4.2995,4.301,4.3801,4.5119,4.3635,4.3,4.3017,4.2982,4.301,4.2994,4.301,4.2554,4.1886,4.1893,4.0959,3.9712,0.0,0.0,0.0,0.0,0.0,0.0,0.0,0.0,0.0,0.0,0.0,0.0,0.0,0.0,0.0,0.0,0.0,0.0,0.0,0.0,3.0598,3.3275,3.6045,3.7892,3.8727,4.0434,4.1658,4.2387,4.3057,4.3679,4.4199,4.3577,4.3747,4.4529,4.3642,4.4007,4.5254,4.5254,4.5074,4.4676,4.2901,4.1384,3.9867,3.6755,3.3839,0.0,0.0,0.0,0.0,2.5647,2.5261,2.5336,2.531,2.6113,2.7286,2.8382,3.0158,3.227,3.4519,3.7977,4.1424,4.3549,4.6792,4.9867,5.1253,5.2453,5.3514,5.4495,5.4391,5.2915,4.8968,4.7618,4.7744,4.9675,5.082,5.2019,5.3623,5.2677,5.1181,4.9523,4.7984,4.6524,0.0,0.0,0.0,4.4032,4.4788,4.5342,4.5676,4.6079,4.6286,4.6286,4.6315,4.6677,4.7469,4.6692,4.6285,4.629,4.5345,4.4448,4.3576,4.3158,4.3776,4.5051,4.3624,4.3003,4.3014,4.3014,4.3014,4.3003,4.2985,4.2992,4.2996,4.3012,4.2094,4.0765,0.0,0.0,0.0,0.0,0.0,0.0,0.0,0.0,0.0,0.0,0.0,0.0,0.0,0.0,0.0,0.0,0.0,0.0,0.0,0.0,0.0,2.9219,3.1154,3.247,3.3164,3.4302,3.5656,3.721,3.7903,3.8961,4.0324,4.0298,4.0955,4.2092,4.1356,4.1762,4.298,4.2921,4.1844,4.0038,3.864,3.6613,3.4099,3.1391,0.0,0.0,0.0,0.0,0.0,2.3422,2.3869,2.4491,2.4927,2.6551,2.8584,2.9881,3.2829,3.6443,3.9842,4.3109,4.6227,4.9022,5.2157,5.4501,5.438,5.5834,5.7015,5.6347,5.5404,5.2655,4.6013,4.0861,3.9463,4.5051,4.7373,4.9595,5.2839,5.1163,5.0014,0.0,0.0,0.0,0.0,0.0,0.0,4.4415,0.0,4.5053,4.4725,4.5704,4.6296,4.6296,4.6296,4.7312,4.9418,4.7358,4.63,4.6294,4.5771,4.5221,4.46,4.3635,4.3124,4.2995,4.301,4.2995,4.3014,4.3014,4.3014,4.3014,4.3014,4.3014,4.3009,4.2992,4.2926,4.2534,0.0,0.0,0.0,0.0,0.0,0.0,0.0,0.0,0.0,0.0,0.0,0.0,0.0,0.0,0.0,0.0,0.0,0.0,0.0,0.0,0.0,0.0,0.0,0.0,0.0,0.0,0.0,0.0,0.0,3.6296,3.6652,3.645,3.6525,3.683,3.6425,3.6733,3.7524,3.7486,3.7216,3.6596,0.0,3.3596,3.2684,0.0,0.0,0.0,0.0,0.0,0.0,2.3737,2.4909,2.6245,2.8027,2.9873,3.2031,3.5452,3.8645,4.1812,4.4991,4.8836,5.2348,5.3966,5.6162,5.7878,5.7838,5.8207,5.7448,5.338,5.0034,4.5804,3.9227,3.9537,4.186,4.4962,4.8275,5.1468,5.4294,5.4114,5.3276,5.2097,5.2114,5.1636,5.0117,4.9614,0.0,0.0,4.6507,4.5564,4.5849,4.6148,4.6297,4.6297,4.6297,4.6571,4.7136,4.6577,4.6306,4.628,4.6155,4.5729,4.5053,4.5337,4.4547,4.301,4.3001,4.3006,4.3014,4.3014,4.3014,4.3014,4.3014,4.3014,4.3003,4.3005,4.1966,4.0477,0.0,0.0,0.0,0.0,0.0,0.0,0.0,0.0,0.0,0.0,0.0,0.0,0.0,0.0,0.0,0.0,0.0,0.0,0.0,0.0,0.0,0.0,0.0,0.0,0.0,0.0,0.0,0.0,0.0,0.0,0.0,3.226,3.2337,3.2603,3.2127,3.2265,3.2976,3.3932,0.0,0.0,0.0,0.0,0.0,0.0,0.0,0.0,0.0,0.0,0.0,2.5662,2.7036,2.8437,3.1367,3.3609,3.6076,4.0622,4.4095,4.7192,5.0525,5.4093,5.7084,5.8043,5.8908,5.9069,5.7363,5.6488,5.4497,4.8889,4.5362,4.1343,3.4913,3.733,4.1003,4.3229,4.667,5.029,5.3815,5.4084,5.3905,5.3935,5.4371,5.4192,5.3084,5.1982,5.1535,0.0,4.8764,4.6796,4.677,4.7086,4.6959,4.6324,4.6299,4.6303,4.6311,4.6286,4.6286,4.6286,4.6286,4.608,4.5699,4.6119,4.5258,4.3479,0.0,4.3428,4.3,4.2997,4.3,4.3014,4.3014,4.3014,4.3003,4.2991,4.2198,4.1147,0.0,0.0,0.0,0.0,0.0,0.0,0.0,0.0,0.0,0.0,0.0,0.0,0.0,0.0,0.0,0.0,0.0,0.0,0.0,0.0,0.0,0.0,0.0,0.0,0.0,0.0,0.0,0.0,0.0,0.0,0.0,0.0,0.0,0.0,0.0,0.0,0.0,0.0,0.0,0.0,0.0,0.0,0.0,0.0,0.0,0.0,0.0,0.0,0.0,2.8154,2.9965,3.1517,3.5172,3.8093,4.113,4.5898,4.9425,5.2498,5.5838,5.8514,6.0519,6.1046,6.0492,5.8813,5.497,5.2318,4.9131,4.3747,4.0864,3.7704,3.2447,3.499,3.8683,4.1132,4.4217,4.8016,5.2917,5.3037,5.3563,5.6162,5.603,5.5688,5.5598,5.3733,5.3163,5.4636,5.1253,4.8824,4.8059,4.8413,4.7926,4.6339,4.6295,4.6298,4.6311,4.6286,4.6286,4.6286,4.6286,4.6286,4.6316,4.6293,4.5454,4.3983,4.4242,0.0,4.3198,4.3056,4.2995,4.2995,4.3,4.3014,4.2992,4.3006,4.3014,4.2991,0.0,0.0,0.0,0.0,0.0,0.0,0.0,0.0,0.0,0.0,0.0,0.0,0.0,0.0,0.0,0.0,0.0,0.0,0.0,0.0,0.0,0.0,0.0,0.0,0.0,0.0,0.0,0.0,0.0,0.0,0.0,0.0,0.0,0.0,0.0,0.0,0.0,0.0,0.0,0.0,0.0,0.0,0.0,0.0,0.0,0.0,0.0,0.0,0.0,0.0,3.3421,3.7112,4.0586,4.4832,4.9197,5.2623,5.5138,5.7252,5.9159,6.0674,6.1718,6.1619,6.0004,5.756,5.4144,4.7827,4.204,3.9732,3.5389,3.1909,3.156,3.4393,3.7965,4.1632,4.4526,4.8495,5.4785,5.5102,5.5448,5.753,5.8171,5.8201,5.7649,5.7212,0.0,0.0,5.3275,5.2154,5.1248,5.0061,4.8457,4.6364,4.6284,4.6301,4.6286,4.6286,4.6286,4.6286,4.6286,4.6286,4.6301,4.6311,4.5168,4.3179,4.3253,0.0,4.4238,4.3371,4.3004,4.301,4.3003,4.3014,4.2989,4.2995,4.2997,4.2997,0.0,0.0,0.0,0.0,0.0,0.0,0.0,0.0,0.0,0.0,1.11,1.0958,0.0,0.0,0.0,0.0,0.0,0.0,0.0,0.0,0.0,0.0,0.0,0.0,0.0,0.0,0.0,0.0,0.0,0.0,0.0,0.0,0.0,0.0,0.0,0.0,0.0,0.0,0.0,0.0,0.0,0.0,0.0,0.0,0.0,0.0,0.0,0.0,0.0,0.0,3.3093,4.0293,4.4502,4.8622,5.2671,5.6601,5.8171,5.9102,6.1231,6.2214,6.2421,6.1602,5.8969,5.5346,5.069,4.4651,3.8926,3.5085,3.2204,3.0381,3.0498,3.3223,3.6404,3.9338,4.2013,4.5933,5.2217,5.3102,5.4359,5.7696,5.8697,5.8966,5.8637,5.7858,5.7231,5.6877,5.5017,5.2875,5.0477,4.95,4.8362,4.6926,4.6516,4.6286,4.6286,4.6286,4.6286,4.6286,4.6286,4.6286,4.6301,4.6302,4.572,4.4734,4.4716,0.0,4.3815,4.4449,4.4046,4.299,4.2995,4.3014,4.3014,4.3014,4.3014,4.3014,0.0,0.0,0.0,0.0,0.0,0.0,0.0,1.0706,1.1241,1.1816,1.1786,1.1598,1.122,1.1108,0.0,0.0,0.0,0.0,0.0,0.0,0.0,0.0,0.0,0.0,0.0,0.0,0.0,1.8092,0.0,0.0,0.0,0.0,0.0,0.0,0.0,0.0,0.0,0.0,0.0,0.0,0.0,0.0,0.0,0.0,0.0,0.0,0.0,0.0,2.1768,2.4651,3.1787,4.031,4.532,4.996,5.425,5.798,5.9172,5.9861,6.2416,6.3091,6.272,6.108,5.7713,5.3234,4.7418,4.2173,3.7028,3.1622,3.0276,2.9953,2.9481,3.1704,3.4428,3.6836,3.9089,4.2761,4.9112,5.0697,5.2863,5.735,5.8607,5.9099,5.9099,5.7957,0.0,5.8509,5.5865,5.2902,4.9935,4.9215,4.8538,4.7831,4.6839,4.6286,4.6286,4.6286,4.6286,4.6286,4.6286,4.6286,4.6301,4.6304,4.6315,4.6303,4.6294,0.0,0.0,4.4877,4.4583,4.3017,4.2997,4.3014,4.3014,4.3014,4.3014,4.3014,0.0,0.0,0.0,0.0,0.0,0.0,0.0,1.1239,1.183,1.2674,1.2416,1.2125,1.2081,1.1744,0.0,0.0,0.0,0.0,0.0,0.0,0.0,0.0,0.0,0.0,0.0,0.0,0.0,1.8092,1.8141,0.0,0.0,0.0,0.0,0.0,0.0,1.8682,0.0,0.0,0.0,0.0,0.0,0.0,0.0,0.0,0.0,0.0,0.0,2.075,2.1597,2.7108,3.125,3.5022,4.0272,4.7969,5.51,5.5513,5.7736,6.0455,6.2553,6.31,6.2497,5.9932,5.6327,5.1971,4.6591,4.0457,3.4853,3.124,2.9588,2.8757,2.8697,2.9887,3.2108,3.5946,0.0,4.0487,4.8289,5.0421,5.2683,5.6705,5.8321,5.9099,5.9099,5.8977,5.8331,5.7018,5.4851,5.34,5.2993,5.1166,4.9834,4.9152,4.7278,4.6286,4.6286,4.6286,4.6286,4.6286,4.6286,4.6286,4.6286,4.6291,4.6294,4.6303,4.6294,0.0,0.0,4.3222,4.3192,4.2992,4.2989,4.3014,4.3014,4.3014,4.3014,4.3014,0.0,0.0,0.0,0.0,0.0,0.0,0.0,1.1272,1.1909,1.2798,1.2746,1.2508,1.2237,1.2059,1.1861,0.0,0.0,0.0,0.0,0.0,0.0,0.0,0.0,0.0,0.0,0.0,0.0,1.7136,1.7466,0.0,0.0,0.0,0.0,0.0,0.0,1.7946,1.7806,0.0,0.0,0.0,0.0,0.0,0.0,0.0,0.0,0.0,0.0,0.0,2.0831,2.5261,2.9227,3.2601,3.4272,3.9809,4.67,5.1887,5.488,5.733,6.093,6.2476,6.2361,5.9262,5.4911,5.0021,4.4766,3.8443,3.2968,3.0469,2.8919,2.8111,2.8524,2.9019,3.0402,0.0,0.0,0.0,4.298,4.4716,4.7489,5.3443,5.5329,5.6944,5.8919,5.9099,5.8825,5.8207,5.7346,5.6692,5.6231,5.2992,5.0611,4.9449,4.8249,4.7205,4.6301,4.6286,4.6286,4.6286,4.6286,4.6286,4.6286,4.6286,4.6285,4.6229,4.4882,0.0,0.0,4.2999,4.3019,4.2999,4.3,4.3014,4.3014,4.3014,4.3014,4.3014,0.0,0.0,0.0,0.0,0.0,0.0,1.0814,1.1456,1.2087,1.2955,1.3079,1.2916,1.2469,1.2276,1.2039,1.164,0.0,0.0,0.0,0.0,0.0,0.0,0.0,0.0,0.0,0.0,0.0,0.0,1.67,1.6964,0.0,0.0,1.7722,1.7264,0.0,0.0,0.0,0.0,0.0,0.0,0.0,0.0,0.0,0.0,0.0,0.0,0.0,0.0,0.0,0.0,0.0,2.932,2.9569,0.0,0.0,4.6531,5.093,5.3927,5.8188,6.0595,6.1208,5.8261,5.3551,4.8274,4.302,3.6977,3.1891,2.9758,2.8393,2.7735,2.8224,2.8464,0.0,0.0,0.0,3.3978,3.934,4.1184,4.4177,5.0062,5.1947,5.4132,5.7603,5.9009,5.9548,5.9115,5.9279,5.9099,5.8414,5.5353,5.2603,5.0464,4.9507,4.8243,4.6552,4.6537,4.6461,4.6286,4.6286,4.6286,4.6301,4.629,4.6305,4.6217,4.4657,0.0,0.0,4.3719,4.3588,4.3002,4.2992,4.3014,4.3014,4.3014,4.3014,4.3014,0.0,0.0,0.0,0.0,0.0,0.0,0.0,1.1928,1.2515,1.3386,1.3483,1.334,1.2948,1.2488,1.2039,1.164,0.0,0.0,0.0,0.0,0.0,0.0,0.0,0.0,0.0,0.0,0.0,0.0,0.0,0.0,1.6516,1.6522,1.6527,1.6522,0.0,0.0,0.0,0.0,0.0,0.0,0.0,0.0,0.0,0.0,0.0,0.0,0.0,0.0,0.0,0.0,0.0,0.0,0.0,0.0,0.0,0.0,4.5653,5.0985,5.4341,5.7154,5.868,5.6701,5.224,4.6931,4.1624,3.6319,3.1772,2.9146,2.8088,2.7591,2.7615,2.8141,2.9019,3.0313,0.0,0.0,3.8853,4.1713,4.4387,4.704,4.8517,5.0893,5.4862,5.8786,6.0521,5.9189,5.9697,0.0,5.9129,5.843,5.6308,5.258,5.104,4.9235,4.7114,4.7099,4.6823,4.6286,4.6286,4.6286,4.6301,4.6302,4.6297,4.6301,0.0,0.0,0.0,4.535,4.4985,4.3,4.3014,4.3014,4.3014,4.3014,4.3014,4.3014,0.0,0.0,0.0,0.0,0.0,0.0,0.0,1.1495,1.1984,1.2541,1.2613,1.2554,1.243,1.1766,1.1259,1.1138,0.0,0.0,0.0,0.0,0.0,0.0,0.0,0.0,0.0,0.0,0.0,0.0,0.0,0.0,0.0,0.0,0.0,1.6505,1.6505,0.0,0.0,0.0,0.0,0.0,0.0,0.0,0.0,0.0,0.0,0.0,0.0,0.0,0.0,0.0,0.0,0.0,0.0,0.0,0.0,0.0,3.8161,4.4217,4.7549,5.0044,5.1031,4.8158,4.5165,4.1753,3.7362,3.3342,3.014,2.8876,2.7686,2.7069,2.7531,2.7758,2.8763,3.1442,3.2392,0.0,3.7545,4.0337,4.3519,4.75,5.2737,5.6496,5.7752,5.9009,5.9578,5.9115,5.9308,5.9129,5.8457,5.8218,5.6868,5.42,5.3232,5.141,4.8631,4.8602,4.7836,4.6286,4.6286,4.6305,4.6302,4.6305,4.5473,0.0,0.0,0.0,0.0,4.3757,4.362,4.2991,4.2992,4.3014,4.3014,4.3014,4.3014,4.3014,0.0,0.0,0.0,0.0,0.0,0.0,0.0,1.1143,1.1481,1.1914,1.1967,1.1893,1.1694,1.1033,1.052,1.0317,0.0,0.0,0.0,0.0,0.0,0.0,0.0,0.0,0.0,0.0,0.0,0.0,0.0,0.0,0.0,0.0,0.0,0.0,0.0,0.0,0.0,0.0,0.0,0.0,0.0,0.0,1.4789,0.0,0.0,0.0,0.0,0.0,0.0,0.0,0.0,0.0,0.0,0.0,0.0,0.0,3.1853,3.6605,4.1394,4.4177,4.5135,4.283,4.0586,3.7943,3.4233,3.1397,2.9279,2.8105,2.7386,2.7019,2.7147,2.7616,2.8571,3.0332,3.1656,3.3469,3.6289,3.9418,4.311,4.7739,5.3803,5.7543,5.7274,5.8816,5.9624,5.9129,5.9099,5.8816,5.8145,5.7859,5.6997,5.5424,5.4657,5.2769,4.9752,4.9723,4.8576,4.6286,4.6286,4.6315,4.6273,4.545,4.4284,0.0,0.0,0.0,0.0,4.3326,4.2992,4.2995,4.3006,4.3014,4.3014,4.3014,4.3014,4.3014,0.0,0.0,0.0,0.0,0.0,0.0,0.0,0.0,0.0,0.0,1.1542,1.1357,1.0868,1.0365,0.9869,0.0,0.0,0.0,0.0,0.0,0.0,0.0,0.0,0.0,0.0,0.0,0.0,0.0,1.647,1.6796,1.7417,0.0,0.0,0.0,0.0,0.0,0.0,0.0,0.0,0.0,0.0,0.0,0.0,0.0,0.0,0.0,0.0,0.0,0.0,0.0,0.0,0.0,0.0,0.0,0.0,0.0,0.0,0.0,0.0,3.9038,4.0415,3.9738,3.7772,3.5152,3.19,3.0236,0.0,2.6897,2.6956,2.7206,2.6644,2.758,2.8323,2.7886,3.0513,3.3297,3.54,3.9349,4.3668,4.8128,5.2677,5.5179,5.4431,5.8338,6.0402,5.9115,5.9039,5.8726,5.7995,5.7363,5.6748,5.6162,5.5144,5.3304,5.0549,5.0403,4.8975,4.6286,4.622,4.6169,4.6113,4.396,4.2996,0.0,0.0,0.0,0.0,4.3874,4.2995,4.3014,4.3014,4.3014,4.3014,4.3014,4.3014,4.3014,0.0,0.0,0.0,0.0,0.0,0.0,0.0,0.0,0.0,0.0,0.0,1.1013,1.0887,1.0131,0.0,0.0,0.0,0.0,0.0,0.0,0.0,0.0,0.0,0.0,0.0,0.0,0.0,1.6505,1.694,1.7262,1.7387,1.7641,0.0,0.0,0.0,0.0,0.0,0.0,0.0,0.0,0.0,0.0,0.0,0.0,0.0,0.0,1.5922,1.7255,0.0,0.0,0.0,0.0,0.0,0.0,0.0,0.0,2.5543,2.6542,2.8763,0.0,3.2212,3.1539,3.1314,3.0605,0.0,2.745,2.6942,2.5893,2.5412,2.5494,2.6676,2.6936,2.7869,3.0564,3.2265,3.43,3.7293,4.3738,4.9123,5.172,5.5688,5.7543,5.588,5.8052,5.9235,5.8397,5.8338,5.7829,5.6718,5.6479,5.6102,5.5461,5.3675,5.2434,5.1765,5.0308,4.8456,4.6286,4.543,4.5,4.4942,4.3618,4.3003,0.0,0.0,0.0,4.489,4.355,4.2995,4.3014,4.3014,4.3014,4.3014,4.3014,4.3014,4.3014,0.0,0.0,0.0,0.0,0.0,0.0,0.0,0.0,0.0,0.0,0.0,0.0,0.0,0.0,0.0,0.0,0.0,0.0,0.0,0.0,0.0,0.0,0.0,0.0,0.0,0.0,0.0,0.0,0.0,1.7543,0.0,0.0,0.0,0.0,0.0,0.0,0.0,0.0,0.0,0.0,1.3262,0.0,0.0,0.0,0.0,0.0,1.6708,1.8182,0.0,2.0139,2.1395,2.2637,0.0,0.0,0.0,0.0,2.4187,2.4917,2.5872,2.7626,2.9129,2.9062,2.9036,2.8673,2.7273,2.6449,2.5723,2.4774,2.4742,2.5046,2.5639,2.6289,2.7533,2.9911,3.2243,3.5562,4.0829,4.6052,5.0529,5.3725,5.6269,5.7706,0.0,5.8471,5.8816,5.8145,5.7829,5.7214,5.6252,5.5923,5.5431,5.476,5.2977,5.1511,5.0381,4.9325,4.7695,4.5508,4.489,4.4342,4.3861,4.3266,4.3006,0.0,0.0,0.0,4.3815,4.324,4.2995,4.3014,4.3014,4.3014,4.3014,4.3014,4.3014,4.3014,0.0,0.0,0.0,0.0,0.0,0.0,0.0,0.0,0.0,0.0,0.0,0.0,0.0,0.0,0.0,0.0,0.0,0.0,0.0,0.0,0.0,0.0,0.0,0.0,0.0,0.0,0.0,0.0,0.0,0.0,0.0,0.0,0.0,0.0,0.0,0.0,0.0,0.0,0.0,0.0,1.2999,0.0,0.0,0.0,0.0,0.0,0.0,0.0,0.0,2.1478,2.2098,2.266,2.2453,0.0,0.0,0.0,0.0,0.0,2.5634,2.7434,2.8973,2.9225,2.8869,2.8212,2.7378,2.6258,2.5046,2.3782,2.4395,2.5124,2.4879,2.6205,2.7744,2.9019,3.2711,3.7945,4.5171,4.7938,5.0702,5.4713,5.606,0.0,5.853,5.8816,5.8667,5.8008,5.7334,5.6658,5.5923,5.5371,5.473,5.4072,5.2559,5.07,4.8541,4.8149,4.685,4.4589,4.4529,4.4008,4.3116,4.3042,4.2998,4.3,0.0,0.0,4.2986,4.3006,4.3012,4.3014,4.3014,4.3014,4.3014,4.3014,4.3014,4.3014,0.0,0.0,0.0,0.0,0.0,0.0,0.0,0.0,0.0,0.0,0.0,0.0,0.0,0.0,0.0,0.0,0.0,0.0,0.0,0.0,0.0,0.0,0.0,0.0,0.0,0.0,0.0,0.0,0.0,0.0,1.8876,1.9439,1.8094,0.0,0.0,0.0,0.0,0.0,0.0,0.0,1.3451,0.0,0.0,0.0,0.0,0.0,0.0,0.0,0.0,2.0555,2.1304,2.2487,2.135,0.0,0.0,0.0,0.0,0.0,2.7342,2.9139,2.9841,2.8304,2.8243,2.8055,2.6167,2.5557,2.4967,2.3489,2.3716,2.4857,2.6968,2.8121,2.9915,3.3393,3.8455,4.3896,4.9519,5.2025,5.3773,5.5029,5.7244,5.8125,5.6791,5.7633,5.7979,5.7304,5.6688,5.579,5.4581,5.4418,5.4042,5.3366,5.1487,5.0299,4.9906,4.7907,4.6153,4.4589,4.4127,4.3837,4.3668,4.3206,4.3009,4.3,0.0,4.3009,4.3,4.3009,4.2983,4.3014,4.3014,4.3014,4.3014,4.3014,4.3014,4.3014,0.0,0.0,0.0,0.0,0.0,0.0,0.0,0.0,0.0,0.0,0.0,0.0,0.0,0.0,0.0,0.0,0.0,0.0,0.0,0.0,0.0,0.0,0.0,0.0,0.0,0.0,0.0,0.0,0.0,1.9321,1.9918,1.9543,1.8041,1.5584,0.0,0.0,0.0,0.0,0.0,0.0,0.0,0.0,0.0,0.0,0.0,0.0,0.0,0.0,0.0,0.0,2.1517,2.1951,2.0718,0.0,0.0,0.0,0.0,0.0,2.6335,2.8182,2.9362,2.8806,2.9691,3.0287,2.894,2.8056,2.7212,2.6212,2.6474,2.7341,2.8909,3.0546,3.3027,3.7106,4.0932,4.5387,5.1093,5.2701,5.3771,0.0,0.0,5.6526,5.6658,5.7214,5.7154,5.6149,5.582,5.5072,5.3725,5.3665,5.3366,5.2677,5.1414,5.0389,4.9672,4.8226,4.6609,4.4817,4.3818,4.3377,4.3352,4.3101,4.3014,4.3014,0.0,4.3014,4.3014,4.3014,4.3014,4.3014,4.3014,4.3014,4.3014,4.3014,4.3014,4.3014,0.0,0.0,0.0,0.0,0.0,0.0,0.0,0.0,0.0,0.0,0.0,0.0,0.0,0.0,0.0,0.0,0.0,0.0,0.0,0.0,0.0,0.0,0.0,0.0,0.0,0.0,1.6066,1.6809,1.8674,2.003,2.0867,1.9445,1.7942,0.0,0.0,0.0,0.0,0.0,0.0,0.0,0.0,0.0,0.0,0.0,0.0,0.0,0.0,0.0,0.0,0.0,0.0,0.0,0.0,0.0,0.0,2.1747,2.2824,2.4066,2.5742,2.7466,2.8996,2.9638,3.0681,3.1526,3.1634,3.0683,2.9748,2.9626,3.0159,3.0828,3.1366,3.3501,3.6447,4.0245,4.3483,4.7299,5.2437,5.3393,5.4097,5.5486,5.5179,5.5466,5.6958,5.6838,5.6239,5.5281,5.4922,5.4204,5.3037,5.2989,5.2677,5.2007,5.1307,5.0479,4.9446,4.8471,4.6979,4.4994,4.3962,4.3309,4.2989,4.2864,4.2813,4.2813,4.2674,4.2674,4.2813,4.276,4.2836,4.3014,4.3014,4.3014,4.3014,4.3014,4.3006,4.3,0.0,0.0,0.0,0.0,0.0,0.0,0.0,0.0,0.0,0.0,0.0,0.0,0.0,0.0,0.0,0.0,0.0,0.0,0.0,0.0,0.0,0.0,0.0,0.0,0.0,1.5724,1.6872,1.7982,2.0212,2.1349,2.1393,1.9192,1.7541,1.6324,0.0,0.0,0.0,0.0,0.0,0.0,0.0,0.0,0.0,0.0,0.0,0.0,0.0,0.0,0.0,0.0,0.0,0.0,0.0,0.0,2.0327,2.2605,2.3466,2.4365,2.7365,2.8838,2.9668,3.0283,2.965,2.9482,3.1808,3.1767,3.1559,3.2647,3.383,3.475,3.4923,3.7171,3.9913,4.2718,4.8061,5.2588,5.4708,0.0,5.6834,5.6958,5.6915,5.6958,5.7107,5.603,5.5311,5.5222,5.4054,5.3037,5.2306,5.2276,5.1977,5.1307,5.0626,5.0221,5.014,4.8237,4.6522,4.5008,4.49,4.4195,4.2975,4.2487,4.2249,4.2224,4.1667,4.1731,4.2249,4.2064,4.2365,4.3014,4.3014,4.3014,4.3014,4.3014,4.2994,4.2991,0.0,0.0,0.0,0.0,0.0,0.0,0.0,0.0,0.0,0.0,0.0,0.0,0.0,0.0,0.0,0.0,0.0,0.0,0.0,0.0,0.0,0.0,0.0,1.4587,1.6231,1.7041,1.8026,1.9161,2.1057,2.1651,2.0954,1.9,0.0,0.0,0.0,0.0,0.0,0.0,0.0,0.0,0.0,0.0,0.0,0.0,0.0,0.0,0.0,0.0,0.0,0.0,2.076,2.0183,0.0,0.0,2.0663,0.0,2.3423,2.4535,2.6119,2.8324,3.0313,3.095,3.1069,0.0,0.0,3.5401,3.6634,3.7486,3.8702,3.9774,4.0206,4.1607,4.3652,4.6598,5.0381,5.3733,5.6067,5.6098,5.6089,5.6496,5.5807,5.5299,5.5299,5.4473,5.3785,5.3366,5.2845,5.2097,5.0996,5.0966,5.0679,5.0044,4.9374,4.9224,4.9655,4.8463,4.738,4.6364,4.4667,4.3214,4.1943,4.1742,4.1642,4.1617,4.1403,4.1428,4.1642,4.1836,4.2324,4.3017,4.3017,4.3,4.3012,4.3012,4.3017,4.28,0.0,0.0,0.0,0.0,0.0,0.0,0.0,0.0,0.0,0.0,0.0,0.0,0.0,0.0,0.0,0.0,0.0,0.0,0.0,0.0,0.0,0.0,0.0,1.5002,1.6973,1.792,1.8944,2.0071,2.1229,2.1288,2.0305,0.0,0.0,0.0,0.0,0.0,0.0,0.0,0.0,0.0,0.0,1.8263,0.0,0.0,0.0,0.0,0.0,0.0,0.0,0.0,2.0552,0.0,0.0,0.0,0.0,0.0,0.0,2.4623,2.5225,2.7611,3.0073,3.0747,0.0,0.0,3.6169,3.8293,4.0268,4.2192,4.3098,4.3597,4.3718,4.4364,4.572,4.8251,5.1584,5.4455,5.6255,5.5931,5.5539,5.5555,5.476,5.4119,5.3892,5.3276,5.2618,5.1935,5.1696,5.1068,4.9991,4.9931,4.9733,4.9318,4.8648,4.8517,4.8989,4.8308,4.7536,4.6614,4.4755,4.3193,4.1892,4.1314,4.1051,4.1051,4.0876,4.0927,4.1142,4.1179,4.1915,4.2936,4.2237,4.1957,4.1956,4.1956,4.1959,4.1729,0.0,0.0,0.0,0.0,0.0,0.0,0.0,0.0,0.0,0.0,0.0,0.0,0.0,0.0,0.0,0.0,0.0,0.0,0.0,0.0,0.0,0.0,0.0,1.5228,1.6384,1.8086,1.9553,2.0698,2.0698,2.0316,1.9555,1.7824,0.0,0.0,0.0,0.0,0.0,0.0,0.0,0.0,1.7442,1.8938,2.0098,0.0,0.0,0.0,0.0,0.0,0.0,0.0,2.0847,2.0018,0.0,0.0,0.0,0.0,2.3779,2.4644,2.5239,2.6979,2.878,2.9458,3.21,3.5386,3.8712,3.9969,4.1743,4.6371,4.6609,4.5758,4.486,4.502,0.0,4.7099,5.1739,5.5192,5.52,5.576,5.5683,5.4359,5.4179,5.3922,5.3258,5.2588,5.1917,5.1247,5.0578,4.9931,4.9318,4.9288,4.9288,4.9288,4.8648,4.8278,4.8278,4.7638,4.6671,4.5411,4.5377,4.4618,4.3112,4.1345,4.0487,4.0462,3.9923,4.0114,4.072,3.9984,4.0982,4.2744,4.0559,3.969,3.9703,3.9703,3.9707,3.9689,0.0,0.0,0.0,0.0,0.0,0.0,0.0,0.0,0.0,0.0,0.0,0.0,0.0,0.0,0.0,0.0,0.0,0.0,0.0,0.0,0.0,0.0,0.0,0.0,0.0,0.0,1.9359,2.1263,2.0893,2.0111,0.0,0.0,0.0,1.6099,0.0,0.0,0.0,0.0,0.0,0.0,1.8103,1.9815,2.1637,0.0,0.0,0.0,0.0,0.0,0.0,0.0,0.0,0.0,0.0,0.0,0.0,2.3518,2.4401,2.512,2.5948,2.8267,3.0734,3.2005,3.4809,3.8221,4.2003,4.299,4.4126,4.7507,4.7518,4.627,4.4101,4.3799,0.0,4.8189,5.2354,5.4981,5.4376,5.4573,5.4461,5.3605,5.3205,5.2875,5.2528,5.135,5.0568,5.0506,4.9901,4.9265,4.8648,4.8588,4.8379,4.7919,4.7698,4.7608,4.7608,4.7399,4.7106,4.6704,4.4932,4.3374,4.2069,4.1521,4.0773,3.9923,3.9772,3.9823,3.9999,3.9784,4.0084,4.0595,3.9962,3.9701,3.9687,3.9687,3.9702,3.9705,0.0,0.0,0.0,0.0,0.0,0.0,0.0,0.0,0.0,0.0,0.0,0.0,0.0,0.0,0.0,0.0,0.0,0.0,0.0,0.0,0.0,0.0,0.0,0.0,0.0,1.753,1.8634,0.0,0.0,0.0,0.0,0.0,0.0,1.6712,0.0,1.7878,0.0,0.0,1.8877,1.9008,2.0163,2.1544,2.2902,0.0,0.0,0.0,0.0,0.0,0.0,0.0,0.0,0.0,0.0,0.0,0.0,2.3904,2.4754,2.5514,2.6879,2.9254,3.1873,3.4123,3.6964,4.021,4.4094,4.606,4.7636,4.9726,5.0289,4.9621,4.6932,4.643,0.0,5.1079,5.2965,5.4104,5.4385,5.4063,5.3642,5.3242,5.2785,5.2316,5.1861,5.0947,5.0173,4.9599,4.9221,4.8681,4.7948,4.7919,4.7739,4.7298,4.7309,4.7309,4.7309,4.7309,4.7309,4.7287,4.5745,4.4081,4.2313,4.1319,4.044,3.9697,3.9697,3.9697,3.9684,3.9715,3.9712,3.9712,3.9712,3.9704,3.9697,3.9697,3.9697,3.9697,0.0,0.0,0.0,0.0,0.0,0.0,0.0,0.0,0.0,0.0,0.0,0.0,0.0,0.0,0.0,0.0,0.0,0.0,0.0,0.0,0.0,0.0,0.0,0.0,0.0,0.0,0.0,0.0,0.0,0.0,0.0,0.0,1.8992,1.7765,0.0,2.0346,0.0,2.0785,2.1153,2.1299,2.2881,2.3665,2.3879,2.3814,0.0,0.0,0.0,0.0,0.0,0.0,0.0,0.0,2.2139,2.2365,2.2709,2.4017,2.4911,2.5904,2.8024,3.0095,3.2475,3.5922,3.891,4.1956,4.5528,4.8871,5.1357,5.1909,5.3723,5.4449,5.2009,5.1366,5.2002,5.4451,5.3401,5.2912,5.4686,5.3947,5.3128,5.2917,5.2475,5.1913,5.1097,5.0921,5.0226,4.8702,4.8519,4.8145,4.7339,4.7309,4.7268,4.7209,4.7209,4.7179,4.7119,4.7119,4.716,4.7209,4.7081,4.5788,4.342,4.1094,3.9916,3.9697,3.9697,3.9697,3.9697,3.9697,3.9697,3.9697,3.9697,3.9697,3.9697,3.9697,3.9697,3.9697,0.0,0.0,0.0,0.0,0.0,0.0,0.0,0.0,0.0,0.0,0.0,0.0,0.0,0.0,0.0,0.0,0.0,0.0,0.0,0.0,0.0,0.0,0.0,0.0,0.0,0.0,0.0,0.0,0.0,0.0,0.0,0.0,0.0,1.9834,0.0,2.225,2.2012,2.2768,2.3093,2.313,2.3499,2.401,2.4515,2.4503,2.4515,0.0,0.0,0.0,0.0,0.0,0.0,0.0,2.2264,2.2917,2.3834,2.4854,2.5451,2.6412,2.9266,3.1425,3.3783,3.7778,4.2332,4.6399,4.8574,5.0158,5.0679,4.8787,5.2043,5.503,5.4439,5.2617,5.1393,5.1983,5.2587,5.3019,5.3076,5.316,5.2553,5.0807,5.0238,4.9918,4.9727,4.8761,4.8271,4.8568,4.7973,4.751,4.7298,4.7309,4.7059,4.654,4.651,4.6251,4.5723,4.5723,4.5992,0.0,4.5482,4.4482,4.348,4.293,4.1579,3.9697,3.9697,3.9697,3.9697,3.9697,3.9697,3.9697,3.9697,3.9697,3.9697,3.9697,3.9697,3.9697,0.0,0.0,0.0,0.0,0.0,0.0,0.0,0.0,0.0,0.0,0.0,0.0,0.0,0.0,0.0,0.0,0.0,0.0,0.0,0.0,0.0,0.0,0.0,0.0,0.0,0.0,0.0,0.0,0.0,0.0,0.0,0.0,0.0,2.0883,0.0,2.3608,2.3062,2.408,2.4541,2.4617,2.4909,2.5456,2.606,2.5723,2.5563,2.5465,2.5102,0.0,0.0,0.0,0.0,0.0,0.0,0.0,2.3806,2.5039,2.5761,2.6866,3.0109,3.2605,3.5512,4.0485,4.4846,4.8057,4.8551,4.9981,5.082,4.9449,5.1369,5.3278,5.3272,5.2151,5.0798,4.9534,5.0629,5.1222,5.0173,5.0773,5.0664,4.8876,4.885,4.8787,4.838,4.771,4.7507,4.7932,4.757,4.7138,4.6695,4.6768,4.651,4.5832,4.5832,4.5653,4.5315,4.5315,4.5633,4.629,4.562,4.4672,4.3468,4.2255,4.097,3.9697,3.9697,3.9697,3.9697,3.9697,3.9697,3.9697,3.9697,3.9697,3.9697,3.9697,3.9697,3.9697,0.0,0.0,0.0,0.0,0.0,0.0,0.0,0.0,0.0,0.0,0.0,0.0,0.0,0.0,0.0,0.0,0.0,0.0,0.0,0.0,0.0,0.0,0.0,0.0,0.0,0.0,0.0,0.0,0.0,0.0,0.0,0.0,0.0,2.1925,0.0,0.0,2.3985,2.5481,2.6119,2.6171,2.6671,2.7238,2.7698,2.7033,2.6616,2.6337,2.5798,2.4995,2.417,2.4219,0.0,0.0,0.0,0.0,2.3544,2.4991,2.5854,2.7101,3.043,3.3708,3.7486,4.293,4.6346,4.8194,4.7469,4.8958,5.0532,5.0517,5.0907,5.1184,5.1202,5.1206,5.0349,4.7745,4.8706,4.9295,4.7855,4.8391,4.854,4.7417,4.7948,4.8087,4.7361,4.7298,4.7309,4.7309,4.7309,4.6886,4.5922,4.6147,4.5952,4.5155,4.5125,4.5065,4.4945,4.4945,4.5294,4.5942,4.5736,4.4884,4.3409,4.0869,3.9647,3.9559,3.966,3.966,3.9584,3.966,3.9622,3.9521,3.9647,3.9685,3.9712,3.9698,3.9697,3.9697,0.0,0.0,0.0,0.0,0.0,0.0,0.0,0.0,0.0,0.0,0.0,0.0,0.0,0.0,0.0,0.0,0.0,0.0,1.2909,0.0,0.0,1.3768,1.4213,0.0,0.0,0.0,0.0,0.0,0.0,0.0,0.0,0.0,0.0,2.4426,0.0,0.0,0.0,2.8121,2.8707,2.8221,2.8297,2.8372,2.8404,2.7728,0.0,2.5618,2.5994,2.4889,2.3362,2.3869,2.3629,0.0,0.0,0.0,2.4093,2.5093,2.5791,2.6867,2.9818,3.4666,3.975,4.3399,4.5901,4.7435,4.7324,4.7558,4.7818,4.7821,4.9629,5.1209,5.1213,5.1217,5.0336,4.7734,4.8481,4.9292,4.9083,4.8197,4.7497,4.7331,4.7396,4.7418,4.7315,4.7317,4.7309,4.7309,4.7309,4.6731,4.5452,4.5983,4.5732,4.4486,4.4426,4.4147,4.3569,4.3579,4.3898,4.4545,4.3523,4.3192,4.3409,4.0869,3.9434,3.9044,3.9509,3.9434,3.9044,3.9509,3.9319,3.8805,3.9445,3.9701,3.969,3.9712,3.9697,3.9697,0.0,0.0,0.0,0.0,0.0,0.0,0.0,0.0,0.0,0.0,0.0,0.0,0.0,0.0,0.0,1.2289,1.2651,1.2909,1.2909,1.3112,1.3354,1.3619,1.4029,1.4459,0.0,0.0,0.0,0.0,0.0,0.0,0.0,2.5367,2.6207,0.0,0.0,0.0,0.0,0.0,2.9435,2.9152,2.9152,2.8943,2.8561,0.0,0.0,0.0,0.0,0.0,2.4206,2.4051,2.3587,2.3163,2.3512,0.0,0.0,0.0,2.5507,2.7324,3.2026,3.5481,3.8751,4.2741,4.5545,4.7297,4.7291,4.7293,4.73,4.731,4.8199,4.9012,4.9011,4.9018,4.8633,4.75,4.7795,4.8184,4.8184,4.7685,4.7309,4.7309,4.7309,4.7309,4.7309,4.7309,4.7309,4.7309,4.7289,4.6717,4.5366,4.5373,4.4896,4.3778,4.3758,4.3599,4.33,4.33,4.3628,4.4286,4.3415,4.315,4.3387,4.1557,4.006,3.8919,3.9145,3.8931,3.8441,3.8881,3.9146,3.9184,3.8867,3.9143,3.9701,3.9711,3.9697,3.9697,0.0,0.0,0.0,0.0,0.0,0.0,0.0,0.0,0.0,0.0,0.0,0.0,0.0,0.0,0.0,0.0,1.2407,1.2919,1.3184,1.3496,1.3652,1.3652,1.4055,1.4439,1.4799,0.0,0.0,0.0,0.0,0.0,2.5276,2.6899,2.8169,0.0,2.895,0.0,0.0,0.0,0.0,0.0,2.9728,2.9309,0.0,0.0,0.0,0.0,0.0,0.0,0.0,0.0,0.0,2.3622,2.4064,2.3788,0.0,0.0,0.0,2.7541,3.2627,3.4757,3.654,4.0625,4.3968,4.6465,4.7157,4.7297,4.7304,4.7304,4.7316,4.729,4.7288,4.7314,4.7302,4.7302,4.7298,4.7309,4.7309,4.7108,4.6978,4.7029,4.689,4.6852,4.6955,4.6965,4.6914,4.68,4.6802,4.6201,4.4852,4.4727,4.4268,4.3329,4.33,4.33,4.33,4.33,4.3628,4.4286,4.3508,4.3239,4.335,4.2082,4.0725,3.9356,3.9203,3.8627,3.7826,3.8275,3.869,3.9019,3.8441,3.8653,3.9295,3.9597,3.9697,3.9697,0.0,0.0,0.0,0.0,0.0,0.0,0.0,0.0,0.0,0.0,0.0,0.0,0.0,1.0435,1.1109,1.174,1.225,1.2958,1.397,1.4055,1.4068,1.4068,1.4512,0.0,1.4799,0.0,0.0,0.0,0.0,0.0,2.6424,2.7411,2.9467,3.2265,3.013,2.991,3.1113,0.0,0.0,0.0,0.0,0.0,0.0,0.0,0.0,0.0,0.0,0.0,0.0,0.0,0.0,0.0,0.0,2.4398,2.4109,0.0,0.0,0.0,2.9299,3.1424,3.3652,3.6452,4.0342,4.4172,4.671,4.7313,4.731,4.731,4.7313,4.7314,4.7299,4.7289,4.7317,4.7317,4.7298,4.7309,4.7309,4.6595,4.6156,4.632,4.5802,4.5587,4.6014,4.6065,4.5891,4.5445,4.5415,4.4812,4.3474,4.4236,4.4268,4.3329,4.33,4.33,4.33,4.33,4.3628,4.4286,4.305,4.2776,4.335,4.2082,4.1168,4.0566,4.0006,3.8791,3.7274,3.7801,3.7763,3.7423,3.8454,3.8542,3.8216,3.9295,3.9697,3.9697,0.0,0.0,0.0,0.0,0.0,0.0,0.0,0.0,0.0,0.0,0.0,0.0,0.0,1.0055,1.0842,1.1785,1.2887,1.3687,1.4068,1.4381,1.4544,1.4544,1.4961,1.532,1.5635,0.0,0.0,0.0,0.0,2.3243,2.5443,2.7212,2.9599,3.2376,3.1564,3.1723,3.2666,3.2422,0.0,0.0,0.0,0.0,0.0,0.0,0.0,0.0,0.0,0.0,0.0,0.0,0.0,0.0,0.0,0.0,0.0,2.5559,2.6186,2.7207,3.0703,3.1824,3.3008,3.738,3.8378,3.8989,4.1619,4.3531,4.5213,4.6955,4.5946,4.5098,4.6243,4.6909,4.7303,4.7295,4.7317,4.6993,4.6144,4.6017,4.5918,4.5704,4.5454,4.5365,4.5528,4.5558,4.5365,4.496,4.5138,4.4707,4.3375,4.3618,4.3639,4.33,4.33,4.33,4.33,4.33,4.3419,4.3658,4.3216,4.3101,4.3326,4.2873,4.2145,4.1206,4.0272,3.9081,3.7796,3.7966,3.7932,3.7739,3.8165,3.8429,3.8655,3.9434,3.9484,3.9245,0.0,0.0,0.0,0.0,0.0,0.0,0.0,0.0,0.0,0.0,0.0,0.0,0.0,0.0,1.0655,1.2009,1.3477,1.4459,1.4752,1.4929,1.5066,1.5236,1.5496,1.5925,1.6517,0.0,0.0,0.0,0.0,0.0,0.0,2.7487,2.9735,3.1911,3.2464,3.2905,0.0,0.0,0.0,3.1728,0.0,0.0,2.9413,0.0,0.0,0.0,0.0,0.0,0.0,0.0,0.0,0.0,0.0,0.0,0.0,0.0,0.0,2.7449,3.0626,3.0848,3.1041,3.4559,3.4781,3.4842,3.7501,3.9441,4.1686,4.5243,4.4529,4.3671,4.4858,4.556,4.6154,4.6757,4.635,4.5752,4.5172,4.5095,4.5076,4.4975,4.4766,4.4636,4.4636,4.4636,4.4505,4.4244,4.4468,0.0,4.3358,4.329,4.321,4.299,4.299,4.2901,4.2651,4.2651,4.2651,4.2651,4.2651,4.2781,4.299,4.299,4.2703,4.2132,4.1376,3.9912,3.8062,3.7689,3.7493,3.7475,3.7663,3.8102,3.8655,3.9233,3.9321,3.922,0.0,0.0,0.0,0.0,0.0,0.0,0.0,0.0,0.0,0.0,0.0,0.0,0.0,0.0,0.0,1.2526,1.4019,1.5217,1.6065,1.5684,1.5644,1.6093,1.6132,1.6528,1.7378,0.0,0.0,0.0,0.0,0.0,0.0,0.0,2.9968,3.1086,3.2713,3.3193,3.2699,0.0,3.1931,3.2288,0.0,2.9638,2.9844,0.0,0.0,0.0,2.6807,2.6558,0.0,2.6524,0.0,0.0,0.0,0.0,0.0,0.0,0.0,0.0,0.0,0.0,0.0,2.7715,2.9669,3.2267,3.4815,3.5369,3.6846,4.2023,4.3084,4.313,4.317,4.3166,4.3784,4.556,4.4396,4.3561,4.4497,4.3822,4.3486,4.4186,4.3698,4.327,4.33,4.33,4.33,4.33,4.3309,4.3309,4.3309,4.328,4.3,4.2381,4.2381,4.2071,4.1403,4.1403,4.1403,4.1403,4.1403,4.1742,4.2381,4.2381,4.2711,4.326,4.327,4.1337,3.8119,3.6999,3.6511,3.6528,3.7057,3.7549,3.804,3.8655,3.922,3.9647,0.0,0.0,0.0,0.0,0.0,0.0,0.0,0.0,0.0,0.0,0.0,0.0,0.0,0.0,0.0,1.4628,1.5603,1.6274,1.6516,1.6402,1.641,1.6527,1.6527,1.6817,1.7384,0.0,0.0,0.0,0.0,0.0,0.0,0.0,0.0,0.0,3.1182,3.1987,3.1913,3.2646,0.0,3.2109,3.1041,3.0211,0.0,0.0,0.0,0.0,0.0,2.7654,2.7604,0.0,2.6959,2.6699,0.0,0.0,0.0,0.0,0.0,0.0,3.0432,0.0,0.0,0.0,0.0,0.0,3.2879,3.2622,3.3573,3.6956,3.8154,3.8994,4.025,4.0484,4.0945,4.243,4.2248,4.2118,4.2664,4.197,4.195,4.3399,4.303,4.283,4.327,4.33,4.33,0.0,4.3317,4.3284,4.3284,4.2714,4.2147,4.1682,4.1682,4.1583,4.1403,4.1403,4.1403,4.1403,4.1403,4.1493,4.1682,4.2171,4.2491,4.2622,4.2241,4.1525,4.0611,4.029,3.9389,3.8222,3.8366,3.8029,3.755,3.8542,3.8705,3.8592,0.0,0.0,0.0,0.0,0.0,0.0,0.0,0.0,0.0,0.0,0.0,0.0,0.0,0.0,0.0,0.0,1.6772,1.7542,1.7499,1.7542,1.7542,1.7499,1.7176,1.7279,0.0,0.0,0.0,0.0,0.0,0.0,0.0,0.0,0.0,0.0,0.0,0.0,0.0,0.0,0.0,0.0,3.0747,0.0,0.0,2.8818,2.8773,0.0,0.0,0.0,2.9016,2.8222,2.7821,0.0,0.0,0.0,0.0,0.0,0.0,0.0,0.0,0.0,0.0,0.0,0.0,0.0,3.1863,3.1777,3.2375,3.3578,3.5116,3.6564,3.76,3.8445,3.9131,3.9658,4.0187,4.0845,4.1638,4.13,4.136,4.2382,4.2015,4.1915,4.2442,4.2512,4.2512,4.2512,4.299,4.2838,4.1727,4.1734,4.1623,4.1401,4.14,4.1137,4.0565,4.0576,4.0581,4.0581,4.0581,4.0705,4.1005,4.1403,4.1862,4.2372,4.2069,4.2071,4.2295,4.2295,4.1125,3.927,3.8758,3.8306,3.7946,3.8364,3.8291,3.8153,0.0,0.0,0.0,0.0,0.0,0.0,0.0,0.0,0.0,0.0,0.0,0.0,0.0,0.0,0.0,0.0,1.7882,1.9014,1.9003,1.906,0.0,0.0,1.808,1.7987,0.0,0.0,0.0,0.0,0.0,0.0,0.0,0.0,0.0,0.0,0.0,0.0,0.0,0.0,0.0,3.1256,3.0179,2.9917,0.0,0.0,2.9608,3.0708,3.0883,3.0813,3.0457,2.9283,2.853,0.0,0.0,0.0,0.0,0.0,2.9819,0.0,0.0,0.0,0.0,0.0,0.0,0.0,3.1534,3.2168,3.2594,3.1812,3.3453,3.5109,3.5357,3.6684,3.7614,3.7246,3.8204,3.949,4.0975,4.1194,4.1224,4.1283,4.0923,4.0787,4.1145,4.1195,4.1176,4.1176,4.2349,4.2006,3.9538,4.0516,4.1094,4.0963,4.0953,4.0375,3.9203,3.9187,3.9263,3.9406,3.9415,3.972,4.0277,4.0367,4.1025,4.2093,4.2211,4.2621,4.321,4.321,4.1961,3.9961,3.8772,3.8515,3.8757,3.8216,3.7977,3.8103,0.9728,0.0,0.0,0.0,0.0,0.0,0.0,0.0,0.0,0.0,0.0,0.0,0.0,0.0,0.0,0.0,0.0,2.0724,2.1452,0.0,2.0891,2.0858,1.9628,1.9326,2.0178,0.0,0.0,0.0,0.0,0.0,0.0,0.0,0.0,0.0,0.0,0.0,0.0,0.0,0.0,3.2967,3.2266,0.0,2.9859,2.9668,3.0283,3.1246,3.1291,3.1105,3.0641,2.9337,2.853,2.801,0.0,0.0,0.0,2.9107,0.0,0.0,0.0,0.0,0.0,0.0,0.0,0.0,3.1745,3.2161,3.2736,3.2594,3.2415,3.2796,3.4387,3.4111,3.4135,3.5631,3.608,3.7097,3.946,3.9789,3.9999,4.0516,4.0509,4.0291,3.984,3.9806,3.9795,3.9795,4.1023,4.1083,3.9494,3.9646,3.929,3.8204,3.8188,3.806,3.7798,3.78,3.8344,3.9406,3.9415,3.9481,3.9601,4.0148,4.0247,4.0051,4.1129,4.1972,4.2571,4.2571,4.2057,4.1158,4.0005,3.9031,3.8252,3.8063,3.7828,3.7792,1.1176,0.0,0.0,0.0,0.0,0.0,0.0,0.0,0.0,0.0,0.0,0.0,0.0,0.0,0.0,0.0,0.0,0.0,0.0,0.0,2.2731,2.2465,2.1094,2.0674,2.1374,2.1557,0.0,0.0,0.0,0.0,0.0,0.0,0.0,0.0,0.0,0.0,0.0,0.0,3.0886,3.1631,3.1325,0.0,2.9801,2.9809,3.0599,3.1736,3.2114,3.1754,3.1044,3.0291,2.9565,0.0,0.0,3.0075,3.0948,0.0,3.1383,3.1493,0.0,0.0,0.0,3.2788,0.0,0.0,0.0,3.2085,3.2235,3.2572,3.1763,3.1405,3.2759,3.2452,3.2445,3.3776,3.4562,3.5587,3.7208,3.7994,3.8533,3.8862,3.8901,3.8772,3.8443,3.84,3.8493,3.874,3.9358,3.9351,3.8452,3.9057,3.8503,3.6513,3.6454,3.6439,3.6439,3.7067,3.8082,3.9395,3.9399,3.939,3.9421,3.9754,3.972,3.9454,4.0107,4.0956,4.1958,4.2578,4.2693,4.2345,4.119,4.0037,3.8957,3.8584,3.7974,3.7541,1.2841,0.0,0.0,0.0,0.0,0.0,0.0,0.0,0.0,0.0,0.0,0.0,0.0,0.0,0.0,0.0,0.0,0.0,0.0,0.0,0.0,0.0,2.25,2.2048,2.2539,2.2758,0.0,0.0,0.0,0.0,0.0,0.0,0.0,0.0,0.0,0.0,0.0,0.0,0.0,2.9807,0.0,2.981,2.9806,2.9809,3.0807,3.2286,3.2849,3.251,3.1765,3.1437,3.0786,3.0248,3.0718,3.1409,0.0,0.0,0.0,0.0,0.0,0.0,0.0,0.0,0.0,3.2288,0.0,0.0,0.0,3.2206,3.1346,3.0695,3.1391,3.1384,3.1481,3.2033,3.3253,3.421,3.4502,3.5631,0.0,3.6806,3.6738,3.6656,3.6656,3.6656,3.6865,3.7385,3.7694,3.7665,3.731,3.8154,3.7692,3.5565,3.5492,3.5511,3.5511,3.6515,3.7572,3.864,3.8904,3.8883,3.8668,3.8991,3.925,3.94,3.94,4.0015,4.1113,4.2398,4.3066,4.32,4.205,4.0905,3.9815,3.9158,3.8201,3.7426,1.4449,1.4393,0.0,0.0,0.0,0.0,0.0,0.0,0.0,0.0,0.0,0.0,0.0,0.0,0.0,0.0,0.0,0.0,2.8046,0.0,0.0,0.0,2.3763,0.0,2.3789,2.3546,2.4875,0.0,0.0,0.0,0.0,0.0,0.0,0.0,2.7378,0.0,0.0,0.0,2.9314,0.0,2.9806,2.9801,0.0,2.9809,3.1127,3.2965,3.2884,3.3046,3.3174,0.0,3.1577,3.1297,0.0,3.0037,3.0789,3.4248,0.0,0.0,0.0,0.0,0.0,0.0,3.3427,0.0,0.0,0.0,3.2243,3.172,0.0,3.0695,3.1391,0.0,0.0,3.0695,3.1861,3.234,3.1233,3.222,3.3507,3.4697,3.43,3.3941,3.3941,3.3941,3.4218,3.4849,3.6182,3.6927,3.688,3.6295,3.5814,3.5511,3.5492,3.5511,3.5511,3.5642,3.5789,3.5949,3.708,3.7026,3.5991,3.7555,3.8668,3.9406,3.9406,3.9498,3.9735,4.1074,4.2271,4.32,4.205,4.0905,3.9815,3.9158,3.8275,3.7605,1.4516,1.4993,0.0,0.0,0.0,0.0,0.0,0.0,0.0,0.0,0.0,0.0,0.0,0.0,0.0,0.0,0.0,2.6461,0.0,0.0,0.0,0.0,0.0,0.0,0.0,2.4671,2.5774,0.0,2.8808,0.0,0.0,0.0,0.0,0.0,2.7672,0.0,2.8809,0.0,2.9211,0.0,0.0,0.0,0.0,3.0289,3.1929,3.4761,3.3563,3.3527,3.3956,0.0,3.2671,0.0,0.0,0.0,0.0,0.0,0.0,0.0,0.0,0.0,0.0,0.0,0.0,0.0,3.2362,0.0,3.1966,0.0,0.0,0.0,0.0,0.0,0.0,0.0,3.0964,3.1143,3.0575,3.0336,3.0874,3.2549,0.0,0.0,3.2333,3.2333,3.2452,3.2729,3.3366,3.3878,3.4287,3.5045,3.5491,3.5488,3.5492,3.5511,3.5511,3.5495,3.5512,3.5511,3.6045,3.6387,3.6655,3.8162,3.9046,3.9391,3.9391,3.984,4.0634,4.1413,4.2369,4.325,4.278,4.1736,4.0396,3.9222,3.8237,3.757,1.5011,0.0,0.0,0.0,0.0,0.0,0.0,0.0,0.0,0.0,0.0,0.0,2.2249,2.54,0.0,0.0,2.8064,2.8791,0.0,0.0,2.7011,0.0,0.0,0.0,0.0,0.0,0.0,0.0,0.0,0.0,0.0,0.0,0.0,0.0,0.0,2.8489,2.9123,0.0,2.9322,3.0219,3.1413,3.265,3.3632,3.2359,3.3604,3.5824,3.4334,3.42,3.4682,3.4487,3.3963,0.0,3.5039,0.0,0.0,0.0,0.0,0.0,3.5516,0.0,0.0,0.0,0.0,0.0,0.0,0.0,0.0,0.0,0.0,0.0,0.0,0.0,0.0,0.0,0.0,3.0365,0.0,2.9175,2.9199,3.0807,0.0,0.0,0.0,3.071,3.0763,3.0987,3.0987,3.1249,3.1914,3.3728,3.498,3.5489,3.5515,3.551,3.5511,3.5511,3.5503,3.5492,3.5854,3.6503,3.7426,3.8538,3.9155,3.9391,3.9391,4.0148,4.1452,4.2078,4.2734,4.33,4.33,4.2638,4.1501,4.0367,3.8803,3.7234,1.6629,1.6648,0.0,0.0,0.0,0.0,0.0,0.0,0.0,0.0,0.0,0.0,0.0,0.0,0.0,0.0,0.0,3.1027,3.3843,0.0,2.7416,0.0,0.0,2.5402,0.0,0.0,0.0,2.9346,0.0,0.0,0.0,0.0,0.0,0.0,0.0,2.8725,2.9725,2.901,2.9533,3.1078,3.3508,3.485,3.5561,0.0,3.649,3.5454,3.5019,0.0,0.0,3.5454,3.5432,0.0,0.0,0.0,0.0,0.0,0.0,0.0,0.0,0.0,0.0,3.4626,0.0,0.0,0.0,0.0,3.3275,0.0,0.0,0.0,0.0,0.0,0.0,0.0,0.0,0.0,0.0,2.8637,2.8846,2.9578,2.9675,0.0,0.0,2.8697,2.8966,2.9608,2.9675,2.9937,3.0515,3.2039,3.3676,3.5439,3.5504,3.55,3.5489,3.5511,3.5511,3.5503,3.6756,3.7372,3.7417,3.7903,3.8599,3.9391,3.9391,4.0148,4.1501,4.2726,4.3278,4.33,4.33,4.3266,4.323,4.3167,4.0296,3.6575,0.0,0.0,0.0,0.0,0.0,0.0,0.0,2.1016,0.0,0.0,0.0,0.0,0.0,3.0305,3.6088,0.0,0.0,3.4714,3.4234,3.1867,0.0,0.0,0.0,2.6645,0.0,0.0,2.8498,2.8534,0.0,0.0,0.0,0.0,0.0,0.0,0.0,2.9401,0.0,0.0,0.0,0.0,0.0,3.6255,3.6043,0.0,0.0,3.6265,3.5541,3.5665,0.0,3.5639,3.5511,3.5511,3.5511,3.5511,3.5511,3.5511,3.5511,0.0,0.0,0.0,3.5701,3.4673,0.0,0.0,0.0,0.0,0.0,0.0,0.0,0.0,0.0,0.0,0.0,0.0,0.0,0.0,0.0,0.0,2.8627,2.8841,2.853,2.8184,0.0,0.0,2.8028,2.8274,2.828,2.8567,2.9205,3.0543,3.1978,3.348,3.4817,3.5516,3.5489,3.5511,3.5511,3.5519,3.5938,3.6434,3.7016,3.7177,3.8042,3.9391,3.9391,4.0148,4.1413,4.1863,4.2536,4.33,4.33,4.238,4.1035,4.1037,3.9084,3.6664,1.9386,0.0,0.0,0.0,0.0,0.0,0.0,0.0,0.0,0.0,2.5813,0.0,2.6604,0.0,3.9318,0.0,3.9303,3.7691,3.6248,3.4274,0.0,3.1035,3.0055,0.0,0.0,0.0,0.0,2.8699,2.969,2.9851,0.0,0.0,0.0,0.0,0.0,2.9972,3.1156,3.0401,3.1458,0.0,0.0,3.6718,0.0,0.0,3.6606,3.6272,0.0,3.5789,3.6066,3.5639,3.5511,3.5511,3.5511,3.5511,3.5511,3.5511,3.5511,3.5511,3.5511,3.5511,0.0,3.4959,3.4847,0.0,3.43,0.0,0.0,0.0,0.0,0.0,0.0,0.0,0.0,0.0,0.0,0.0,0.0,2.8207,2.8253,2.8469,2.8355,2.8161,2.7953,2.8113,2.8058,2.7623,2.7804,2.7998,0.0,0.0,3.041,3.1424,3.3622,3.5017,3.5493,3.5508,3.5511,3.5511,3.5511,3.5801,3.6364,3.7288,3.8344,3.9391,3.9391,4.0082,4.1159,4.1345,4.2162,4.33,4.33,4.2057,4.0161,3.9053,3.819,3.778,1.9746,0.0,0.0,0.0,2.0097,0.0,0.0,0.0,2.6144,0.0,2.7988,2.8897,3.3108,3.9212,4.2984,4.293,4.0974,3.9751,3.9684,3.7586,0.0,0.0,3.305,3.1689,2.8992,0.0,0.0,2.981,2.9804,2.9814,0.0,0.0,0.0,0.0,2.9814,0.0,3.133,3.2253,3.281,3.3212,3.526,3.6403,3.6902,3.6782,3.6217,3.5506,3.5502,3.5511,3.5511,3.5511,3.5511,3.5511,3.5511,3.5511,3.5511,3.5511,3.5511,3.5511,3.5511,3.5511,3.5511,3.5511,0.0,0.0,0.0,0.0,3.537,0.0,0.0,0.0,0.0,0.0,0.0,0.0,0.0,0.0,0.0,0.0,2.7903,2.8568,2.9137,2.92,2.86,2.9054,2.8909,2.7729,2.8137,2.8198,0.0,0.0,2.9073,2.9625,3.2072,3.4072,3.5484,3.5507,3.5511,3.5511,3.5495,3.5503,3.5597,3.8136,3.929,3.9304,3.9382,3.9889,4.0741,4.1208,4.2162,4.329,4.324,4.227,4.0535,3.7511,3.7782,3.9642,2.0379,2.0644,2.0937,0.0,2.1133,2.1288,0.0,0.0,0.0,0.0,3.0774,3.2669,3.5671,4.0199,4.266,4.1814,4.1223,0.0,0.0,0.0,0.0,3.553,3.2397,3.0313,2.9593,2.9725,0.0,2.9801,2.9798,2.9814,2.9814,0.0,0.0,0.0,0.0,3.0696,3.2291,3.3025,3.445,3.6278,3.6815,3.7738,3.8529,0.0,3.5683,3.5506,3.5502,3.5511,3.5511,3.5511,3.5511,3.5511,3.5511,3.5511,3.5511,3.5511,3.5511,3.5511,3.5511,3.5511,3.5511,3.5511,3.5511,3.5511,0.0,0.0,0.0,0.0,0.0,0.0,0.0,0.0,0.0,0.0,0.0,0.0,0.0,0.0,0.0,3.0523,3.0383,2.989,2.9243,2.931,2.9083,2.8319,2.7939,2.77,2.7599,0.0,0.0,2.9992,3.1344,3.3136,3.5475,3.5492,3.5511,3.5511,3.5506,3.5512,3.5537,3.7178,3.7921,3.7973,3.8973,3.9889,4.0741,4.1208,4.2162,4.322,4.2386,4.0919,3.9064,3.712,3.7448,3.8965,2.0948,0.0,0.0,2.2027,0.0,0.0,2.2489,2.4459,0.0,3.089,3.3679,0.0,3.9271,4.1629,4.2725,4.2092,4.1578,0.0,4.0439,0.0,0.0,3.7809,3.4521,3.2692,3.2691,3.1737,0.0,2.9796,0.0,0.0,2.9814,0.0,0.0,0.0,0.0,3.1348,3.2684,3.3914,3.5481,3.7107,3.6718,3.7024,0.0,3.6063,3.5492,3.5494,3.5495,3.5511,3.5511,3.5511,3.5511,3.5511,3.5511,3.5511,3.5511,3.5511,3.5511,3.5511,3.5511,3.5511,3.5511,3.5511,3.5511,3.5511,3.5511,3.5789,3.5946,0.0,0.0,0.0,0.0,0.0,0.0,0.0,0.0,0.0,0.0,0.0,0.0,0.0,3.1311,3.0721,3.0307,3.0007,2.9336,2.8136,2.7965,2.7585,2.6784,0.0,0.0,3.0695,3.2392,3.3958,3.5495,3.5492,3.5486,3.5511,3.5511,3.5492,3.5532,3.6255,3.7193,3.8357,3.9697,4.0563,4.1043,4.1605,4.2411,4.315,4.1512,4.019,3.9024,3.7454,3.7605,3.8702,2.1517,0.0,0.0,0.0,0.0,0.0,0.0,2.4263,0.0,3.3135,0.0,4.0236,4.2722,4.308,4.3065,4.2861,0.0,4.1401,4.1105,4.0236,3.9696,3.9702,3.787,3.6694,3.6407,3.4225,3.2021,0.0,0.0,0.0,0.0,0.0,0.0,0.0,0.0,0.0,0.0,3.4731,3.595,3.6594,3.6182,3.602,3.5978,3.5632,3.5494,3.5511,3.5511,3.5511,3.5511,3.5511,3.5511,3.5511,3.5511,3.5511,3.5511,3.5511,3.5511,3.5511,3.5511,3.5511,3.5511,3.5511,3.5511,3.5511,3.5511,3.5511,3.5511,3.5511,3.5511,3.5481,0.0,0.0,0.0,0.0,0.0,0.0,0.0,0.0,0.0,0.0,0.0,0.0,3.1418,3.0794,2.9616,2.7761,2.8089,2.763,2.5944,0.0,0.0,3.1427,3.4114,3.5676,3.6002,0.0,3.5487,3.5503,3.5511,3.5494,3.5494,3.5489,3.6747,3.897,4.0474,4.1331,4.169,4.2161,4.2652,4.287,4.0834,3.9886,3.9496,3.8027,3.7903,3.8564,2.2237,0.0,0.0,0.0,0.0,2.9781,3.1882,3.2292,3.3827,3.7987,4.2245,4.44,4.3134,4.3534,4.3422,4.2201,4.2468,0.0,0.0,0.0,0.0,3.9699,3.9336,3.8273,3.6449,3.4215,3.2018,0.0,0.0,0.0,0.0,0.0,0.0,0.0,0.0,0.0,3.3825,3.5009,0.0,3.5895,3.7907,3.8709,3.8483,3.6329,3.55,3.5511,3.5511,3.5511,3.5511,3.5511,3.5511,3.5511,3.5511,3.5511,3.5511,3.5511,3.5511,3.5511,3.5511,3.5511,3.5511,3.5511,3.5511,3.5511,3.5511,3.5511,3.5511,3.5511,3.5511,3.534,3.4787,0.0,0.0,0.0,0.0,0.0,0.0,0.0,0.0,0.0,0.0,3.1507,3.1488,3.0829,2.9814,2.8429,2.7915,2.755,2.7256,0.0,0.0,0.0,3.4084,0.0,0.0,0.0,3.5487,3.5515,3.5507,3.5512,3.5486,3.5503,3.5739,3.6326,3.8727,4.0988,4.2931,4.2311,4.2001,4.1842,4.1074,3.9842,3.8342,3.7739,3.758,3.7879,0.0,0.0,0.0,0.0,0.0,0.0,0.0,3.9019,0.0,4.0103,4.3453,4.4815,4.2385,4.3288,4.3792,4.3104,4.3038,4.2537,4.1472,4.0354,3.9699,3.9714,3.9686,0.0,3.6445,3.4234,3.202,2.9804,0.0,0.0,0.0,0.0,0.0,0.0,0.0,3.2489,0.0,0.0,0.0,3.562,3.6866,3.8183,3.9115,3.6515,3.5516,3.5511,3.5511,3.5511,3.5511,3.5511,3.5511,3.5511,3.5511,3.5511,3.5511,3.5511,3.5511,3.5511,3.5511,3.5511,3.5511,3.5511,3.5511,3.5511,3.5511,3.5511,3.5511,3.5511,3.5511,3.541,3.5067,3.4222,0.0,0.0,0.0,0.0,0.0,0.0,3.3064,0.0,0.0,0.0,0.0,3.0591,0.0,0.0,0.0,0.0,0.0,0.0,0.0,0.0,0.0,0.0,0.0,0.0,0.0,3.4251,3.4249,3.3639,3.2658,3.5994,3.7509,3.767,4.0291,4.2149,4.327,4.2849,4.2584,4.2384,4.1383,4.0426,3.939,3.7601,3.7407,3.8228,0.0,2.5513,0.0,0.0,3.2452,0.0,4.3263,4.3247,4.2271,4.1997,4.3996,4.4661,4.2576,4.3678,4.4374,4.3897,4.3343,4.3006,4.3006,4.0944,3.9697,3.9697,3.9689,3.8648,3.6452,3.4681,3.2497,0.0,0.0,0.0,0.0,0.0,0.0,0.0,0.0,0.0,0.0,0.0,3.4404,3.5497,3.5497,3.6728,3.8338,3.6276,3.551,3.5511,3.5511,3.5511,3.5511,3.5511,3.5511,3.5511,3.5511,3.5511,3.5511,3.5511,3.5511,3.5511,3.5511,3.5511,3.5511,3.5511,3.5511,3.5511,3.5511,3.5511,3.5511,3.5511,3.5511,3.5494,3.5486,3.5075,0.0,0.0,0.0,0.0,0.0,0.0,0.0,0.0,0.0,0.0,3.1692,0.0,2.9492,0.0,0.0,0.0,2.6096,0.0,0.0,0.0,0.0,3.6767,3.6338,0.0,4.0308,3.4417,3.3531,3.2179,3.0675,3.5742,3.8559,3.9564,4.2149,4.331,4.3294,4.3309,4.33,4.319,4.1956,4.118,4.0432,3.7732,3.7481,3.8591,0.0,0.0,0.0,0.0,0.0,0.0,4.1324,4.2788,4.4161,4.5604,4.6024,4.6102,4.5859,4.5974,4.5294,4.3287,4.3037,4.3006,4.3006,4.0944,3.9697,3.9697,3.969,3.8666,3.6439,3.6189,3.402,0.0,0.0,0.0,0.0,0.0,0.0,0.0,0.0,0.0,0.0,3.387,3.4551,3.5508,3.5508,3.5663,3.5827,3.5579,3.5495,3.5511,3.5511,3.5511,3.5511,3.5511,3.5511,3.5511,3.5511,3.5511,3.5511,3.5511,3.5511,3.5511,3.5511,3.5511,3.5511,3.5511,3.5511,3.5511,3.5511,3.5511,3.5511,3.5511,3.5511,3.5489,3.5492,3.5453,3.5178,0.0,0.0,0.0,0.0,0.0,3.3832,3.4519,0.0,0.0,3.1589,3.0856,3.0161,2.9546,2.8886,0.0,0.0,0.0,0.0,3.1408,0.0,3.6767,3.9019,4.1886,4.1791,3.8775,3.4917,3.2977,3.2807,3.3406,3.578,3.9554,4.2167,4.3286,4.3309,4.3309,4.33,4.3299,4.3131,4.1832,3.9831,3.8378,3.7942,3.8215,0.0,0.0,0.0,0.0,0.0,0.0,0.0,4.4428,4.5299,4.5295,4.5474,4.5811,4.6258,4.6311,4.5942,4.5073,4.3769,4.2428,4.1106,4.0184,3.9697,3.9697,3.9045,3.8577,3.8408,3.708,3.4237,0.0,0.0,0.0,0.0,0.0,0.0,0.0,0.0,3.0364,3.1404,3.2629,3.4059,3.5499,3.5506,3.5511,3.5511,3.5511,3.5511,3.5511,3.5511,3.5511,3.5511,3.5511,3.5511,3.5511,3.5511,3.5511,3.5511,3.5511,3.5511,3.5511,3.5511,3.5511,3.5511,3.5511,3.5511,3.5511,3.5511,3.5511,3.5511,3.5511,3.5511,3.5511,3.5511,3.5488,3.5417,0.0,0.0,0.0,0.0,0.0,0.0,3.4466,0.0,3.2849,3.2183,3.1058,3.0476,3.0719,0.0,0.0,0.0,0.0,0.0,3.1054,0.0,3.6866,3.7339,3.9881,3.9275,3.5604,3.4371,3.3519,3.3091,3.3094,3.626,4.1798,4.2849,4.3312,4.33,4.33,4.33,4.331,4.3303,4.3223,4.2798,4.0041,3.9661,4.0448,3.2964,0.0,3.6469,0.0,4.0839,4.1907,4.4262,4.5156,4.5329,4.4674,4.4835,4.5092,4.5298,4.532,4.5334,4.5318,4.3889,4.206,3.9844,3.9683,3.9697,3.9697,3.8919,0.0,3.8725,3.688,3.4053,3.0269,3.017,0.0,0.0,0.0,0.0,0.0,2.9796,2.9785,2.9939,3.2223,3.4074,3.5487,3.5498,3.5511,3.5511,3.5511,3.5511,3.5511,3.5511,3.5511,3.5511,3.5511,3.5511,3.5511,3.5511,3.5511,3.5511,3.5511,3.5511,3.5511,3.5511,3.5511,3.5511,3.5511,3.5511,3.5511,3.5511,3.5511,3.5511,3.5511,3.5511,3.5511,3.5511,3.5511,3.5429,3.5258,0.0,0.0,0.0,3.451,0.0,0.0,3.3432,3.2789,3.2512,3.1375,3.0704,3.0828,0.0,0.0,0.0,0.0,0.0,0.0,0.0,0.0,0.0,3.7383,3.728,3.509,3.4923,3.4243,3.3092,3.309,3.6417,4.2187,4.2972,4.3307,4.33,4.33,4.33,4.331,4.3307,4.3886,4.4386,4.1782,4.1227,4.1617,3.6869,3.8652,4.0505,4.3922,4.4525,4.455,4.4589,4.4152,4.4017,4.4535,4.4608,4.4206,4.3149,4.3047,4.3037,4.3031,4.3024,4.206,3.9844,3.9683,3.9697,0.0,0.0,3.8652,3.6492,3.5309,3.3612,3.1366,0.0,0.0,2.9814,0.0,2.9814,2.9798,2.9789,2.9788,3.0015,3.3217,3.4922,3.5511,3.5511,3.5511,3.5511,3.5511,3.5511,3.5511,3.5511,3.5511,3.5511,3.5511,3.5511,3.5511,3.5511,3.5511,3.5511,3.5511,3.5511,3.5511,3.5511,3.5511,3.5511,3.5511,3.5511,3.5511,3.5511,3.5511,3.5511,3.5511,3.5511,3.5511,3.5511,3.5511,3.528,3.4607,0.0,0.0,0.0,0.0,0.0,3.3522,3.2333,3.178,3.2452,3.1892,0.0,0.0,0.0,0.0,0.0,0.0,0.0,3.1673,3.4646,0.0,3.403,3.4839,3.6794,3.9789,3.7482,3.521,3.3092,3.3096,3.543,3.9599,4.2178,4.33,4.33,4.33,4.33,4.3299,4.3293,4.3322,4.334,4.342,4.2367,4.0787,3.81,4.0356,4.2236,4.3308,4.412,4.4601,4.4602,4.4469,4.4678,4.5635,4.5748,4.5045,4.3202,4.2992,4.2999,0.0,4.3008,4.2072,0.0,3.9696,3.9689,3.9697,3.9222,3.8842,3.8663,3.6321,3.4281,3.2564,0.0,0.0,0.0,2.9805,2.9806,2.9816,2.9813,3.2232,3.6297,3.5534,3.5324,3.5512,3.5492,3.5511,3.5511,3.5511,3.5511,3.5511,3.5511,3.5511,3.5511,3.5511,3.5511,3.5511,3.5511,3.5511,3.5511,3.5511,3.5511,3.5511,3.5511,3.5511,3.5511,3.5511,3.5511,3.5511,3.5511,3.5511,3.5511,3.5511,3.5511,3.5511,3.5511,3.5511,3.5421,3.5228,3.537,0.0,0.0,0.0,3.3335,3.2878,3.2452,3.2273,3.2482,3.1773,0.0,0.0,0.0,0.0,0.0,0.0,0.0,0.0,3.4891,0.0,3.4433,3.5809,3.6086,3.5269,3.5021,3.4286,3.3195,3.6077,3.9097,4.2128,4.2943,4.3307,4.33,4.33,4.33,4.329,4.3305,4.2339,4.0998,4.1017,4.1443,4.1773,3.9712,4.1618,4.3003,4.3003,4.3897,4.4543,4.443,4.4653,4.5015,4.5592,4.5295,4.4518,4.3152,4.3019,0.0,4.2995,4.2994,4.2408,4.1039,4.0154,3.9709,3.9684,3.9259,3.8968,3.8863,3.6993,0.0,3.3099,3.0873,2.9802,2.9811,2.9801,3.0233,3.1024,3.1032,3.4138,3.9287,3.7659,3.6411,3.5495,3.55,3.5511,3.5511,3.5511,3.5511,3.5511,3.5511,3.5511,3.5511,3.5511,3.5511,3.5511,3.5511,3.5511,3.5511,3.5511,3.5511,3.5511,3.5511,3.5511,3.5511,3.5511,3.5511,3.5511,3.5511,3.5511,3.5511,3.5511,3.5511,3.5511,3.5511,3.5511,3.5511,3.5511,3.5511,3.5244,3.4492,0.0,0.0,0.0,0.0,0.0,0.0,3.2386,3.2032,0.0,0.0,0.0,0.0,0.0,0.0,3.3779,3.4968,0.0,3.4347,3.674,3.6318,3.3123,3.5167,3.59,3.5554,3.8184,4.0823,4.3299,4.3305,4.3305,4.33,4.33,4.33,4.331,4.3293,4.2444,4.1176,4.1189,4.1311,4.135,4.1615,4.2532,4.3003,0.0,4.3832,0.0,4.4069,4.4599,4.4923,4.4535,4.3613,4.2986,4.3003,4.2997,4.2992,4.2992,0.0,0.0,0.0,4.0944,3.9709,3.9684,3.9622,3.893,3.7555,3.7252,3.5765,3.3107,3.1034,2.9943,2.9795,2.9967,3.1132,3.3105,3.3106,3.5449,3.9398,3.922,3.7718,3.5498,3.5506,3.55,3.5517,3.5492,3.5517,3.5511,3.5495,3.5495,3.5511,3.5511,3.5511,3.5511,3.5511,3.5511,3.5511,3.5511,3.5511,3.5511,3.5511,3.5511,3.5511,3.5511,3.5511,3.5511,3.5511,3.5511,3.5511,3.5511,3.5511,3.5511,3.5511,3.5511,3.5511,3.5511,3.5511,3.5186,3.4331,0.0,0.0,0.0,0.0,0.0,0.0,3.3492,3.2879,0.0,0.0,0.0,0.0,0.0,3.2311,3.4873,3.4902,3.4694,3.428,3.7701,3.7281,3.3143,3.7386,3.9393,3.9385,3.9389,4.0719,4.3054,4.3216,4.3305,4.33,4.33,4.33,4.327,4.3134,4.3084,4.3115,4.2967,4.1618,3.9857,0.0,0.0,4.3003,4.3003,4.3197,4.3357,4.3274,4.3415,4.3483,4.3386,4.3159,4.3006,4.3,4.3005,4.301,4.301,4.3003,4.2995,4.2993,4.0912,3.9709,3.9684,3.8868,3.8241,3.789,3.6586,3.4981,3.3097,3.2582,3.1455,2.9829,3.1536,3.2586,3.309,3.3097,3.5447,3.9267,3.7274,3.6069,3.551,3.5511,3.5507,3.5489,3.5486,3.5493,3.5487,3.5499,3.5489,3.5511,3.5511,3.5511,3.5511,3.5511,3.5511,3.5511,3.5511,3.5511,3.5511,3.5511,3.5511,3.5511,3.5511,3.5511,3.5511,3.5511,3.5511,3.5511,3.5511,3.5511,3.5511,3.5511,3.5511,3.5511,3.5511,3.5511,3.5236,3.4521,3.4195,0.0,0.0,3.3275,3.3335,3.3484,3.3492,3.3348,0.0,0.0,0.0,0.0,3.179,3.2612,3.5266,3.507,3.5928,3.809,3.8967,3.7282,3.315,3.7365,3.9408,3.9409,3.9406,3.9735,4.042,4.2419,4.3305,4.33,4.33,4.33,4.313,4.1383,4.1037,4.1337,3.9531,3.9277,3.9675,4.2746,4.3,4.3009,4.3001,4.2989,4.3014,4.301,4.2998,4.2983,4.2983,4.3009,4.3005,4.301,4.3007,4.2585,4.1584,4.1479,4.1495,4.1482,4.0383,3.9709,3.9684,3.9121,3.8516,3.8015,3.7105,3.5964,3.4608,3.3587,3.2487,3.1322,3.2537,3.3086,3.3115,3.309,3.5449,3.9324,3.7884,3.727,3.7295,3.7284,3.728,3.716,3.5949,3.5874,3.6301,3.5703,3.5499,3.5511,3.5511,3.5511,3.5511,3.5511,3.5511,3.5625,3.6198,3.5968,3.5511,3.5511,3.5511,3.5511,3.5511,3.5511,3.5511,3.5511,3.5511,3.5511,3.5511,3.5511,3.5511,3.5511,3.5511,3.5511,3.5511,3.5511,3.5234,3.447,3.4343,0.0,3.4001,3.3949,3.4069,3.4382,3.4412,3.4407,3.442,3.3744,0.0,3.4737,3.3847,3.3987,3.5461,3.5302,3.5957,3.7588,3.88,3.8261,3.6002,3.8289,4.0031,4.1192,4.1173,4.0529,3.9567,4.2164,4.3305,4.33,4.33,4.33,4.3061,4.0795,3.9473,3.8813,3.8017,3.8585,3.9671,4.2694,4.2872,4.3014,4.3014,4.3014,4.3003,4.3009,4.2992,4.3007,4.301,4.2998,4.2857,4.255,4.2816,4.2117,3.9878,3.9712,3.9711,3.9692,3.9705,3.9712,3.9697,3.969,3.9082,3.7779,3.7769,3.7301,3.6407,3.451,3.3605,3.3601,3.3589,3.3422,3.3118,3.3439,3.5399,3.8493,3.9145,3.9405,3.9399,3.9408,3.9408,3.9174,3.6941,3.6743,3.7553,3.6466,3.61,3.6083,3.5936,3.5889,3.5881,3.5734,3.5688,3.5916,3.7151,3.6745,3.5843,3.556,3.5514,3.5514,3.565,3.5587,3.5525,3.5671,3.5688,3.5718,3.5772,3.578,3.575,3.5661,3.5639,3.5579,3.537,3.5421,3.5196,3.4325,0.0,3.4705,3.4841,3.4833,3.5056,3.5729,3.578,3.5797,3.5776,3.5614,3.5516,3.5516,3.5882,3.6103,3.6103,3.5723,3.5682,3.6075,3.8275,3.9391,3.9391,3.9406,4.0561,4.2714,4.311,4.2083,4.01,4.2322,4.3305,4.33,4.33,4.3101,4.2592,4.0763,3.8676,3.6759,3.7671,3.8615,3.9471,4.174,4.2329,4.3014,4.3014,4.3014,4.2997,4.301,4.2991,4.3012,4.3001,4.3005,4.2295,4.0436,4.1876,4.2118,3.9889,3.9686,3.9693,3.9695,3.9695,3.9696,3.9697,3.969,3.873,3.6702,3.6656,3.6568,3.6407,3.6066,3.5881,3.5899,3.5901,3.4896,3.319,3.5048,3.5215,3.4322,3.7896,3.9411,3.9412,3.9393,3.9395,3.9357,3.8958,3.892,3.9064,3.8853,3.8793,3.8669,3.7947,3.7703,3.7562,3.6837,3.6586,3.6773,3.7721,3.7849,3.7378,3.5915,3.5502,3.5683,3.6412,3.6022,3.5701,3.6429,3.6586,3.6688,3.7041,3.7097,3.6956,3.6425,3.6335,3.5976,3.4847,3.513,3.5196,3.4325,0.0,3.5612,3.6353,3.6295,3.6425,3.7037,3.7097,3.7122,3.7105,3.6111,3.5498,3.5498,3.7587,3.8791,3.8791,3.6655,3.6555,3.8775,3.9209,3.9391,3.9412,3.9403,3.9604,4.0079,4.2292,4.3067,4.2726,4.3122,4.3305,4.33,4.33,4.2184,4.0443,4.0722,3.9612,3.7851,3.7973,3.8101,3.8388,4.2329,4.2652,4.3014,4.3014,4.3014,4.3,4.3003,4.3002,4.2989,4.3002,4.1962,4.0822,3.9816,4.0619,4.0804,3.978,3.9716,3.9697,3.9697,3.9697,3.9697,3.9697,3.969,3.8667,3.6443,3.64,3.6412,3.6403,3.6403,3.6397,3.6396,3.6407,3.5851,3.4857,3.4698,3.4047,3.3233,3.5175,3.6018,3.5995,3.6009,3.7367,3.9406,3.94,3.94,3.9399,3.9399,3.9399,3.9354,3.8956,3.8805,3.8607,3.749,3.6977,3.7045,3.8417,3.8275,3.7494,3.6471,3.6365,3.6786,3.7905,3.7901,3.7593,3.7507,3.7293,3.7182,3.7349,3.7396,3.7216,3.6605,3.6493,3.6194,3.5198,3.531,0.0,0.0,3.5563,3.6219,3.6752,3.6916,3.7105,3.7366,3.7396,3.7545,3.7913,3.7072,3.6845,3.7561,4.0079,4.1501,4.1514,3.8966,3.8184,3.9382,3.9391,3.9391,3.9391,3.9384,3.9405,3.9454,4.0638,4.1961,4.3299,4.3293,4.3311,4.3309,4.3288,4.1948,3.9819,3.8888,3.8528,3.8492,3.814,3.8216,3.8605,4.3014,4.3014,4.3014,4.3014,4.3014,4.2989,4.2997,4.2551,4.2225,4.2226,4.0744,3.9707,3.9709,3.9705,3.9694,3.9696,3.9705,3.9697,3.9697,3.9697,3.9697,3.9697,3.969,3.8918,3.7202,3.6673,3.6397,3.6393,3.6393,3.6393,3.6405,3.6401,3.64,3.6345,3.4616,3.3597,3.3092,3.3094,3.3096,3.3088,3.3114,3.5039,3.8044,3.9032,3.9415,3.9412,3.9416,3.9411,3.9395,3.9395,3.9395,3.9235,3.8184,3.766,3.7663,3.9002,3.8482,3.7442,3.724,3.728,3.7721,3.907,3.9395,3.9235,3.8542,3.8128,3.7904,3.8054,3.7964,3.7725,3.7255,3.6904,3.6447,3.5631,0.0,0.0,0.0,3.5949,3.6558,3.7313,3.7494,3.7648,3.7845,3.7866,3.8084,3.8601,3.8534,3.8919,3.9932,4.2108,4.321,4.2988,4.067,3.9389,3.939,3.9394,3.9391,3.9391,3.9391,3.9402,3.9409,3.9413,4.0489,4.2433,4.3035,4.2959,4.2436,4.3065,4.2276,4.0411,3.751,3.7176,3.8279,3.8093,3.8291,3.8781,4.3014,4.3014,4.3014,4.3014,4.3014,4.3008,4.3013,4.1248,3.9941,3.9949,3.9799,3.9697,3.9696,3.9684,3.9697,3.9696,3.9684,3.9697,3.9697,3.9697,3.9697,3.9697,3.969,3.9611,3.9463,3.7437,3.6397,3.6393,3.6393,3.6393,3.6393,3.6391,3.6393,3.6382,3.6234,3.5028,3.3105,3.3113,3.3096,3.3099,3.311,3.3276,3.399,3.79,3.9404,3.9409,3.9396,3.9406,3.9394,3.9394,3.9394,3.9385,3.9281,3.9233,3.9233,3.9349,3.8644,3.7864,3.8195,3.7841,3.7718,3.9083,3.9394,3.9385,3.9329,3.9281,3.9421,4.0038,3.967,3.9242,3.9182,3.8174,3.6917,3.5691,0.0,0.0,3.5511,3.5545,3.648,3.8913,3.8518,3.8372,3.9173,3.9242,3.9272,3.9331,4.0785,4.1692,4.1804,4.276,4.2912,4.2114,4.0346,3.9395,3.9413,3.9384,3.9391,3.9391,3.9391,3.9412,3.9406,3.9407,3.9502,3.9814,4.2238,4.194,3.9887,4.2302,4.3195,4.2602,3.813,3.6473,3.6687,3.765,3.804,3.8216,4.3014,4.3014,4.2995,4.3001,4.3017,4.2995,4.2989,4.1112,3.9712,3.9696,3.9697,3.9697,3.9697,3.9697,3.9697,3.9697,3.9697,3.9697,3.9697,3.9697,3.9697,3.9697,3.969,3.9688,3.969,3.7524,3.6397,3.6393,3.6393,3.6393,3.6393,3.6393,3.6402,3.6393,3.6402,3.5938,3.5068,3.3676,3.3087,3.3111,3.3102,3.3107,3.3287,3.4875,3.7129,3.9395,3.9396,3.9395,3.9403,3.9397,3.9402,3.9414,3.9414,3.998,4.0429,3.9255,3.8572,3.8094,3.7797,3.8181,3.8907,3.9931,4.0221,4.0272,4.0556,4.0645,4.0705,4.0975,4.0825,4.0397,3.9541,3.8973,3.8195,3.6887,0.0,3.6584,3.6326,3.6863,3.7823,3.922,3.9463,3.9699,4.0162,4.0454,4.0825,4.1224,4.123,4.1666,4.2735,4.3107,4.3159,4.2812,4.1621,4.0499,3.9409,3.9404,3.9414,3.9384,3.9399,3.9391,3.9412,3.9416,4.0288,4.1795,4.1167,4.0315,3.9601,4.2226,4.3288,4.2839,3.8214,3.6685,3.708,3.7023,3.7879,3.912,4.2962,4.2996,4.301,4.3003,4.2436,4.1963,4.1956,4.0685,3.9714,3.9696,3.9697,3.9697,3.9697,3.9697,3.9697,3.9697,3.9697,3.9697,3.9697,3.9699,3.97,3.97,3.9702,3.9382,3.8683,3.7177,3.6397,3.6393,3.6393,3.6393,3.6393,3.6393,3.6393,3.6405,3.6403,3.6409,3.6253,3.4031,3.3088,3.309,3.309,3.3102,3.3109,3.3094,3.5332,3.8655,4.01,4.0096,3.9539,4.0337,4.0077,3.9403,3.9403,4.0104,4.0531,3.8483,3.7815,3.7635,3.71,3.7682,3.8669,3.9729,3.9819,3.9856,4.0663,4.0819,4.1013,4.1576,4.1553,4.1184,4.0457,3.9999,3.9421,3.8473,3.8174,3.7921,3.7658,3.8242,3.8973,3.9639,4.0422,4.09,4.0909,4.1222,4.1583,4.2041,4.1574,4.1842,4.322,4.33,4.33,4.33,4.2712,4.1821,4.0643,4.0232,3.9834,3.9415,3.984,4.0014,4.0027,4.0031,4.1228,4.316,4.0651,3.9951,4.0655,4.0982,4.1134,4.0816,3.7636,3.6928,3.7578,3.6961,3.7841,3.9382,4.2885,4.3007,4.2993,4.2993,4.1172,3.972,3.9712,3.9703,3.9709,3.9695,3.9697,3.9697,3.9697,3.9697,3.9697,3.9697,3.9697,3.9697,3.971,3.9677,3.9677,3.9677,3.9659,3.8645,3.6452,3.6415,3.6397,3.6393,3.6393,3.6393,3.6393,3.6393,3.6393,3.6393,3.6393,3.6391,3.6256,3.4033,3.3112,3.3104,3.3115,3.3115,3.3111,3.3112,3.4484,3.7001,4.1607,4.1596,3.9823,4.2423,4.1589,3.9435,3.9435,3.9625,3.9399,3.7037,3.6313,3.627,3.6199,3.6257,3.663,3.8026,3.7896,3.779,3.9259,3.9596,4.0135,4.2019,4.1843,4.1603,4.2291,4.1313,4.0427,4.0397,3.9849,3.9421,3.9421,3.9403,3.9665,4.033,4.1365,4.1853,4.1452,4.1403,4.1403,4.1403,4.2041,4.2661,4.327,4.33,4.33,4.33,4.33,4.33,4.33,4.2043,4.0754,3.9445,4.0754,4.1395,4.1396,4.1406,4.2098,4.3153,4.0871,4.1178,4.2932,3.8295,3.6398,3.6388,3.6388,3.7062,3.7951,3.764,3.7979,3.8717,4.2808,4.299,4.2516,4.0961,4.1419,4.2023,4.202,4.0701,3.9702,3.9709,3.9697,3.9697,3.9697,3.9697,3.9697,3.9697,3.9697,3.9699,3.9702,3.8264,3.7379,3.7382,3.738,3.7079,3.6415,3.6407,3.6399,3.6393,3.6393,3.6393,3.6393,3.6393,3.6393,3.6393,3.6393,3.6389,3.627,3.4042,3.309,3.3095,3.3105,3.311,3.3282,3.4825,3.5832,3.6577,3.7959,4.0038,4.2254,4.3052,4.279,4.2158,4.2158,3.998,3.7513,3.7871,3.686,3.5582,3.5575,3.595,3.6462,3.6899,3.7719,3.8683,3.9612,3.9819,4.0213,4.1566,4.1456,4.1386,4.2245,4.2426,4.2152,4.1252,4.0945,4.0795,4.0795,4.081,4.0988,4.1464,4.182,4.22,4.2672,4.2718,4.2741,4.2741,4.293,4.31,4.33,4.33,4.33,4.33,4.33,4.33,4.33,4.2304,4.1619,4.1235,4.1327,4.1567,4.1836,4.1811,4.1773,4.1615,4.0418,4.028,4.0686,3.7648,3.6399,3.6399,3.6399,3.7062,3.8087,3.8774,3.9171,3.9408,4.1609,4.2388,4.2309,4.0086,4.0823,4.1693,4.1697,4.0563,3.9705,3.9684,3.9697,3.9697,3.9697,3.9697,3.9697,3.9697,3.9697,3.9688,3.9702,3.7626,3.6797,3.7664,3.7719,3.7309,3.6415,3.6403,3.6393,3.6393,3.6393,3.6393,3.6393,3.6393,3.6393,3.6393,3.6393,3.6393,3.6308,3.4977,3.3905,3.3179,3.4053,3.4399,3.4551,3.5879,3.6398,3.6475,3.7102,3.872,4.0693,4.1647,4.2544,4.2994,4.1153,3.8661,3.6541,3.7175,3.659,3.5672,3.537,3.5849,3.6402,3.6402,3.7161,3.8154,3.8991,3.9194,3.9596,4.1071,4.1156,4.1352,4.2553,4.3059,4.3061,4.2278,4.2166,4.2082,4.1832,4.1992,4.2141,4.2146,4.2361,4.2721,4.3246,4.3309,4.33,4.33,4.33,4.33,4.33,4.33,4.33,4.33,4.33,4.3419,4.3698,4.318,4.2652,4.2164,4.2143,4.1908,4.1449,4.1705,4.1368,4.0532,3.9743,3.9606,3.9715,3.7373,3.6395,3.6448,3.6881,3.7436,3.8091,3.8942,3.9462,3.9697,3.9823,4.1309,4.207,4.0038,3.9702,3.9687,3.9687,3.9697,3.9702,3.9704,3.9693,3.9693,3.9693,3.9693,3.9693,3.9693,3.9696,3.9713,3.9702,3.7814,3.7593,3.9601,3.9514,3.8471,3.6441,3.6404,3.6393,3.6393,3.6393,3.6393,3.6393,3.6393,3.6393,3.6393,3.6393,3.6395,3.6396,3.6385,3.511,3.329,3.5519,3.6393,3.6402,3.6412,3.6398,3.6576,3.7974,3.7586,3.6721,3.8867,4.0966,4.1934,3.7723,3.6391,3.6282,3.56,3.5872,3.6244,3.5564,3.5872,3.6393,3.6393,3.6393,3.6662,3.7712,3.7937,3.8485,4.0404,4.0745,4.1187,4.2693,4.3107,4.3192,4.3192,4.3245,4.31,4.2551,4.293,4.31,4.2551,4.296,4.33,4.33,4.33,4.33,4.33,4.33,4.33,4.33,4.33,4.3329,4.3389,4.3329,4.3658,4.4396,4.4337,4.3758,4.267,4.3041,4.2383,4.0797,4.1303,4.0891,3.9766,3.9085,3.9108,3.9412,3.7267,3.6401,3.6505,3.7684,3.8163,3.8177,3.8479,3.9068,3.9697,3.9735,4.0104,4.0244,3.9771,3.9705,3.9689,3.9689,3.9685,3.9699,3.9694,3.9694,3.9694,3.9694,3.9694,3.9694,3.9694,3.9696,3.9699,3.97,3.9256,3.9211,3.9675,3.8046,3.6887,3.6418,3.6398,3.6393,3.6393,3.6393,3.6393,3.6393,3.6393,3.6393,3.6393,3.6393,3.6403,3.6385,3.641,3.5128,3.3299,3.55,3.6391,3.6391,3.6397,3.6398,3.6447,3.6781,3.6695,3.6483,3.6975,3.7495,3.7727,3.671,3.6398,3.6381,3.6192,3.6269,3.6368,3.6207,3.6281,3.6393,3.6393,3.6393,3.6464,3.6709,3.6768,3.722,3.8852,3.8918,3.9044,4.0323,4.1557,4.2362,4.2362,4.2881,4.324,4.313,4.321,4.324,4.313,4.321,4.33,4.33,4.33,4.33,4.33,4.33,4.33,4.33,4.33,4.3539,4.4057,4.3569,4.3878,4.5065,4.4546,4.4426,4.4646,4.3357,4.2552,4.2126,4.1451,4.0343,3.8979,3.9448,3.8684,3.7117,3.6601,3.6383,3.6604,3.8561,3.933,3.926,3.878,3.9068,3.9697,3.9696,3.9696,3.9692,3.9689,3.9706,3.8757,3.5925,3.5513,3.5493,3.5493,3.5493,3.5493,3.5493,3.5493,3.5493,3.5493,3.4726,3.5364,3.7955,3.8131,3.8114,3.8129,3.7019,3.6893,3.7941,3.4393,3.3796,3.6394,3.6394,3.6394,3.6394,3.6389,3.6398,3.641,3.6399,3.6393,3.6391,3.6407,3.5724,3.4791,3.5923,3.6411,3.6393,3.6393,3.6393,3.6393,3.6393,3.6393,3.639,3.6405,3.6413,3.6402,3.6391,3.6401,3.6393,3.6393,3.6393,3.6393,3.6393,3.6393,3.6393,3.6393,3.6393,3.6393,3.6393,3.64,3.6769,3.8081,3.8176,3.8378,3.9528,4.0414,4.1207,4.1968,4.2452,4.2863,4.325,4.33,4.33,4.33,4.33,4.331,4.3299,4.2646,4.2211,4.2211,4.1883,4.1678,4.1678,4.2183,4.2645,4.3007,4.3189,4.3788,4.4825,4.4594,4.4876,4.5621,4.4245,4.28,4.1305,4.0743,3.9428,3.7629,3.8049,3.7521,3.6492,3.7526,3.7964,3.8104,3.9257,3.9688,3.9639,3.9259,3.9382,3.9697,3.9699,3.8886,3.8202,3.8209,3.8199,3.6548,3.165,3.0898,3.0903,3.0903,3.0903,3.0903,3.0903,3.0898,3.0789,3.0482,2.9407,3.0526,3.4741,3.5008,3.5028,3.5028,3.5013,3.5876,3.7724,3.1534,3.0503,3.5013,3.5013,3.5013,3.5025,3.502,3.5502,3.6406,3.6409,3.6397,3.6417,3.6411,3.6401,3.6391,3.6411,3.6389,3.6393,3.6393,3.6393,3.6393,3.6393,3.6393,3.6393,3.6393,3.6393,3.6393,3.6393,3.6393,3.6393,3.6393,3.6393,3.6393,3.6393,3.6393,3.6393,3.6393,3.6393,3.6406,3.6397,3.6408,3.6696,3.7767,3.8148,3.8565,3.952,3.9772,4.0342,4.1879,4.237,4.2726,4.3219,4.3569,4.3708,4.3569,4.3529,4.3578,4.3624,4.2284,4.1373,4.127,4.0524,3.9996,3.9913,4.0799,4.1373,4.1459,4.2573,4.3556,4.4339,4.4727,4.5365,4.6202,4.5499,4.351,4.0483,3.9662,3.8347,3.6649,3.6476,3.6492,3.6825,3.8868,3.9691,3.9664,3.9285,3.9361,3.9702,3.9699,3.9697,3.9697,3.9694,3.559,3.2097,3.2091,3.2093,3.1816,3.1015,3.0894,3.0891,3.0891,3.0891,3.0891,3.0891,3.0908,3.0297,2.8766,2.9809,3.0234,2.9439,2.9402,2.9404,2.94,2.9409,2.9539,2.9839,2.883,2.8661,2.94,2.94,2.94,2.94,2.94,3.1893,3.6407,3.6406,3.64,3.6405,3.639,3.6403,3.6405,3.639,3.6403,3.6393,3.6393,3.6393,3.6393,3.6393,3.6393,3.6393,3.6393,3.6393,3.6393,3.6393,3.6393,3.6393,3.6393,3.6393,3.6393,3.6393,3.6393,3.6393,3.6393,3.6393,3.6397,3.6386,3.6389,3.6698,3.7777,3.8767,3.9512,3.9676,4.0125,4.0839,4.2007,4.3408,4.4102,4.3403,4.4666,4.5351,4.4598,4.4515,4.4651,4.5003,4.3855,4.288,4.2419,4.1258,4.0377,3.9913,4.0065,4.0385,4.0879,4.2074,4.3298,4.4549,4.54,4.6251,4.7105,4.701,4.556,4.2864,3.8749,3.7202,3.7728,3.6797,3.6924,3.789,3.9171,3.9702,3.9508,3.7597,3.8025,3.9711,3.9698,3.9697,3.9697,3.4776,3.2686,3.0902,3.0895,3.0914,3.0903,3.0903,3.0907,3.0913,3.0913,3.0913,3.0908,3.0899,3.0021,2.9143,2.8361,2.9874,3.0166,2.8402,2.8297,2.8303,2.8303,2.8311,2.8298,2.8305,2.8291,2.8305,2.8303,2.8303,2.8303,2.8303,2.8316,2.9566,3.1996,3.5059,3.6405,3.64,3.64,3.6393,3.6393,3.6393,3.6393,3.6393,3.6393,3.6393,3.6393,3.6393,3.6393,3.6393,3.6393,3.6393,3.6393,3.6393,3.6393,3.6393,3.6393,3.6393,3.6393,3.6393,3.6388,3.6395,3.6395,3.6413,3.6405,3.6407,3.7356,3.8378,3.8843,3.9348,3.9701,3.9698,3.9931,4.0365,4.1166,4.2505,4.344,4.3383,4.466,4.5209,4.4093,4.4009,4.4088,4.4276,4.2134,4.0441,3.9791,3.9119,3.851,3.7967,3.8536,3.9013,3.9278,4.0469,4.1579,4.2573,4.4595,4.5419,4.5064,4.3703,4.2455,4.1297,3.9206,3.8492,3.8906,3.8453,3.8154,3.8089,3.9247,3.9702,3.96,3.862,3.8845,3.9697,3.9697,3.9697,3.9697]}]]